<?xml version="1.0" encoding="UTF-8" standalone="no" ?>
<gpx xmlns="http://www.topografix.com/GPX/1/1" xmlns:xsi="http://www.w3.org/2001/XMLSchema-instance" xsi:schemaLocation="http://www.topografix.com/GPX/1/1 http://www.topografix.com/GPX/1/1/gpx.xsd" version="1.1" creator="VisuGPX - https://www.visugpx.com">
  <metadata>
    <name>XCO Buthiers</name>
  </metadata>
  <trk>
    <name><![CDATA[XCO Buthiers_1]]></name>
    <trkseg>
      <trkpt lat="48.29468" lon="2.4373">
        <ele>75.5</ele>
        <time>2020-09-06T08:54:04Z</time>
      </trkpt>
      <trkpt lat="48.29469" lon="2.43731">
        <ele>75.5</ele>
        <time>2020-09-06T08:54:05Z</time>
      </trkpt>
      <trkpt lat="48.29469" lon="2.43732">
        <ele>75.5</ele>
        <time>2020-09-06T08:54:06Z</time>
      </trkpt>
      <trkpt lat="48.29471" lon="2.43738">
        <ele>75.5</ele>
        <time>2020-09-06T08:54:07Z</time>
      </trkpt>
      <trkpt lat="48.29472" lon="2.4374">
        <ele>75.5</ele>
        <time>2020-09-06T08:54:08Z</time>
      </trkpt>
      <trkpt lat="48.29474" lon="2.43745">
        <ele>75.6</ele>
        <time>2020-09-06T08:54:09Z</time>
      </trkpt>
      <trkpt lat="48.29474" lon="2.43751">
        <ele>75.6</ele>
        <time>2020-09-06T08:54:10Z</time>
      </trkpt>
      <trkpt lat="48.29473" lon="2.43755">
        <ele>75.6</ele>
        <time>2020-09-06T08:54:11Z</time>
      </trkpt>
      <trkpt lat="48.29473" lon="2.4376">
        <ele>75.6</ele>
        <time>2020-09-06T08:54:12Z</time>
      </trkpt>
      <trkpt lat="48.29474" lon="2.43765">
        <ele>75.7</ele>
        <time>2020-09-06T08:54:13Z</time>
      </trkpt>
      <trkpt lat="48.29475" lon="2.43767">
        <ele>75.7</ele>
        <time>2020-09-06T08:54:14Z</time>
      </trkpt>
      <trkpt lat="48.29476" lon="2.43773">
        <ele>75.7</ele>
        <time>2020-09-06T08:54:15Z</time>
      </trkpt>
      <trkpt lat="48.29477" lon="2.43779">
        <ele>75.8</ele>
        <time>2020-09-06T08:54:16Z</time>
      </trkpt>
      <trkpt lat="48.29479" lon="2.43785">
        <ele>75.8</ele>
        <time>2020-09-06T08:54:17Z</time>
      </trkpt>
      <trkpt lat="48.2948" lon="2.43792">
        <ele>75.9</ele>
        <time>2020-09-06T08:54:18Z</time>
      </trkpt>
      <trkpt lat="48.29482" lon="2.438">
        <ele>75.9</ele>
        <time>2020-09-06T08:54:19Z</time>
      </trkpt>
      <trkpt lat="48.29483" lon="2.43808">
        <ele>75.9</ele>
        <time>2020-09-06T08:54:20Z</time>
      </trkpt>
      <trkpt lat="48.29485" lon="2.43814">
        <ele>75.9</ele>
        <time>2020-09-06T08:54:21Z</time>
      </trkpt>
      <trkpt lat="48.29486" lon="2.43821">
        <ele>75.9</ele>
        <time>2020-09-06T08:54:22Z</time>
      </trkpt>
      <trkpt lat="48.29487" lon="2.43828">
        <ele>75.9</ele>
        <time>2020-09-06T08:54:23Z</time>
      </trkpt>
      <trkpt lat="48.29486" lon="2.43833">
        <ele>75.9</ele>
        <time>2020-09-06T08:54:24Z</time>
      </trkpt>
      <trkpt lat="48.29486" lon="2.43839">
        <ele>75.9</ele>
        <time>2020-09-06T08:54:25Z</time>
      </trkpt>
      <trkpt lat="48.29486" lon="2.43846">
        <ele>75.9</ele>
        <time>2020-09-06T08:54:26Z</time>
      </trkpt>
      <trkpt lat="48.29487" lon="2.43853">
        <ele>75.9</ele>
        <time>2020-09-06T08:54:27Z</time>
      </trkpt>
      <trkpt lat="48.29488" lon="2.43859">
        <ele>75.9</ele>
        <time>2020-09-06T08:54:28Z</time>
      </trkpt>
      <trkpt lat="48.29488" lon="2.43864">
        <ele>75.9</ele>
        <time>2020-09-06T08:54:29Z</time>
      </trkpt>
      <trkpt lat="48.29489" lon="2.43872">
        <ele>75.9</ele>
        <time>2020-09-06T08:54:30Z</time>
      </trkpt>
      <trkpt lat="48.29489" lon="2.4388">
        <ele>75.9</ele>
        <time>2020-09-06T08:54:31Z</time>
      </trkpt>
      <trkpt lat="48.2949" lon="2.43888">
        <ele>76</ele>
        <time>2020-09-06T08:54:32Z</time>
      </trkpt>
      <trkpt lat="48.29496" lon="2.43891">
        <ele>76.2</ele>
        <time>2020-09-06T08:54:33Z</time>
      </trkpt>
      <trkpt lat="48.29498" lon="2.43897">
        <ele>76.2</ele>
        <time>2020-09-06T08:54:34Z</time>
      </trkpt>
      <trkpt lat="48.29499" lon="2.43903">
        <ele>76.2</ele>
        <time>2020-09-06T08:54:35Z</time>
      </trkpt>
      <trkpt lat="48.29498" lon="2.43909">
        <ele>76.3</ele>
        <time>2020-09-06T08:54:36Z</time>
      </trkpt>
      <trkpt lat="48.29498" lon="2.43915">
        <ele>76.3</ele>
        <time>2020-09-06T08:54:37Z</time>
      </trkpt>
      <trkpt lat="48.29496" lon="2.43921">
        <ele>76.4</ele>
        <time>2020-09-06T08:54:38Z</time>
      </trkpt>
      <trkpt lat="48.29497" lon="2.43928">
        <ele>76.4</ele>
        <time>2020-09-06T08:54:39Z</time>
      </trkpt>
      <trkpt lat="48.29499" lon="2.43936">
        <ele>76.4</ele>
        <time>2020-09-06T08:54:40Z</time>
      </trkpt>
      <trkpt lat="48.29499" lon="2.43942">
        <ele>76.5</ele>
        <time>2020-09-06T08:54:41Z</time>
      </trkpt>
      <trkpt lat="48.295" lon="2.43948">
        <ele>76.5</ele>
        <time>2020-09-06T08:54:42Z</time>
      </trkpt>
      <trkpt lat="48.29501" lon="2.43953">
        <ele>76.5</ele>
        <time>2020-09-06T08:54:43Z</time>
      </trkpt>
      <trkpt lat="48.29502" lon="2.43959">
        <ele>76.6</ele>
        <time>2020-09-06T08:54:44Z</time>
      </trkpt>
      <trkpt lat="48.29504" lon="2.43967">
        <ele>76.7</ele>
        <time>2020-09-06T08:54:45Z</time>
      </trkpt>
      <trkpt lat="48.29505" lon="2.43974">
        <ele>76.7</ele>
        <time>2020-09-06T08:54:46Z</time>
      </trkpt>
      <trkpt lat="48.29507" lon="2.4398">
        <ele>76.8</ele>
        <time>2020-09-06T08:54:47Z</time>
      </trkpt>
      <trkpt lat="48.2951" lon="2.43985">
        <ele>76.8</ele>
        <time>2020-09-06T08:54:48Z</time>
      </trkpt>
      <trkpt lat="48.29512" lon="2.43989">
        <ele>76.8</ele>
        <time>2020-09-06T08:54:49Z</time>
      </trkpt>
      <trkpt lat="48.29513" lon="2.43995">
        <ele>76.9</ele>
        <time>2020-09-06T08:54:50Z</time>
      </trkpt>
      <trkpt lat="48.29513" lon="2.43998">
        <ele>76.9</ele>
        <time>2020-09-06T08:54:51Z</time>
      </trkpt>
      <trkpt lat="48.29513" lon="2.44002">
        <ele>76.9</ele>
        <time>2020-09-06T08:54:52Z</time>
      </trkpt>
      <trkpt lat="48.29513" lon="2.44003">
        <ele>76.9</ele>
        <time>2020-09-06T08:54:53Z</time>
      </trkpt>
      <trkpt lat="48.29514" lon="2.44003">
        <ele>76.9</ele>
        <time>2020-09-06T08:54:54Z</time>
      </trkpt>
      <trkpt lat="48.29514" lon="2.44003">
        <ele>76.9</ele>
        <time>2020-09-06T08:54:55Z</time>
      </trkpt>
      <trkpt lat="48.29514" lon="2.44005">
        <ele>77</ele>
        <time>2020-09-06T08:54:56Z</time>
      </trkpt>
      <trkpt lat="48.29514" lon="2.44008">
        <ele>77</ele>
        <time>2020-09-06T08:54:57Z</time>
      </trkpt>
      <trkpt lat="48.29515" lon="2.44011">
        <ele>77</ele>
        <time>2020-09-06T08:54:58Z</time>
      </trkpt>
      <trkpt lat="48.29515" lon="2.44013">
        <ele>77.1</ele>
        <time>2020-09-06T08:54:59Z</time>
      </trkpt>
      <trkpt lat="48.29516" lon="2.44015">
        <ele>77.1</ele>
        <time>2020-09-06T08:55:00Z</time>
      </trkpt>
      <trkpt lat="48.29516" lon="2.44017">
        <ele>77.1</ele>
        <time>2020-09-06T08:55:01Z</time>
      </trkpt>
      <trkpt lat="48.29518" lon="2.44019">
        <ele>77.1</ele>
        <time>2020-09-06T08:55:02Z</time>
      </trkpt>
      <trkpt lat="48.29521" lon="2.44021">
        <ele>77.2</ele>
        <time>2020-09-06T08:55:03Z</time>
      </trkpt>
      <trkpt lat="48.29523" lon="2.44022">
        <ele>77.2</ele>
        <time>2020-09-06T08:55:04Z</time>
      </trkpt>
      <trkpt lat="48.29526" lon="2.44025">
        <ele>77.3</ele>
        <time>2020-09-06T08:55:05Z</time>
      </trkpt>
      <trkpt lat="48.29528" lon="2.44027">
        <ele>77.3</ele>
        <time>2020-09-06T08:55:06Z</time>
      </trkpt>
      <trkpt lat="48.29532" lon="2.44029">
        <ele>77.4</ele>
        <time>2020-09-06T08:55:07Z</time>
      </trkpt>
      <trkpt lat="48.29533" lon="2.4403">
        <ele>77.4</ele>
        <time>2020-09-06T08:55:08Z</time>
      </trkpt>
      <trkpt lat="48.29536" lon="2.44033">
        <ele>77.4</ele>
        <time>2020-09-06T08:55:09Z</time>
      </trkpt>
      <trkpt lat="48.29541" lon="2.44035">
        <ele>77.5</ele>
        <time>2020-09-06T08:55:10Z</time>
      </trkpt>
      <trkpt lat="48.29545" lon="2.44038">
        <ele>77.5</ele>
        <time>2020-09-06T08:55:11Z</time>
      </trkpt>
      <trkpt lat="48.29548" lon="2.4404">
        <ele>77.6</ele>
        <time>2020-09-06T08:55:12Z</time>
      </trkpt>
      <trkpt lat="48.2955" lon="2.44044">
        <ele>77.6</ele>
        <time>2020-09-06T08:55:13Z</time>
      </trkpt>
      <trkpt lat="48.29552" lon="2.44048">
        <ele>77.6</ele>
        <time>2020-09-06T08:55:14Z</time>
      </trkpt>
      <trkpt lat="48.29554" lon="2.44053">
        <ele>77.8</ele>
        <time>2020-09-06T08:55:15Z</time>
      </trkpt>
      <trkpt lat="48.29555" lon="2.44058">
        <ele>77.8</ele>
        <time>2020-09-06T08:55:16Z</time>
      </trkpt>
      <trkpt lat="48.29555" lon="2.44059">
        <ele>77.8</ele>
        <time>2020-09-06T08:55:17Z</time>
      </trkpt>
      <trkpt lat="48.29555" lon="2.44064">
        <ele>77.9</ele>
        <time>2020-09-06T08:55:18Z</time>
      </trkpt>
      <trkpt lat="48.29554" lon="2.44069">
        <ele>77.8</ele>
        <time>2020-09-06T08:55:19Z</time>
      </trkpt>
      <trkpt lat="48.29554" lon="2.44075">
        <ele>77.8</ele>
        <time>2020-09-06T08:55:20Z</time>
      </trkpt>
      <trkpt lat="48.29554" lon="2.4408">
        <ele>77.9</ele>
        <time>2020-09-06T08:55:21Z</time>
      </trkpt>
      <trkpt lat="48.29554" lon="2.44086">
        <ele>77.9</ele>
        <time>2020-09-06T08:55:22Z</time>
      </trkpt>
      <trkpt lat="48.29554" lon="2.44091">
        <ele>78</ele>
        <time>2020-09-06T08:55:23Z</time>
      </trkpt>
      <trkpt lat="48.29556" lon="2.44097">
        <ele>78</ele>
        <time>2020-09-06T08:55:24Z</time>
      </trkpt>
      <trkpt lat="48.29557" lon="2.44103">
        <ele>78.2</ele>
        <time>2020-09-06T08:55:25Z</time>
      </trkpt>
      <trkpt lat="48.29559" lon="2.44106">
        <ele>78.4</ele>
        <time>2020-09-06T08:55:26Z</time>
      </trkpt>
      <trkpt lat="48.29561" lon="2.44109">
        <ele>78.5</ele>
        <time>2020-09-06T08:55:27Z</time>
      </trkpt>
      <trkpt lat="48.29564" lon="2.44114">
        <ele>78.7</ele>
        <time>2020-09-06T08:55:28Z</time>
      </trkpt>
      <trkpt lat="48.29566" lon="2.44118">
        <ele>78.9</ele>
        <time>2020-09-06T08:55:29Z</time>
      </trkpt>
      <trkpt lat="48.29568" lon="2.4412">
        <ele>79.2</ele>
        <time>2020-09-06T08:55:30Z</time>
      </trkpt>
      <trkpt lat="48.2957" lon="2.44123">
        <ele>79.3</ele>
        <time>2020-09-06T08:55:31Z</time>
      </trkpt>
      <trkpt lat="48.29573" lon="2.44126">
        <ele>79.5</ele>
        <time>2020-09-06T08:55:32Z</time>
      </trkpt>
      <trkpt lat="48.29573" lon="2.44128">
        <ele>79.8</ele>
        <time>2020-09-06T08:55:33Z</time>
      </trkpt>
      <trkpt lat="48.29575" lon="2.44132">
        <ele>79.8</ele>
        <time>2020-09-06T08:55:34Z</time>
      </trkpt>
      <trkpt lat="48.29577" lon="2.44137">
        <ele>80.2</ele>
        <time>2020-09-06T08:55:35Z</time>
      </trkpt>
      <trkpt lat="48.29578" lon="2.44142">
        <ele>80.4</ele>
        <time>2020-09-06T08:55:36Z</time>
      </trkpt>
      <trkpt lat="48.29578" lon="2.44143">
        <ele>80.5</ele>
        <time>2020-09-06T08:55:37Z</time>
      </trkpt>
      <trkpt lat="48.29579" lon="2.44145">
        <ele>80.5</ele>
        <time>2020-09-06T08:55:38Z</time>
      </trkpt>
      <trkpt lat="48.29579" lon="2.44148">
        <ele>80.8</ele>
        <time>2020-09-06T08:55:39Z</time>
      </trkpt>
      <trkpt lat="48.29581" lon="2.44152">
        <ele>81</ele>
        <time>2020-09-06T08:55:40Z</time>
      </trkpt>
      <trkpt lat="48.29581" lon="2.44154">
        <ele>81</ele>
        <time>2020-09-06T08:55:41Z</time>
      </trkpt>
      <trkpt lat="48.29582" lon="2.4416">
        <ele>81.4</ele>
        <time>2020-09-06T08:55:42Z</time>
      </trkpt>
      <trkpt lat="48.29581" lon="2.44165">
        <ele>81.5</ele>
        <time>2020-09-06T08:55:43Z</time>
      </trkpt>
      <trkpt lat="48.29579" lon="2.44169">
        <ele>81.5</ele>
        <time>2020-09-06T08:55:44Z</time>
      </trkpt>
      <trkpt lat="48.29577" lon="2.4417">
        <ele>81.6</ele>
        <time>2020-09-06T08:55:45Z</time>
      </trkpt>
      <trkpt lat="48.29576" lon="2.44175">
        <ele>81.8</ele>
        <time>2020-09-06T08:55:46Z</time>
      </trkpt>
      <trkpt lat="48.29576" lon="2.44178">
        <ele>81.9</ele>
        <time>2020-09-06T08:55:47Z</time>
      </trkpt>
      <trkpt lat="48.29577" lon="2.44182">
        <ele>82.1</ele>
        <time>2020-09-06T08:55:48Z</time>
      </trkpt>
      <trkpt lat="48.29576" lon="2.44186">
        <ele>82.3</ele>
        <time>2020-09-06T08:55:49Z</time>
      </trkpt>
      <trkpt lat="48.29577" lon="2.4419">
        <ele>82.4</ele>
        <time>2020-09-06T08:55:50Z</time>
      </trkpt>
      <trkpt lat="48.29577" lon="2.44195">
        <ele>82.6</ele>
        <time>2020-09-06T08:55:51Z</time>
      </trkpt>
      <trkpt lat="48.29576" lon="2.44199">
        <ele>82.7</ele>
        <time>2020-09-06T08:55:52Z</time>
      </trkpt>
      <trkpt lat="48.29576" lon="2.44204">
        <ele>82.8</ele>
        <time>2020-09-06T08:55:53Z</time>
      </trkpt>
      <trkpt lat="48.29575" lon="2.44207">
        <ele>82.9</ele>
        <time>2020-09-06T08:55:54Z</time>
      </trkpt>
      <trkpt lat="48.29576" lon="2.44212">
        <ele>83</ele>
        <time>2020-09-06T08:55:55Z</time>
      </trkpt>
      <trkpt lat="48.29578" lon="2.44212">
        <ele>83.1</ele>
        <time>2020-09-06T08:55:56Z</time>
      </trkpt>
      <trkpt lat="48.29578" lon="2.44215">
        <ele>83.2</ele>
        <time>2020-09-06T08:55:57Z</time>
      </trkpt>
      <trkpt lat="48.29579" lon="2.4422">
        <ele>83.4</ele>
        <time>2020-09-06T08:55:58Z</time>
      </trkpt>
      <trkpt lat="48.29579" lon="2.44221">
        <ele>83.4</ele>
        <time>2020-09-06T08:55:59Z</time>
      </trkpt>
      <trkpt lat="48.2958" lon="2.44226">
        <ele>83.5</ele>
        <time>2020-09-06T08:56:00Z</time>
      </trkpt>
      <trkpt lat="48.29581" lon="2.44228">
        <ele>83.5</ele>
        <time>2020-09-06T08:56:01Z</time>
      </trkpt>
      <trkpt lat="48.29581" lon="2.44233">
        <ele>83.8</ele>
        <time>2020-09-06T08:56:02Z</time>
      </trkpt>
      <trkpt lat="48.29582" lon="2.44235">
        <ele>83.8</ele>
        <time>2020-09-06T08:56:03Z</time>
      </trkpt>
      <trkpt lat="48.29583" lon="2.44239">
        <ele>83.9</ele>
        <time>2020-09-06T08:56:04Z</time>
      </trkpt>
      <trkpt lat="48.29584" lon="2.44246">
        <ele>84</ele>
        <time>2020-09-06T08:56:05Z</time>
      </trkpt>
      <trkpt lat="48.29584" lon="2.44248">
        <ele>84.2</ele>
        <time>2020-09-06T08:56:06Z</time>
      </trkpt>
      <trkpt lat="48.29585" lon="2.44254">
        <ele>84.5</ele>
        <time>2020-09-06T08:56:07Z</time>
      </trkpt>
      <trkpt lat="48.29584" lon="2.44259">
        <ele>84.4</ele>
        <time>2020-09-06T08:56:08Z</time>
      </trkpt>
      <trkpt lat="48.29583" lon="2.44264">
        <ele>84.5</ele>
        <time>2020-09-06T08:56:09Z</time>
      </trkpt>
      <trkpt lat="48.29584" lon="2.44269">
        <ele>84.6</ele>
        <time>2020-09-06T08:56:10Z</time>
      </trkpt>
      <trkpt lat="48.29586" lon="2.44274">
        <ele>84.9</ele>
        <time>2020-09-06T08:56:11Z</time>
      </trkpt>
      <trkpt lat="48.29589" lon="2.4428">
        <ele>85.3</ele>
        <time>2020-09-06T08:56:12Z</time>
      </trkpt>
      <trkpt lat="48.29592" lon="2.44284">
        <ele>85.8</ele>
        <time>2020-09-06T08:56:13Z</time>
      </trkpt>
      <trkpt lat="48.29594" lon="2.44287">
        <ele>86.1</ele>
        <time>2020-09-06T08:56:14Z</time>
      </trkpt>
      <trkpt lat="48.29597" lon="2.4429">
        <ele>86.6</ele>
        <time>2020-09-06T08:56:15Z</time>
      </trkpt>
      <trkpt lat="48.296" lon="2.44291">
        <ele>87</ele>
        <time>2020-09-06T08:56:16Z</time>
      </trkpt>
      <trkpt lat="48.29601" lon="2.4429">
        <ele>87</ele>
        <time>2020-09-06T08:56:17Z</time>
      </trkpt>
      <trkpt lat="48.29603" lon="2.44286">
        <ele>87.3</ele>
        <time>2020-09-06T08:56:18Z</time>
      </trkpt>
      <trkpt lat="48.29603" lon="2.44284">
        <ele>87.4</ele>
        <time>2020-09-06T08:56:19Z</time>
      </trkpt>
      <trkpt lat="48.29606" lon="2.44279">
        <ele>87.6</ele>
        <time>2020-09-06T08:56:20Z</time>
      </trkpt>
      <trkpt lat="48.29608" lon="2.44273">
        <ele>87.8</ele>
        <time>2020-09-06T08:56:21Z</time>
      </trkpt>
      <trkpt lat="48.29611" lon="2.44269">
        <ele>88.1</ele>
        <time>2020-09-06T08:56:22Z</time>
      </trkpt>
      <trkpt lat="48.29614" lon="2.44263">
        <ele>88.4</ele>
        <time>2020-09-06T08:56:23Z</time>
      </trkpt>
      <trkpt lat="48.29618" lon="2.44254">
        <ele>88.5</ele>
        <time>2020-09-06T08:56:24Z</time>
      </trkpt>
      <trkpt lat="48.29618" lon="2.44244">
        <ele>88.2</ele>
        <time>2020-09-06T08:56:25Z</time>
      </trkpt>
      <trkpt lat="48.29616" lon="2.44237">
        <ele>88.1</ele>
        <time>2020-09-06T08:56:26Z</time>
      </trkpt>
      <trkpt lat="48.29615" lon="2.44228">
        <ele>87.6</ele>
        <time>2020-09-06T08:56:27Z</time>
      </trkpt>
      <trkpt lat="48.29617" lon="2.44217">
        <ele>87.5</ele>
        <time>2020-09-06T08:56:28Z</time>
      </trkpt>
      <trkpt lat="48.29618" lon="2.44208">
        <ele>87.3</ele>
        <time>2020-09-06T08:56:29Z</time>
      </trkpt>
      <trkpt lat="48.29619" lon="2.44202">
        <ele>87.5</ele>
        <time>2020-09-06T08:56:30Z</time>
      </trkpt>
      <trkpt lat="48.29621" lon="2.44198">
        <ele>87.5</ele>
        <time>2020-09-06T08:56:31Z</time>
      </trkpt>
      <trkpt lat="48.29622" lon="2.44198">
        <ele>87.7</ele>
        <time>2020-09-06T08:56:32Z</time>
      </trkpt>
      <trkpt lat="48.29625" lon="2.44199">
        <ele>88</ele>
        <time>2020-09-06T08:56:33Z</time>
      </trkpt>
      <trkpt lat="48.29626" lon="2.44199">
        <ele>88</ele>
        <time>2020-09-06T08:56:34Z</time>
      </trkpt>
      <trkpt lat="48.2963" lon="2.442">
        <ele>88.3</ele>
        <time>2020-09-06T08:56:35Z</time>
      </trkpt>
      <trkpt lat="48.29631" lon="2.44201">
        <ele>88.5</ele>
        <time>2020-09-06T08:56:36Z</time>
      </trkpt>
      <trkpt lat="48.29635" lon="2.44203">
        <ele>89</ele>
        <time>2020-09-06T08:56:37Z</time>
      </trkpt>
      <trkpt lat="48.29638" lon="2.44206">
        <ele>89.5</ele>
        <time>2020-09-06T08:56:38Z</time>
      </trkpt>
      <trkpt lat="48.29638" lon="2.44207">
        <ele>89.6</ele>
        <time>2020-09-06T08:56:39Z</time>
      </trkpt>
      <trkpt lat="48.29641" lon="2.44209">
        <ele>89.9</ele>
        <time>2020-09-06T08:56:40Z</time>
      </trkpt>
      <trkpt lat="48.29642" lon="2.44209">
        <ele>90.2</ele>
        <time>2020-09-06T08:56:41Z</time>
      </trkpt>
      <trkpt lat="48.29644" lon="2.44209">
        <ele>90.3</ele>
        <time>2020-09-06T08:56:42Z</time>
      </trkpt>
      <trkpt lat="48.29647" lon="2.44207">
        <ele>90.6</ele>
        <time>2020-09-06T08:56:43Z</time>
      </trkpt>
      <trkpt lat="48.29648" lon="2.44207">
        <ele>90.8</ele>
        <time>2020-09-06T08:56:44Z</time>
      </trkpt>
      <trkpt lat="48.29649" lon="2.4421">
        <ele>90.9</ele>
        <time>2020-09-06T08:56:45Z</time>
      </trkpt>
      <trkpt lat="48.29648" lon="2.44212">
        <ele>91.3</ele>
        <time>2020-09-06T08:56:46Z</time>
      </trkpt>
      <trkpt lat="48.29649" lon="2.44215">
        <ele>91.6</ele>
        <time>2020-09-06T08:56:47Z</time>
      </trkpt>
      <trkpt lat="48.29649" lon="2.44217">
        <ele>91.7</ele>
        <time>2020-09-06T08:56:48Z</time>
      </trkpt>
      <trkpt lat="48.29651" lon="2.44221">
        <ele>92.3</ele>
        <time>2020-09-06T08:56:49Z</time>
      </trkpt>
      <trkpt lat="48.29652" lon="2.44222">
        <ele>92.4</ele>
        <time>2020-09-06T08:56:50Z</time>
      </trkpt>
      <trkpt lat="48.29655" lon="2.44226">
        <ele>93</ele>
        <time>2020-09-06T08:56:51Z</time>
      </trkpt>
      <trkpt lat="48.29656" lon="2.44228">
        <ele>93.6</ele>
        <time>2020-09-06T08:56:52Z</time>
      </trkpt>
      <trkpt lat="48.29658" lon="2.44231">
        <ele>93.6</ele>
        <time>2020-09-06T08:56:53Z</time>
      </trkpt>
      <trkpt lat="48.29659" lon="2.44234">
        <ele>94.2</ele>
        <time>2020-09-06T08:56:54Z</time>
      </trkpt>
      <trkpt lat="48.29662" lon="2.44238">
        <ele>94.8</ele>
        <time>2020-09-06T08:56:55Z</time>
      </trkpt>
      <trkpt lat="48.29663" lon="2.44239">
        <ele>94.8</ele>
        <time>2020-09-06T08:56:56Z</time>
      </trkpt>
      <trkpt lat="48.29663" lon="2.4424">
        <ele>95.2</ele>
        <time>2020-09-06T08:56:57Z</time>
      </trkpt>
      <trkpt lat="48.29663" lon="2.44243">
        <ele>95.3</ele>
        <time>2020-09-06T08:56:58Z</time>
      </trkpt>
      <trkpt lat="48.29662" lon="2.44246">
        <ele>95.2</ele>
        <time>2020-09-06T08:56:59Z</time>
      </trkpt>
      <trkpt lat="48.29662" lon="2.44248">
        <ele>95.2</ele>
        <time>2020-09-06T08:57:00Z</time>
      </trkpt>
      <trkpt lat="48.29662" lon="2.44251">
        <ele>95.2</ele>
        <time>2020-09-06T08:57:01Z</time>
      </trkpt>
      <trkpt lat="48.2966" lon="2.44252">
        <ele>95.2</ele>
        <time>2020-09-06T08:57:02Z</time>
      </trkpt>
      <trkpt lat="48.29657" lon="2.44254">
        <ele>95.2</ele>
        <time>2020-09-06T08:57:03Z</time>
      </trkpt>
      <trkpt lat="48.29655" lon="2.44255">
        <ele>95.2</ele>
        <time>2020-09-06T08:57:04Z</time>
      </trkpt>
      <trkpt lat="48.29651" lon="2.44258">
        <ele>95.2</ele>
        <time>2020-09-06T08:57:05Z</time>
      </trkpt>
      <trkpt lat="48.29648" lon="2.44263">
        <ele>95.2</ele>
        <time>2020-09-06T08:57:06Z</time>
      </trkpt>
      <trkpt lat="48.29644" lon="2.44267">
        <ele>95.3</ele>
        <time>2020-09-06T08:57:07Z</time>
      </trkpt>
      <trkpt lat="48.29641" lon="2.44271">
        <ele>95.3</ele>
        <time>2020-09-06T08:57:08Z</time>
      </trkpt>
      <trkpt lat="48.29637" lon="2.44275">
        <ele>95.3</ele>
        <time>2020-09-06T08:57:09Z</time>
      </trkpt>
      <trkpt lat="48.29634" lon="2.44278">
        <ele>95.4</ele>
        <time>2020-09-06T08:57:10Z</time>
      </trkpt>
      <trkpt lat="48.2963" lon="2.44281">
        <ele>95.5</ele>
        <time>2020-09-06T08:57:11Z</time>
      </trkpt>
      <trkpt lat="48.29627" lon="2.44286">
        <ele>95.5</ele>
        <time>2020-09-06T08:57:12Z</time>
      </trkpt>
      <trkpt lat="48.29625" lon="2.44291">
        <ele>95.6</ele>
        <time>2020-09-06T08:57:13Z</time>
      </trkpt>
      <trkpt lat="48.29622" lon="2.44297">
        <ele>95.7</ele>
        <time>2020-09-06T08:57:14Z</time>
      </trkpt>
      <trkpt lat="48.29619" lon="2.44304">
        <ele>95.7</ele>
        <time>2020-09-06T08:57:15Z</time>
      </trkpt>
      <trkpt lat="48.29616" lon="2.4431">
        <ele>95.8</ele>
        <time>2020-09-06T08:57:16Z</time>
      </trkpt>
      <trkpt lat="48.29613" lon="2.44317">
        <ele>95.8</ele>
        <time>2020-09-06T08:57:17Z</time>
      </trkpt>
      <trkpt lat="48.29609" lon="2.44322">
        <ele>95.8</ele>
        <time>2020-09-06T08:57:18Z</time>
      </trkpt>
      <trkpt lat="48.29605" lon="2.4433">
        <ele>95.9</ele>
        <time>2020-09-06T08:57:19Z</time>
      </trkpt>
      <trkpt lat="48.29604" lon="2.44338">
        <ele>95.8</ele>
        <time>2020-09-06T08:57:20Z</time>
      </trkpt>
      <trkpt lat="48.29602" lon="2.44346">
        <ele>95.8</ele>
        <time>2020-09-06T08:57:21Z</time>
      </trkpt>
      <trkpt lat="48.29599" lon="2.44352">
        <ele>95.8</ele>
        <time>2020-09-06T08:57:22Z</time>
      </trkpt>
      <trkpt lat="48.29596" lon="2.44357">
        <ele>95.8</ele>
        <time>2020-09-06T08:57:23Z</time>
      </trkpt>
      <trkpt lat="48.29594" lon="2.44363">
        <ele>95.8</ele>
        <time>2020-09-06T08:57:24Z</time>
      </trkpt>
      <trkpt lat="48.29592" lon="2.4437">
        <ele>95.9</ele>
        <time>2020-09-06T08:57:25Z</time>
      </trkpt>
      <trkpt lat="48.29591" lon="2.44377">
        <ele>95.9</ele>
        <time>2020-09-06T08:57:26Z</time>
      </trkpt>
      <trkpt lat="48.29588" lon="2.44384">
        <ele>96</ele>
        <time>2020-09-06T08:57:27Z</time>
      </trkpt>
      <trkpt lat="48.29587" lon="2.44393">
        <ele>96.2</ele>
        <time>2020-09-06T08:57:28Z</time>
      </trkpt>
      <trkpt lat="48.29587" lon="2.44401">
        <ele>96.3</ele>
        <time>2020-09-06T08:57:29Z</time>
      </trkpt>
      <trkpt lat="48.29588" lon="2.44409">
        <ele>96.4</ele>
        <time>2020-09-06T08:57:30Z</time>
      </trkpt>
      <trkpt lat="48.2959" lon="2.44416">
        <ele>96.6</ele>
        <time>2020-09-06T08:57:31Z</time>
      </trkpt>
      <trkpt lat="48.29592" lon="2.44421">
        <ele>96.7</ele>
        <time>2020-09-06T08:57:32Z</time>
      </trkpt>
      <trkpt lat="48.29595" lon="2.44425">
        <ele>96.8</ele>
        <time>2020-09-06T08:57:33Z</time>
      </trkpt>
      <trkpt lat="48.29595" lon="2.44427">
        <ele>96.9</ele>
        <time>2020-09-06T08:57:34Z</time>
      </trkpt>
      <trkpt lat="48.29595" lon="2.44431">
        <ele>97</ele>
        <time>2020-09-06T08:57:35Z</time>
      </trkpt>
      <trkpt lat="48.29593" lon="2.4444">
        <ele>97.2</ele>
        <time>2020-09-06T08:57:36Z</time>
      </trkpt>
      <trkpt lat="48.29591" lon="2.44448">
        <ele>97.4</ele>
        <time>2020-09-06T08:57:37Z</time>
      </trkpt>
      <trkpt lat="48.29589" lon="2.44456">
        <ele>97.7</ele>
        <time>2020-09-06T08:57:38Z</time>
      </trkpt>
      <trkpt lat="48.29588" lon="2.44463">
        <ele>97.8</ele>
        <time>2020-09-06T08:57:39Z</time>
      </trkpt>
      <trkpt lat="48.29587" lon="2.44468">
        <ele>98</ele>
        <time>2020-09-06T08:57:40Z</time>
      </trkpt>
      <trkpt lat="48.29585" lon="2.44474">
        <ele>98.2</ele>
        <time>2020-09-06T08:57:41Z</time>
      </trkpt>
      <trkpt lat="48.29582" lon="2.44479">
        <ele>98.3</ele>
        <time>2020-09-06T08:57:42Z</time>
      </trkpt>
      <trkpt lat="48.29578" lon="2.44486">
        <ele>98.5</ele>
        <time>2020-09-06T08:57:43Z</time>
      </trkpt>
      <trkpt lat="48.29576" lon="2.44494">
        <ele>98.7</ele>
        <time>2020-09-06T08:57:44Z</time>
      </trkpt>
      <trkpt lat="48.29575" lon="2.44502">
        <ele>98.8</ele>
        <time>2020-09-06T08:57:45Z</time>
      </trkpt>
      <trkpt lat="48.29573" lon="2.44509">
        <ele>98.8</ele>
        <time>2020-09-06T08:57:46Z</time>
      </trkpt>
      <trkpt lat="48.29571" lon="2.44514">
        <ele>98.7</ele>
        <time>2020-09-06T08:57:47Z</time>
      </trkpt>
      <trkpt lat="48.29568" lon="2.44514">
        <ele>98.7</ele>
        <time>2020-09-06T08:57:48Z</time>
      </trkpt>
      <trkpt lat="48.29565" lon="2.44509">
        <ele>98.5</ele>
        <time>2020-09-06T08:57:49Z</time>
      </trkpt>
      <trkpt lat="48.2956" lon="2.44505">
        <ele>98.2</ele>
        <time>2020-09-06T08:57:50Z</time>
      </trkpt>
      <trkpt lat="48.29554" lon="2.44503">
        <ele>97.8</ele>
        <time>2020-09-06T08:57:51Z</time>
      </trkpt>
      <trkpt lat="48.29549" lon="2.44503">
        <ele>97.3</ele>
        <time>2020-09-06T08:57:52Z</time>
      </trkpt>
      <trkpt lat="48.29542" lon="2.44505">
        <ele>96.7</ele>
        <time>2020-09-06T08:57:53Z</time>
      </trkpt>
      <trkpt lat="48.29539" lon="2.4451">
        <ele>96.2</ele>
        <time>2020-09-06T08:57:54Z</time>
      </trkpt>
      <trkpt lat="48.29538" lon="2.44514">
        <ele>95.9</ele>
        <time>2020-09-06T08:57:55Z</time>
      </trkpt>
      <trkpt lat="48.29538" lon="2.44519">
        <ele>95.6</ele>
        <time>2020-09-06T08:57:56Z</time>
      </trkpt>
      <trkpt lat="48.2954" lon="2.44524">
        <ele>95.2</ele>
        <time>2020-09-06T08:57:57Z</time>
      </trkpt>
      <trkpt lat="48.29541" lon="2.44529">
        <ele>94.9</ele>
        <time>2020-09-06T08:57:58Z</time>
      </trkpt>
      <trkpt lat="48.2954" lon="2.44535">
        <ele>94.5</ele>
        <time>2020-09-06T08:57:59Z</time>
      </trkpt>
      <trkpt lat="48.29539" lon="2.44542">
        <ele>94.2</ele>
        <time>2020-09-06T08:58:00Z</time>
      </trkpt>
      <trkpt lat="48.29539" lon="2.4455">
        <ele>94</ele>
        <time>2020-09-06T08:58:01Z</time>
      </trkpt>
      <trkpt lat="48.29539" lon="2.44556">
        <ele>93.9</ele>
        <time>2020-09-06T08:58:02Z</time>
      </trkpt>
      <trkpt lat="48.29539" lon="2.44563">
        <ele>94.1</ele>
        <time>2020-09-06T08:58:03Z</time>
      </trkpt>
      <trkpt lat="48.29538" lon="2.4457">
        <ele>94.2</ele>
        <time>2020-09-06T08:58:04Z</time>
      </trkpt>
      <trkpt lat="48.29539" lon="2.44575">
        <ele>94.5</ele>
        <time>2020-09-06T08:58:05Z</time>
      </trkpt>
      <trkpt lat="48.29539" lon="2.44583">
        <ele>94.8</ele>
        <time>2020-09-06T08:58:06Z</time>
      </trkpt>
      <trkpt lat="48.29538" lon="2.4459">
        <ele>95.1</ele>
        <time>2020-09-06T08:58:07Z</time>
      </trkpt>
      <trkpt lat="48.29537" lon="2.44597">
        <ele>95.5</ele>
        <time>2020-09-06T08:58:08Z</time>
      </trkpt>
      <trkpt lat="48.29537" lon="2.44604">
        <ele>95.8</ele>
        <time>2020-09-06T08:58:09Z</time>
      </trkpt>
      <trkpt lat="48.29536" lon="2.44612">
        <ele>96.1</ele>
        <time>2020-09-06T08:58:10Z</time>
      </trkpt>
      <trkpt lat="48.29536" lon="2.4462">
        <ele>96.5</ele>
        <time>2020-09-06T08:58:11Z</time>
      </trkpt>
      <trkpt lat="48.29536" lon="2.44627">
        <ele>96.9</ele>
        <time>2020-09-06T08:58:12Z</time>
      </trkpt>
      <trkpt lat="48.29536" lon="2.44634">
        <ele>97.2</ele>
        <time>2020-09-06T08:58:13Z</time>
      </trkpt>
      <trkpt lat="48.29536" lon="2.44642">
        <ele>97.7</ele>
        <time>2020-09-06T08:58:14Z</time>
      </trkpt>
      <trkpt lat="48.29536" lon="2.44648">
        <ele>98.1</ele>
        <time>2020-09-06T08:58:15Z</time>
      </trkpt>
      <trkpt lat="48.29537" lon="2.44654">
        <ele>98.3</ele>
        <time>2020-09-06T08:58:16Z</time>
      </trkpt>
      <trkpt lat="48.29537" lon="2.4466">
        <ele>98.7</ele>
        <time>2020-09-06T08:58:17Z</time>
      </trkpt>
      <trkpt lat="48.29539" lon="2.44666">
        <ele>98.9</ele>
        <time>2020-09-06T08:58:18Z</time>
      </trkpt>
      <trkpt lat="48.29539" lon="2.44673">
        <ele>99.1</ele>
        <time>2020-09-06T08:58:19Z</time>
      </trkpt>
      <trkpt lat="48.29539" lon="2.44679">
        <ele>99.5</ele>
        <time>2020-09-06T08:58:20Z</time>
      </trkpt>
      <trkpt lat="48.29539" lon="2.44685">
        <ele>99.7</ele>
        <time>2020-09-06T08:58:21Z</time>
      </trkpt>
      <trkpt lat="48.29537" lon="2.4469">
        <ele>99.9</ele>
        <time>2020-09-06T08:58:22Z</time>
      </trkpt>
      <trkpt lat="48.29534" lon="2.44693">
        <ele>100.1</ele>
        <time>2020-09-06T08:58:23Z</time>
      </trkpt>
      <trkpt lat="48.29532" lon="2.44697">
        <ele>100.3</ele>
        <time>2020-09-06T08:58:24Z</time>
      </trkpt>
      <trkpt lat="48.29529" lon="2.44699">
        <ele>100.5</ele>
        <time>2020-09-06T08:58:25Z</time>
      </trkpt>
      <trkpt lat="48.29526" lon="2.447">
        <ele>100.6</ele>
        <time>2020-09-06T08:58:26Z</time>
      </trkpt>
      <trkpt lat="48.29524" lon="2.44699">
        <ele>100.7</ele>
        <time>2020-09-06T08:58:27Z</time>
      </trkpt>
      <trkpt lat="48.29521" lon="2.447">
        <ele>100.8</ele>
        <time>2020-09-06T08:58:28Z</time>
      </trkpt>
      <trkpt lat="48.29519" lon="2.447">
        <ele>100.8</ele>
        <time>2020-09-06T08:58:29Z</time>
      </trkpt>
      <trkpt lat="48.29518" lon="2.447">
        <ele>101</ele>
        <time>2020-09-06T08:58:30Z</time>
      </trkpt>
      <trkpt lat="48.29514" lon="2.447">
        <ele>101.1</ele>
        <time>2020-09-06T08:58:31Z</time>
      </trkpt>
      <trkpt lat="48.29511" lon="2.447">
        <ele>101.3</ele>
        <time>2020-09-06T08:58:32Z</time>
      </trkpt>
      <trkpt lat="48.29508" lon="2.44699">
        <ele>101.4</ele>
        <time>2020-09-06T08:58:33Z</time>
      </trkpt>
      <trkpt lat="48.29504" lon="2.44699">
        <ele>101.9</ele>
        <time>2020-09-06T08:58:34Z</time>
      </trkpt>
      <trkpt lat="48.29502" lon="2.44699">
        <ele>102.1</ele>
        <time>2020-09-06T08:58:35Z</time>
      </trkpt>
      <trkpt lat="48.295" lon="2.44702">
        <ele>102.4</ele>
        <time>2020-09-06T08:58:36Z</time>
      </trkpt>
      <trkpt lat="48.29499" lon="2.44702">
        <ele>102.5</ele>
        <time>2020-09-06T08:58:37Z</time>
      </trkpt>
      <trkpt lat="48.29496" lon="2.44703">
        <ele>102.8</ele>
        <time>2020-09-06T08:58:38Z</time>
      </trkpt>
      <trkpt lat="48.29495" lon="2.44703">
        <ele>103.2</ele>
        <time>2020-09-06T08:58:39Z</time>
      </trkpt>
      <trkpt lat="48.29494" lon="2.44699">
        <ele>103.2</ele>
        <time>2020-09-06T08:58:40Z</time>
      </trkpt>
      <trkpt lat="48.29494" lon="2.44697">
        <ele>103.1</ele>
        <time>2020-09-06T08:58:41Z</time>
      </trkpt>
      <trkpt lat="48.29493" lon="2.44692">
        <ele>103.4</ele>
        <time>2020-09-06T08:58:42Z</time>
      </trkpt>
      <trkpt lat="48.29492" lon="2.4469">
        <ele>103.3</ele>
        <time>2020-09-06T08:58:43Z</time>
      </trkpt>
      <trkpt lat="48.29491" lon="2.44686">
        <ele>103.2</ele>
        <time>2020-09-06T08:58:44Z</time>
      </trkpt>
      <trkpt lat="48.29489" lon="2.44686">
        <ele>103.6</ele>
        <time>2020-09-06T08:58:45Z</time>
      </trkpt>
      <trkpt lat="48.29487" lon="2.44685">
        <ele>103.6</ele>
        <time>2020-09-06T08:58:46Z</time>
      </trkpt>
      <trkpt lat="48.29485" lon="2.44689">
        <ele>104</ele>
        <time>2020-09-06T08:58:47Z</time>
      </trkpt>
      <trkpt lat="48.29483" lon="2.44692">
        <ele>104.5</ele>
        <time>2020-09-06T08:58:48Z</time>
      </trkpt>
      <trkpt lat="48.29482" lon="2.44694">
        <ele>104.5</ele>
        <time>2020-09-06T08:58:49Z</time>
      </trkpt>
      <trkpt lat="48.29481" lon="2.44697">
        <ele>105.1</ele>
        <time>2020-09-06T08:58:50Z</time>
      </trkpt>
      <trkpt lat="48.2948" lon="2.44698">
        <ele>105.1</ele>
        <time>2020-09-06T08:58:51Z</time>
      </trkpt>
      <trkpt lat="48.29478" lon="2.44702">
        <ele>105.7</ele>
        <time>2020-09-06T08:58:52Z</time>
      </trkpt>
      <trkpt lat="48.29477" lon="2.44703">
        <ele>105.8</ele>
        <time>2020-09-06T08:58:53Z</time>
      </trkpt>
      <trkpt lat="48.29475" lon="2.44706">
        <ele>106.5</ele>
        <time>2020-09-06T08:58:54Z</time>
      </trkpt>
      <trkpt lat="48.29473" lon="2.44709">
        <ele>106.8</ele>
        <time>2020-09-06T08:58:55Z</time>
      </trkpt>
      <trkpt lat="48.29471" lon="2.44713">
        <ele>107.5</ele>
        <time>2020-09-06T08:58:56Z</time>
      </trkpt>
      <trkpt lat="48.29468" lon="2.44717">
        <ele>108.3</ele>
        <time>2020-09-06T08:58:57Z</time>
      </trkpt>
      <trkpt lat="48.29467" lon="2.44718">
        <ele>108.7</ele>
        <time>2020-09-06T08:58:58Z</time>
      </trkpt>
      <trkpt lat="48.29465" lon="2.44721">
        <ele>109</ele>
        <time>2020-09-06T08:58:59Z</time>
      </trkpt>
      <trkpt lat="48.29462" lon="2.44723">
        <ele>109.4</ele>
        <time>2020-09-06T08:59:00Z</time>
      </trkpt>
      <trkpt lat="48.29461" lon="2.44724">
        <ele>109.7</ele>
        <time>2020-09-06T08:59:01Z</time>
      </trkpt>
      <trkpt lat="48.29458" lon="2.44725">
        <ele>110.2</ele>
        <time>2020-09-06T08:59:02Z</time>
      </trkpt>
      <trkpt lat="48.29457" lon="2.44726">
        <ele>110.3</ele>
        <time>2020-09-06T08:59:03Z</time>
      </trkpt>
      <trkpt lat="48.29456" lon="2.44725">
        <ele>110.6</ele>
        <time>2020-09-06T08:59:04Z</time>
      </trkpt>
      <trkpt lat="48.29455" lon="2.44723">
        <ele>110.4</ele>
        <time>2020-09-06T08:59:05Z</time>
      </trkpt>
      <trkpt lat="48.29453" lon="2.44722">
        <ele>110.5</ele>
        <time>2020-09-06T08:59:06Z</time>
      </trkpt>
      <trkpt lat="48.29452" lon="2.44721">
        <ele>110.8</ele>
        <time>2020-09-06T08:59:07Z</time>
      </trkpt>
      <trkpt lat="48.29451" lon="2.44716">
        <ele>110.6</ele>
        <time>2020-09-06T08:59:08Z</time>
      </trkpt>
      <trkpt lat="48.2945" lon="2.44715">
        <ele>110.4</ele>
        <time>2020-09-06T08:59:09Z</time>
      </trkpt>
      <trkpt lat="48.29449" lon="2.44713">
        <ele>110.8</ele>
        <time>2020-09-06T08:59:10Z</time>
      </trkpt>
      <trkpt lat="48.29448" lon="2.44712">
        <ele>110.5</ele>
        <time>2020-09-06T08:59:11Z</time>
      </trkpt>
      <trkpt lat="48.29447" lon="2.4471">
        <ele>110.9</ele>
        <time>2020-09-06T08:59:12Z</time>
      </trkpt>
      <trkpt lat="48.29447" lon="2.44707">
        <ele>110.3</ele>
        <time>2020-09-06T08:59:13Z</time>
      </trkpt>
      <trkpt lat="48.29449" lon="2.44702">
        <ele>110.1</ele>
        <time>2020-09-06T08:59:14Z</time>
      </trkpt>
      <trkpt lat="48.2945" lon="2.447">
        <ele>110.1</ele>
        <time>2020-09-06T08:59:15Z</time>
      </trkpt>
      <trkpt lat="48.29453" lon="2.44699">
        <ele>109.5</ele>
        <time>2020-09-06T08:59:16Z</time>
      </trkpt>
      <trkpt lat="48.29454" lon="2.44699">
        <ele>109.2</ele>
        <time>2020-09-06T08:59:17Z</time>
      </trkpt>
      <trkpt lat="48.29458" lon="2.44697">
        <ele>108.9</ele>
        <time>2020-09-06T08:59:18Z</time>
      </trkpt>
      <trkpt lat="48.29462" lon="2.44696">
        <ele>108.5</ele>
        <time>2020-09-06T08:59:19Z</time>
      </trkpt>
      <trkpt lat="48.29465" lon="2.44693">
        <ele>108</ele>
        <time>2020-09-06T08:59:20Z</time>
      </trkpt>
      <trkpt lat="48.29466" lon="2.44688">
        <ele>107.6</ele>
        <time>2020-09-06T08:59:21Z</time>
      </trkpt>
      <trkpt lat="48.29467" lon="2.44681">
        <ele>107.1</ele>
        <time>2020-09-06T08:59:22Z</time>
      </trkpt>
      <trkpt lat="48.29469" lon="2.44675">
        <ele>106.7</ele>
        <time>2020-09-06T08:59:23Z</time>
      </trkpt>
      <trkpt lat="48.29471" lon="2.44669">
        <ele>106.3</ele>
        <time>2020-09-06T08:59:24Z</time>
      </trkpt>
      <trkpt lat="48.29475" lon="2.44662">
        <ele>105.7</ele>
        <time>2020-09-06T08:59:25Z</time>
      </trkpt>
      <trkpt lat="48.29478" lon="2.44654">
        <ele>105.1</ele>
        <time>2020-09-06T08:59:26Z</time>
      </trkpt>
      <trkpt lat="48.29479" lon="2.44644">
        <ele>104.5</ele>
        <time>2020-09-06T08:59:27Z</time>
      </trkpt>
      <trkpt lat="48.29479" lon="2.44635">
        <ele>103.8</ele>
        <time>2020-09-06T08:59:28Z</time>
      </trkpt>
      <trkpt lat="48.2948" lon="2.44626">
        <ele>103.1</ele>
        <time>2020-09-06T08:59:29Z</time>
      </trkpt>
      <trkpt lat="48.29481" lon="2.44618">
        <ele>102.5</ele>
        <time>2020-09-06T08:59:30Z</time>
      </trkpt>
      <trkpt lat="48.29482" lon="2.4461">
        <ele>101.8</ele>
        <time>2020-09-06T08:59:31Z</time>
      </trkpt>
      <trkpt lat="48.29484" lon="2.44605">
        <ele>101.2</ele>
        <time>2020-09-06T08:59:32Z</time>
      </trkpt>
      <trkpt lat="48.29486" lon="2.44601">
        <ele>100.8</ele>
        <time>2020-09-06T08:59:33Z</time>
      </trkpt>
      <trkpt lat="48.29487" lon="2.44601">
        <ele>100.7</ele>
        <time>2020-09-06T08:59:34Z</time>
      </trkpt>
      <trkpt lat="48.29491" lon="2.44601">
        <ele>100.2</ele>
        <time>2020-09-06T08:59:35Z</time>
      </trkpt>
      <trkpt lat="48.29496" lon="2.44598">
        <ele>99.5</ele>
        <time>2020-09-06T08:59:36Z</time>
      </trkpt>
      <trkpt lat="48.29499" lon="2.44593">
        <ele>98.9</ele>
        <time>2020-09-06T08:59:37Z</time>
      </trkpt>
      <trkpt lat="48.29502" lon="2.44589">
        <ele>98.5</ele>
        <time>2020-09-06T08:59:38Z</time>
      </trkpt>
      <trkpt lat="48.29504" lon="2.44585">
        <ele>98.1</ele>
        <time>2020-09-06T08:59:39Z</time>
      </trkpt>
      <trkpt lat="48.29507" lon="2.44579">
        <ele>97.6</ele>
        <time>2020-09-06T08:59:40Z</time>
      </trkpt>
      <trkpt lat="48.2951" lon="2.44571">
        <ele>97</ele>
        <time>2020-09-06T08:59:41Z</time>
      </trkpt>
      <trkpt lat="48.2951" lon="2.44563">
        <ele>96.6</ele>
        <time>2020-09-06T08:59:42Z</time>
      </trkpt>
      <trkpt lat="48.2951" lon="2.44557">
        <ele>96.3</ele>
        <time>2020-09-06T08:59:43Z</time>
      </trkpt>
      <trkpt lat="48.2951" lon="2.44552">
        <ele>96</ele>
        <time>2020-09-06T08:59:44Z</time>
      </trkpt>
      <trkpt lat="48.29509" lon="2.4455">
        <ele>95.9</ele>
        <time>2020-09-06T08:59:45Z</time>
      </trkpt>
      <trkpt lat="48.2951" lon="2.44549">
        <ele>95.8</ele>
        <time>2020-09-06T08:59:46Z</time>
      </trkpt>
      <trkpt lat="48.29511" lon="2.4455">
        <ele>95.8</ele>
        <time>2020-09-06T08:59:47Z</time>
      </trkpt>
      <trkpt lat="48.29512" lon="2.44553">
        <ele>95.6</ele>
        <time>2020-09-06T08:59:48Z</time>
      </trkpt>
      <trkpt lat="48.29515" lon="2.44557">
        <ele>95.3</ele>
        <time>2020-09-06T08:59:49Z</time>
      </trkpt>
      <trkpt lat="48.29518" lon="2.44558">
        <ele>95.1</ele>
        <time>2020-09-06T08:59:50Z</time>
      </trkpt>
      <trkpt lat="48.29522" lon="2.44557">
        <ele>94.9</ele>
        <time>2020-09-06T08:59:51Z</time>
      </trkpt>
      <trkpt lat="48.29526" lon="2.44558">
        <ele>94.7</ele>
        <time>2020-09-06T08:59:52Z</time>
      </trkpt>
      <trkpt lat="48.29531" lon="2.44556">
        <ele>94.4</ele>
        <time>2020-09-06T08:59:53Z</time>
      </trkpt>
      <trkpt lat="48.29534" lon="2.44551">
        <ele>94.2</ele>
        <time>2020-09-06T08:59:54Z</time>
      </trkpt>
      <trkpt lat="48.29537" lon="2.44545">
        <ele>93.4</ele>
        <time>2020-09-06T08:59:55Z</time>
      </trkpt>
      <trkpt lat="48.29539" lon="2.44539">
        <ele>92.6</ele>
        <time>2020-09-06T08:59:56Z</time>
      </trkpt>
      <trkpt lat="48.2954" lon="2.44533">
        <ele>91.9</ele>
        <time>2020-09-06T08:59:57Z</time>
      </trkpt>
      <trkpt lat="48.29541" lon="2.44528">
        <ele>91.2</ele>
        <time>2020-09-06T08:59:58Z</time>
      </trkpt>
      <trkpt lat="48.29543" lon="2.44521">
        <ele>90.4</ele>
        <time>2020-09-06T08:59:59Z</time>
      </trkpt>
      <trkpt lat="48.29544" lon="2.44513">
        <ele>89.2</ele>
        <time>2020-09-06T09:00:00Z</time>
      </trkpt>
      <trkpt lat="48.29546" lon="2.44504">
        <ele>89.2</ele>
        <time>2020-09-06T09:00:01Z</time>
      </trkpt>
      <trkpt lat="48.29547" lon="2.44495">
        <ele>89.3</ele>
        <time>2020-09-06T09:00:02Z</time>
      </trkpt>
      <trkpt lat="48.29548" lon="2.44487">
        <ele>89.3</ele>
        <time>2020-09-06T09:00:03Z</time>
      </trkpt>
      <trkpt lat="48.29548" lon="2.44479">
        <ele>89.3</ele>
        <time>2020-09-06T09:00:04Z</time>
      </trkpt>
      <trkpt lat="48.29548" lon="2.44473">
        <ele>89.3</ele>
        <time>2020-09-06T09:00:05Z</time>
      </trkpt>
      <trkpt lat="48.29547" lon="2.44469">
        <ele>89.3</ele>
        <time>2020-09-06T09:00:06Z</time>
      </trkpt>
      <trkpt lat="48.29546" lon="2.44465">
        <ele>89.3</ele>
        <time>2020-09-06T09:00:07Z</time>
      </trkpt>
      <trkpt lat="48.29545" lon="2.4446">
        <ele>89.3</ele>
        <time>2020-09-06T09:00:08Z</time>
      </trkpt>
      <trkpt lat="48.29545" lon="2.44459">
        <ele>89.3</ele>
        <time>2020-09-06T09:00:09Z</time>
      </trkpt>
      <trkpt lat="48.29544" lon="2.44454">
        <ele>89.3</ele>
        <time>2020-09-06T09:00:10Z</time>
      </trkpt>
      <trkpt lat="48.29544" lon="2.44452">
        <ele>89.3</ele>
        <time>2020-09-06T09:00:11Z</time>
      </trkpt>
      <trkpt lat="48.29542" lon="2.44452">
        <ele>89.3</ele>
        <time>2020-09-06T09:00:12Z</time>
      </trkpt>
      <trkpt lat="48.29541" lon="2.44453">
        <ele>89.3</ele>
        <time>2020-09-06T09:00:13Z</time>
      </trkpt>
      <trkpt lat="48.2954" lon="2.44454">
        <ele>89.3</ele>
        <time>2020-09-06T09:00:14Z</time>
      </trkpt>
      <trkpt lat="48.29537" lon="2.44456">
        <ele>89.3</ele>
        <time>2020-09-06T09:00:15Z</time>
      </trkpt>
      <trkpt lat="48.29536" lon="2.44456">
        <ele>89.3</ele>
        <time>2020-09-06T09:00:16Z</time>
      </trkpt>
      <trkpt lat="48.29533" lon="2.44459">
        <ele>89.3</ele>
        <time>2020-09-06T09:00:17Z</time>
      </trkpt>
      <trkpt lat="48.29532" lon="2.4446">
        <ele>89.3</ele>
        <time>2020-09-06T09:00:18Z</time>
      </trkpt>
      <trkpt lat="48.29531" lon="2.44463">
        <ele>89.3</ele>
        <time>2020-09-06T09:00:19Z</time>
      </trkpt>
      <trkpt lat="48.2953" lon="2.44463">
        <ele>89.3</ele>
        <time>2020-09-06T09:00:20Z</time>
      </trkpt>
      <trkpt lat="48.29528" lon="2.44467">
        <ele>89.3</ele>
        <time>2020-09-06T09:00:21Z</time>
      </trkpt>
      <trkpt lat="48.29528" lon="2.44469">
        <ele>89.3</ele>
        <time>2020-09-06T09:00:22Z</time>
      </trkpt>
      <trkpt lat="48.29528" lon="2.4447">
        <ele>89.3</ele>
        <time>2020-09-06T09:00:23Z</time>
      </trkpt>
      <trkpt lat="48.29527" lon="2.44473">
        <ele>89.3</ele>
        <time>2020-09-06T09:00:24Z</time>
      </trkpt>
      <trkpt lat="48.29524" lon="2.44473">
        <ele>89.3</ele>
        <time>2020-09-06T09:00:25Z</time>
      </trkpt>
      <trkpt lat="48.29523" lon="2.44473">
        <ele>89.3</ele>
        <time>2020-09-06T09:00:26Z</time>
      </trkpt>
      <trkpt lat="48.29519" lon="2.44474">
        <ele>89.3</ele>
        <time>2020-09-06T09:00:27Z</time>
      </trkpt>
      <trkpt lat="48.29519" lon="2.44475">
        <ele>89.3</ele>
        <time>2020-09-06T09:00:28Z</time>
      </trkpt>
      <trkpt lat="48.29517" lon="2.44478">
        <ele>89.3</ele>
        <time>2020-09-06T09:00:29Z</time>
      </trkpt>
      <trkpt lat="48.29516" lon="2.44478">
        <ele>89.3</ele>
        <time>2020-09-06T09:00:30Z</time>
      </trkpt>
      <trkpt lat="48.29514" lon="2.44474">
        <ele>89.3</ele>
        <time>2020-09-06T09:00:31Z</time>
      </trkpt>
      <trkpt lat="48.29514" lon="2.44473">
        <ele>89.3</ele>
        <time>2020-09-06T09:00:32Z</time>
      </trkpt>
      <trkpt lat="48.29514" lon="2.44469">
        <ele>89.2</ele>
        <time>2020-09-06T09:00:33Z</time>
      </trkpt>
      <trkpt lat="48.29514" lon="2.44467">
        <ele>89.2</ele>
        <time>2020-09-06T09:00:34Z</time>
      </trkpt>
      <trkpt lat="48.29514" lon="2.44462">
        <ele>89.2</ele>
        <time>2020-09-06T09:00:35Z</time>
      </trkpt>
      <trkpt lat="48.29514" lon="2.4446">
        <ele>89.2</ele>
        <time>2020-09-06T09:00:36Z</time>
      </trkpt>
      <trkpt lat="48.29514" lon="2.44454">
        <ele>89.2</ele>
        <time>2020-09-06T09:00:37Z</time>
      </trkpt>
      <trkpt lat="48.29514" lon="2.44452">
        <ele>89.2</ele>
        <time>2020-09-06T09:00:38Z</time>
      </trkpt>
      <trkpt lat="48.29514" lon="2.44445">
        <ele>89.2</ele>
        <time>2020-09-06T09:00:39Z</time>
      </trkpt>
      <trkpt lat="48.29514" lon="2.44439">
        <ele>89.2</ele>
        <time>2020-09-06T09:00:40Z</time>
      </trkpt>
      <trkpt lat="48.29515" lon="2.44432">
        <ele>89.2</ele>
        <time>2020-09-06T09:00:41Z</time>
      </trkpt>
      <trkpt lat="48.29515" lon="2.44427">
        <ele>89.2</ele>
        <time>2020-09-06T09:00:42Z</time>
      </trkpt>
      <trkpt lat="48.29516" lon="2.44423">
        <ele>89.2</ele>
        <time>2020-09-06T09:00:43Z</time>
      </trkpt>
      <trkpt lat="48.29517" lon="2.44417">
        <ele>89.2</ele>
        <time>2020-09-06T09:00:44Z</time>
      </trkpt>
      <trkpt lat="48.29517" lon="2.44411">
        <ele>89.2</ele>
        <time>2020-09-06T09:00:45Z</time>
      </trkpt>
      <trkpt lat="48.29516" lon="2.44405">
        <ele>89.2</ele>
        <time>2020-09-06T09:00:46Z</time>
      </trkpt>
      <trkpt lat="48.29517" lon="2.44399">
        <ele>89.2</ele>
        <time>2020-09-06T09:00:47Z</time>
      </trkpt>
      <trkpt lat="48.29517" lon="2.44393">
        <ele>89.2</ele>
        <time>2020-09-06T09:00:48Z</time>
      </trkpt>
      <trkpt lat="48.29516" lon="2.44387">
        <ele>89.2</ele>
        <time>2020-09-06T09:00:49Z</time>
      </trkpt>
      <trkpt lat="48.29516" lon="2.44383">
        <ele>89.3</ele>
        <time>2020-09-06T09:00:50Z</time>
      </trkpt>
      <trkpt lat="48.29516" lon="2.44378">
        <ele>89.4</ele>
        <time>2020-09-06T09:00:51Z</time>
      </trkpt>
      <trkpt lat="48.29516" lon="2.44373">
        <ele>89.4</ele>
        <time>2020-09-06T09:00:52Z</time>
      </trkpt>
      <trkpt lat="48.29516" lon="2.44368">
        <ele>89.4</ele>
        <time>2020-09-06T09:00:53Z</time>
      </trkpt>
      <trkpt lat="48.29516" lon="2.44361">
        <ele>89.4</ele>
        <time>2020-09-06T09:00:54Z</time>
      </trkpt>
      <trkpt lat="48.29518" lon="2.44355">
        <ele>89.3</ele>
        <time>2020-09-06T09:00:55Z</time>
      </trkpt>
      <trkpt lat="48.2952" lon="2.44349">
        <ele>89.3</ele>
        <time>2020-09-06T09:00:56Z</time>
      </trkpt>
      <trkpt lat="48.29521" lon="2.44342">
        <ele>89.2</ele>
        <time>2020-09-06T09:00:57Z</time>
      </trkpt>
      <trkpt lat="48.29522" lon="2.44335">
        <ele>89.1</ele>
        <time>2020-09-06T09:00:58Z</time>
      </trkpt>
      <trkpt lat="48.29521" lon="2.44328">
        <ele>89</ele>
        <time>2020-09-06T09:00:59Z</time>
      </trkpt>
      <trkpt lat="48.29519" lon="2.44321">
        <ele>88.9</ele>
        <time>2020-09-06T09:01:00Z</time>
      </trkpt>
      <trkpt lat="48.29518" lon="2.44314">
        <ele>88.7</ele>
        <time>2020-09-06T09:01:01Z</time>
      </trkpt>
      <trkpt lat="48.29515" lon="2.44308">
        <ele>88.5</ele>
        <time>2020-09-06T09:01:02Z</time>
      </trkpt>
      <trkpt lat="48.29513" lon="2.443">
        <ele>88.3</ele>
        <time>2020-09-06T09:01:03Z</time>
      </trkpt>
      <trkpt lat="48.2951" lon="2.44295">
        <ele>88.1</ele>
        <time>2020-09-06T09:01:04Z</time>
      </trkpt>
      <trkpt lat="48.29509" lon="2.44291">
        <ele>88</ele>
        <time>2020-09-06T09:01:05Z</time>
      </trkpt>
      <trkpt lat="48.29506" lon="2.44288">
        <ele>87.9</ele>
        <time>2020-09-06T09:01:06Z</time>
      </trkpt>
      <trkpt lat="48.29502" lon="2.44285">
        <ele>87.7</ele>
        <time>2020-09-06T09:01:07Z</time>
      </trkpt>
      <trkpt lat="48.29501" lon="2.44284">
        <ele>87.7</ele>
        <time>2020-09-06T09:01:08Z</time>
      </trkpt>
      <trkpt lat="48.29499" lon="2.4428">
        <ele>87.5</ele>
        <time>2020-09-06T09:01:09Z</time>
      </trkpt>
      <trkpt lat="48.29496" lon="2.44275">
        <ele>87.4</ele>
        <time>2020-09-06T09:01:10Z</time>
      </trkpt>
      <trkpt lat="48.29495" lon="2.4427">
        <ele>87.2</ele>
        <time>2020-09-06T09:01:11Z</time>
      </trkpt>
      <trkpt lat="48.29493" lon="2.44262">
        <ele>86.9</ele>
        <time>2020-09-06T09:01:12Z</time>
      </trkpt>
      <trkpt lat="48.29493" lon="2.44257">
        <ele>86.7</ele>
        <time>2020-09-06T09:01:13Z</time>
      </trkpt>
      <trkpt lat="48.29493" lon="2.44252">
        <ele>86.5</ele>
        <time>2020-09-06T09:01:14Z</time>
      </trkpt>
      <trkpt lat="48.29493" lon="2.44245">
        <ele>86.3</ele>
        <time>2020-09-06T09:01:15Z</time>
      </trkpt>
      <trkpt lat="48.29492" lon="2.44238">
        <ele>86.1</ele>
        <time>2020-09-06T09:01:16Z</time>
      </trkpt>
      <trkpt lat="48.29492" lon="2.44232">
        <ele>85.9</ele>
        <time>2020-09-06T09:01:17Z</time>
      </trkpt>
      <trkpt lat="48.29492" lon="2.44226">
        <ele>85.7</ele>
        <time>2020-09-06T09:01:18Z</time>
      </trkpt>
      <trkpt lat="48.29492" lon="2.44219">
        <ele>85.5</ele>
        <time>2020-09-06T09:01:19Z</time>
      </trkpt>
      <trkpt lat="48.29492" lon="2.44212">
        <ele>85.3</ele>
        <time>2020-09-06T09:01:20Z</time>
      </trkpt>
      <trkpt lat="48.29492" lon="2.44206">
        <ele>85.2</ele>
        <time>2020-09-06T09:01:21Z</time>
      </trkpt>
      <trkpt lat="48.29492" lon="2.44201">
        <ele>85.1</ele>
        <time>2020-09-06T09:01:22Z</time>
      </trkpt>
      <trkpt lat="48.29491" lon="2.44196">
        <ele>85</ele>
        <time>2020-09-06T09:01:23Z</time>
      </trkpt>
      <trkpt lat="48.29491" lon="2.44194">
        <ele>85</ele>
        <time>2020-09-06T09:01:24Z</time>
      </trkpt>
      <trkpt lat="48.2949" lon="2.44194">
        <ele>85</ele>
        <time>2020-09-06T09:01:25Z</time>
      </trkpt>
      <trkpt lat="48.2949" lon="2.44195">
        <ele>84.9</ele>
        <time>2020-09-06T09:01:26Z</time>
      </trkpt>
      <trkpt lat="48.29489" lon="2.44196">
        <ele>84.9</ele>
        <time>2020-09-06T09:01:27Z</time>
      </trkpt>
      <trkpt lat="48.29488" lon="2.44197">
        <ele>84.9</ele>
        <time>2020-09-06T09:01:28Z</time>
      </trkpt>
      <trkpt lat="48.29488" lon="2.44198">
        <ele>84.9</ele>
        <time>2020-09-06T09:01:29Z</time>
      </trkpt>
      <trkpt lat="48.29488" lon="2.44201">
        <ele>84.9</ele>
        <time>2020-09-06T09:01:30Z</time>
      </trkpt>
      <trkpt lat="48.29487" lon="2.44203">
        <ele>84.8</ele>
        <time>2020-09-06T09:01:31Z</time>
      </trkpt>
      <trkpt lat="48.29483" lon="2.44201">
        <ele>84.9</ele>
        <time>2020-09-06T09:01:32Z</time>
      </trkpt>
      <trkpt lat="48.29482" lon="2.44199">
        <ele>84.9</ele>
        <time>2020-09-06T09:01:33Z</time>
      </trkpt>
      <trkpt lat="48.29479" lon="2.44197">
        <ele>85</ele>
        <time>2020-09-06T09:01:34Z</time>
      </trkpt>
      <trkpt lat="48.29476" lon="2.44196">
        <ele>85.1</ele>
        <time>2020-09-06T09:01:35Z</time>
      </trkpt>
      <trkpt lat="48.29475" lon="2.44196">
        <ele>85.3</ele>
        <time>2020-09-06T09:01:36Z</time>
      </trkpt>
      <trkpt lat="48.29473" lon="2.44199">
        <ele>85.5</ele>
        <time>2020-09-06T09:01:37Z</time>
      </trkpt>
      <trkpt lat="48.29472" lon="2.44202">
        <ele>85.5</ele>
        <time>2020-09-06T09:01:38Z</time>
      </trkpt>
      <trkpt lat="48.29472" lon="2.44204">
        <ele>85.5</ele>
        <time>2020-09-06T09:01:39Z</time>
      </trkpt>
      <trkpt lat="48.29471" lon="2.44208">
        <ele>85.5</ele>
        <time>2020-09-06T09:01:40Z</time>
      </trkpt>
      <trkpt lat="48.2947" lon="2.44213">
        <ele>85.6</ele>
        <time>2020-09-06T09:01:41Z</time>
      </trkpt>
      <trkpt lat="48.29469" lon="2.44217">
        <ele>86</ele>
        <time>2020-09-06T09:01:42Z</time>
      </trkpt>
      <trkpt lat="48.29469" lon="2.44222">
        <ele>86.1</ele>
        <time>2020-09-06T09:01:43Z</time>
      </trkpt>
      <trkpt lat="48.29467" lon="2.44226">
        <ele>86.2</ele>
        <time>2020-09-06T09:01:44Z</time>
      </trkpt>
      <trkpt lat="48.29466" lon="2.4423">
        <ele>86.7</ele>
        <time>2020-09-06T09:01:45Z</time>
      </trkpt>
      <trkpt lat="48.29465" lon="2.44234">
        <ele>86.8</ele>
        <time>2020-09-06T09:01:46Z</time>
      </trkpt>
      <trkpt lat="48.29465" lon="2.44238">
        <ele>86.8</ele>
        <time>2020-09-06T09:01:47Z</time>
      </trkpt>
      <trkpt lat="48.29466" lon="2.44242">
        <ele>86.8</ele>
        <time>2020-09-06T09:01:48Z</time>
      </trkpt>
      <trkpt lat="48.29467" lon="2.44248">
        <ele>86.4</ele>
        <time>2020-09-06T09:01:49Z</time>
      </trkpt>
      <trkpt lat="48.29469" lon="2.44254">
        <ele>86.4</ele>
        <time>2020-09-06T09:01:50Z</time>
      </trkpt>
      <trkpt lat="48.29471" lon="2.44261">
        <ele>86</ele>
        <time>2020-09-06T09:01:51Z</time>
      </trkpt>
      <trkpt lat="48.29472" lon="2.44268">
        <ele>86</ele>
        <time>2020-09-06T09:01:52Z</time>
      </trkpt>
      <trkpt lat="48.29474" lon="2.44274">
        <ele>85.7</ele>
        <time>2020-09-06T09:01:53Z</time>
      </trkpt>
      <trkpt lat="48.29475" lon="2.4428">
        <ele>85.8</ele>
        <time>2020-09-06T09:01:54Z</time>
      </trkpt>
      <trkpt lat="48.29476" lon="2.44285">
        <ele>85.6</ele>
        <time>2020-09-06T09:01:55Z</time>
      </trkpt>
      <trkpt lat="48.29477" lon="2.44291">
        <ele>85.7</ele>
        <time>2020-09-06T09:01:56Z</time>
      </trkpt>
      <trkpt lat="48.29478" lon="2.44296">
        <ele>86</ele>
        <time>2020-09-06T09:01:57Z</time>
      </trkpt>
      <trkpt lat="48.29478" lon="2.443">
        <ele>86.2</ele>
        <time>2020-09-06T09:01:58Z</time>
      </trkpt>
      <trkpt lat="48.29479" lon="2.44305">
        <ele>86.5</ele>
        <time>2020-09-06T09:01:59Z</time>
      </trkpt>
      <trkpt lat="48.29478" lon="2.44306">
        <ele>86.5</ele>
        <time>2020-09-06T09:02:00Z</time>
      </trkpt>
      <trkpt lat="48.29475" lon="2.44307">
        <ele>86.9</ele>
        <time>2020-09-06T09:02:01Z</time>
      </trkpt>
      <trkpt lat="48.29474" lon="2.44307">
        <ele>86.9</ele>
        <time>2020-09-06T09:02:02Z</time>
      </trkpt>
      <trkpt lat="48.29471" lon="2.44306">
        <ele>87.4</ele>
        <time>2020-09-06T09:02:03Z</time>
      </trkpt>
      <trkpt lat="48.29468" lon="2.44306">
        <ele>87.9</ele>
        <time>2020-09-06T09:02:04Z</time>
      </trkpt>
      <trkpt lat="48.29464" lon="2.44307">
        <ele>88.8</ele>
        <time>2020-09-06T09:02:05Z</time>
      </trkpt>
      <trkpt lat="48.29461" lon="2.44307">
        <ele>89.3</ele>
        <time>2020-09-06T09:02:06Z</time>
      </trkpt>
      <trkpt lat="48.29458" lon="2.44309">
        <ele>90</ele>
        <time>2020-09-06T09:02:07Z</time>
      </trkpt>
      <trkpt lat="48.29455" lon="2.44312">
        <ele>90.4</ele>
        <time>2020-09-06T09:02:08Z</time>
      </trkpt>
      <trkpt lat="48.29454" lon="2.44313">
        <ele>90.7</ele>
        <time>2020-09-06T09:02:09Z</time>
      </trkpt>
      <trkpt lat="48.29453" lon="2.44315">
        <ele>91.1</ele>
        <time>2020-09-06T09:02:10Z</time>
      </trkpt>
      <trkpt lat="48.2945" lon="2.44318">
        <ele>91.8</ele>
        <time>2020-09-06T09:02:11Z</time>
      </trkpt>
      <trkpt lat="48.29449" lon="2.44319">
        <ele>91.8</ele>
        <time>2020-09-06T09:02:12Z</time>
      </trkpt>
      <trkpt lat="48.29447" lon="2.44322">
        <ele>92.4</ele>
        <time>2020-09-06T09:02:13Z</time>
      </trkpt>
      <trkpt lat="48.29446" lon="2.44326">
        <ele>92.6</ele>
        <time>2020-09-06T09:02:14Z</time>
      </trkpt>
      <trkpt lat="48.29444" lon="2.4433">
        <ele>93.3</ele>
        <time>2020-09-06T09:02:15Z</time>
      </trkpt>
      <trkpt lat="48.29443" lon="2.44335">
        <ele>93.5</ele>
        <time>2020-09-06T09:02:16Z</time>
      </trkpt>
      <trkpt lat="48.29442" lon="2.44336">
        <ele>93.5</ele>
        <time>2020-09-06T09:02:17Z</time>
      </trkpt>
      <trkpt lat="48.2944" lon="2.44341">
        <ele>94.2</ele>
        <time>2020-09-06T09:02:18Z</time>
      </trkpt>
      <trkpt lat="48.29439" lon="2.44342">
        <ele>94.2</ele>
        <time>2020-09-06T09:02:19Z</time>
      </trkpt>
      <trkpt lat="48.29438" lon="2.44347">
        <ele>95</ele>
        <time>2020-09-06T09:02:20Z</time>
      </trkpt>
      <trkpt lat="48.29438" lon="2.44348">
        <ele>95.3</ele>
        <time>2020-09-06T09:02:21Z</time>
      </trkpt>
      <trkpt lat="48.29437" lon="2.44353">
        <ele>95.6</ele>
        <time>2020-09-06T09:02:22Z</time>
      </trkpt>
      <trkpt lat="48.29436" lon="2.44355">
        <ele>95.6</ele>
        <time>2020-09-06T09:02:23Z</time>
      </trkpt>
      <trkpt lat="48.29435" lon="2.44359">
        <ele>96.4</ele>
        <time>2020-09-06T09:02:24Z</time>
      </trkpt>
      <trkpt lat="48.29433" lon="2.44363">
        <ele>97.2</ele>
        <time>2020-09-06T09:02:25Z</time>
      </trkpt>
      <trkpt lat="48.29432" lon="2.44364">
        <ele>97.5</ele>
        <time>2020-09-06T09:02:26Z</time>
      </trkpt>
      <trkpt lat="48.2943" lon="2.44367">
        <ele>98</ele>
        <time>2020-09-06T09:02:27Z</time>
      </trkpt>
      <trkpt lat="48.29429" lon="2.44368">
        <ele>98</ele>
        <time>2020-09-06T09:02:28Z</time>
      </trkpt>
      <trkpt lat="48.29427" lon="2.44369">
        <ele>98.5</ele>
        <time>2020-09-06T09:02:29Z</time>
      </trkpt>
      <trkpt lat="48.29426" lon="2.4437">
        <ele>98.7</ele>
        <time>2020-09-06T09:02:30Z</time>
      </trkpt>
      <trkpt lat="48.29424" lon="2.4437">
        <ele>98.7</ele>
        <time>2020-09-06T09:02:31Z</time>
      </trkpt>
      <trkpt lat="48.29424" lon="2.44369">
        <ele>99.2</ele>
        <time>2020-09-06T09:02:32Z</time>
      </trkpt>
      <trkpt lat="48.29423" lon="2.44368">
        <ele>99</ele>
        <time>2020-09-06T09:02:33Z</time>
      </trkpt>
      <trkpt lat="48.29423" lon="2.44367">
        <ele>99</ele>
        <time>2020-09-06T09:02:34Z</time>
      </trkpt>
      <trkpt lat="48.29422" lon="2.44362">
        <ele>99.3</ele>
        <time>2020-09-06T09:02:35Z</time>
      </trkpt>
      <trkpt lat="48.29421" lon="2.44358">
        <ele>99</ele>
        <time>2020-09-06T09:02:36Z</time>
      </trkpt>
      <trkpt lat="48.29419" lon="2.44354">
        <ele>98.7</ele>
        <time>2020-09-06T09:02:37Z</time>
      </trkpt>
      <trkpt lat="48.29418" lon="2.44348">
        <ele>99</ele>
        <time>2020-09-06T09:02:38Z</time>
      </trkpt>
      <trkpt lat="48.29418" lon="2.44346">
        <ele>98.8</ele>
        <time>2020-09-06T09:02:39Z</time>
      </trkpt>
      <trkpt lat="48.29418" lon="2.44341">
        <ele>98.6</ele>
        <time>2020-09-06T09:02:40Z</time>
      </trkpt>
      <trkpt lat="48.29417" lon="2.4434">
        <ele>98.6</ele>
        <time>2020-09-06T09:02:41Z</time>
      </trkpt>
      <trkpt lat="48.29417" lon="2.4434">
        <ele>98.6</ele>
        <time>2020-09-06T09:02:42Z</time>
      </trkpt>
      <trkpt lat="48.29417" lon="2.4434">
        <ele>98.6</ele>
        <time>2020-09-06T09:02:43Z</time>
      </trkpt>
      <trkpt lat="48.29417" lon="2.44338">
        <ele>98.4</ele>
        <time>2020-09-06T09:02:44Z</time>
      </trkpt>
      <trkpt lat="48.29416" lon="2.44337">
        <ele>98.4</ele>
        <time>2020-09-06T09:02:45Z</time>
      </trkpt>
      <trkpt lat="48.29416" lon="2.44334">
        <ele>99</ele>
        <time>2020-09-06T09:02:46Z</time>
      </trkpt>
      <trkpt lat="48.29415" lon="2.44332">
        <ele>98.9</ele>
        <time>2020-09-06T09:02:47Z</time>
      </trkpt>
      <trkpt lat="48.29415" lon="2.4433">
        <ele>98.9</ele>
        <time>2020-09-06T09:02:48Z</time>
      </trkpt>
      <trkpt lat="48.29414" lon="2.44326">
        <ele>98.7</ele>
        <time>2020-09-06T09:02:49Z</time>
      </trkpt>
      <trkpt lat="48.29413" lon="2.44322">
        <ele>98.6</ele>
        <time>2020-09-06T09:02:50Z</time>
      </trkpt>
      <trkpt lat="48.29412" lon="2.44318">
        <ele>99.2</ele>
        <time>2020-09-06T09:02:51Z</time>
      </trkpt>
      <trkpt lat="48.29411" lon="2.44316">
        <ele>99.1</ele>
        <time>2020-09-06T09:02:52Z</time>
      </trkpt>
      <trkpt lat="48.2941" lon="2.44313">
        <ele>99.7</ele>
        <time>2020-09-06T09:02:53Z</time>
      </trkpt>
      <trkpt lat="48.29409" lon="2.44312">
        <ele>99.6</ele>
        <time>2020-09-06T09:02:54Z</time>
      </trkpt>
      <trkpt lat="48.29408" lon="2.44308">
        <ele>99.5</ele>
        <time>2020-09-06T09:02:55Z</time>
      </trkpt>
      <trkpt lat="48.29408" lon="2.44306">
        <ele>99.5</ele>
        <time>2020-09-06T09:02:56Z</time>
      </trkpt>
      <trkpt lat="48.29407" lon="2.44302">
        <ele>100</ele>
        <time>2020-09-06T09:02:57Z</time>
      </trkpt>
      <trkpt lat="48.29407" lon="2.44301">
        <ele>100</ele>
        <time>2020-09-06T09:02:58Z</time>
      </trkpt>
      <trkpt lat="48.29405" lon="2.44297">
        <ele>99.9</ele>
        <time>2020-09-06T09:02:59Z</time>
      </trkpt>
      <trkpt lat="48.29404" lon="2.44296">
        <ele>100.4</ele>
        <time>2020-09-06T09:03:00Z</time>
      </trkpt>
      <trkpt lat="48.29403" lon="2.44293">
        <ele>100.3</ele>
        <time>2020-09-06T09:03:01Z</time>
      </trkpt>
      <trkpt lat="48.294" lon="2.44289">
        <ele>100.7</ele>
        <time>2020-09-06T09:03:02Z</time>
      </trkpt>
      <trkpt lat="48.29399" lon="2.44285">
        <ele>101.1</ele>
        <time>2020-09-06T09:03:03Z</time>
      </trkpt>
      <trkpt lat="48.29396" lon="2.44281">
        <ele>101</ele>
        <time>2020-09-06T09:03:04Z</time>
      </trkpt>
      <trkpt lat="48.29394" lon="2.44276">
        <ele>101.4</ele>
        <time>2020-09-06T09:03:05Z</time>
      </trkpt>
      <trkpt lat="48.29392" lon="2.44272">
        <ele>101.8</ele>
        <time>2020-09-06T09:03:06Z</time>
      </trkpt>
      <trkpt lat="48.2939" lon="2.44269">
        <ele>102.3</ele>
        <time>2020-09-06T09:03:07Z</time>
      </trkpt>
      <trkpt lat="48.29387" lon="2.44264">
        <ele>102.1</ele>
        <time>2020-09-06T09:03:08Z</time>
      </trkpt>
      <trkpt lat="48.29385" lon="2.4426">
        <ele>102.6</ele>
        <time>2020-09-06T09:03:09Z</time>
      </trkpt>
      <trkpt lat="48.29383" lon="2.44256">
        <ele>103</ele>
        <time>2020-09-06T09:03:10Z</time>
      </trkpt>
      <trkpt lat="48.29381" lon="2.44253">
        <ele>103.5</ele>
        <time>2020-09-06T09:03:11Z</time>
      </trkpt>
      <trkpt lat="48.29378" lon="2.44249">
        <ele>104</ele>
        <time>2020-09-06T09:03:12Z</time>
      </trkpt>
      <trkpt lat="48.29376" lon="2.44244">
        <ele>104.3</ele>
        <time>2020-09-06T09:03:13Z</time>
      </trkpt>
      <trkpt lat="48.29373" lon="2.4424">
        <ele>104.3</ele>
        <time>2020-09-06T09:03:14Z</time>
      </trkpt>
      <trkpt lat="48.2937" lon="2.44237">
        <ele>104.8</ele>
        <time>2020-09-06T09:03:15Z</time>
      </trkpt>
      <trkpt lat="48.29368" lon="2.44233">
        <ele>105.2</ele>
        <time>2020-09-06T09:03:16Z</time>
      </trkpt>
      <trkpt lat="48.29365" lon="2.44229">
        <ele>105.7</ele>
        <time>2020-09-06T09:03:17Z</time>
      </trkpt>
      <trkpt lat="48.29363" lon="2.44225">
        <ele>106.2</ele>
        <time>2020-09-06T09:03:18Z</time>
      </trkpt>
      <trkpt lat="48.2936" lon="2.44221">
        <ele>106.6</ele>
        <time>2020-09-06T09:03:19Z</time>
      </trkpt>
      <trkpt lat="48.29357" lon="2.44218">
        <ele>107</ele>
        <time>2020-09-06T09:03:20Z</time>
      </trkpt>
      <trkpt lat="48.29354" lon="2.44215">
        <ele>107.5</ele>
        <time>2020-09-06T09:03:21Z</time>
      </trkpt>
      <trkpt lat="48.29352" lon="2.4421">
        <ele>107.8</ele>
        <time>2020-09-06T09:03:22Z</time>
      </trkpt>
      <trkpt lat="48.29349" lon="2.44207">
        <ele>108</ele>
        <time>2020-09-06T09:03:23Z</time>
      </trkpt>
      <trkpt lat="48.29345" lon="2.44204">
        <ele>108.1</ele>
        <time>2020-09-06T09:03:24Z</time>
      </trkpt>
      <trkpt lat="48.29342" lon="2.44201">
        <ele>108.2</ele>
        <time>2020-09-06T09:03:25Z</time>
      </trkpt>
      <trkpt lat="48.29338" lon="2.44198">
        <ele>108.8</ele>
        <time>2020-09-06T09:03:26Z</time>
      </trkpt>
      <trkpt lat="48.29335" lon="2.44194">
        <ele>108.8</ele>
        <time>2020-09-06T09:03:27Z</time>
      </trkpt>
      <trkpt lat="48.29332" lon="2.4419">
        <ele>108.7</ele>
        <time>2020-09-06T09:03:28Z</time>
      </trkpt>
      <trkpt lat="48.2933" lon="2.44186">
        <ele>108.6</ele>
        <time>2020-09-06T09:03:29Z</time>
      </trkpt>
      <trkpt lat="48.29328" lon="2.44183">
        <ele>108.3</ele>
        <time>2020-09-06T09:03:30Z</time>
      </trkpt>
      <trkpt lat="48.29325" lon="2.44179">
        <ele>108.1</ele>
        <time>2020-09-06T09:03:31Z</time>
      </trkpt>
      <trkpt lat="48.29325" lon="2.44178">
        <ele>108.1</ele>
        <time>2020-09-06T09:03:32Z</time>
      </trkpt>
      <trkpt lat="48.29322" lon="2.44175">
        <ele>107.9</ele>
        <time>2020-09-06T09:03:33Z</time>
      </trkpt>
      <trkpt lat="48.29321" lon="2.44174">
        <ele>108</ele>
        <time>2020-09-06T09:03:34Z</time>
      </trkpt>
      <trkpt lat="48.29317" lon="2.44174">
        <ele>108.1</ele>
        <time>2020-09-06T09:03:35Z</time>
      </trkpt>
      <trkpt lat="48.29316" lon="2.44174">
        <ele>108.1</ele>
        <time>2020-09-06T09:03:36Z</time>
      </trkpt>
      <trkpt lat="48.29314" lon="2.44174">
        <ele>108.1</ele>
        <time>2020-09-06T09:03:37Z</time>
      </trkpt>
      <trkpt lat="48.29313" lon="2.44174">
        <ele>108.1</ele>
        <time>2020-09-06T09:03:38Z</time>
      </trkpt>
      <trkpt lat="48.29312" lon="2.44174">
        <ele>108.1</ele>
        <time>2020-09-06T09:03:39Z</time>
      </trkpt>
      <trkpt lat="48.29311" lon="2.44173">
        <ele>108.2</ele>
        <time>2020-09-06T09:03:40Z</time>
      </trkpt>
      <trkpt lat="48.2931" lon="2.44172">
        <ele>108.2</ele>
        <time>2020-09-06T09:03:41Z</time>
      </trkpt>
      <trkpt lat="48.29311" lon="2.44173">
        <ele>108.2</ele>
        <time>2020-09-06T09:03:42Z</time>
      </trkpt>
      <trkpt lat="48.2931" lon="2.44172">
        <ele>108.2</ele>
        <time>2020-09-06T09:03:43Z</time>
      </trkpt>
      <trkpt lat="48.2931" lon="2.44172">
        <ele>108.2</ele>
        <time>2020-09-06T09:03:44Z</time>
      </trkpt>
      <trkpt lat="48.29309" lon="2.44173">
        <ele>108.2</ele>
        <time>2020-09-06T09:03:45Z</time>
      </trkpt>
      <trkpt lat="48.29307" lon="2.44174">
        <ele>108.2</ele>
        <time>2020-09-06T09:03:46Z</time>
      </trkpt>
      <trkpt lat="48.29306" lon="2.44174">
        <ele>108.2</ele>
        <time>2020-09-06T09:03:47Z</time>
      </trkpt>
      <trkpt lat="48.29306" lon="2.44175">
        <ele>108.2</ele>
        <time>2020-09-06T09:03:48Z</time>
      </trkpt>
      <trkpt lat="48.29306" lon="2.44175">
        <ele>108.2</ele>
        <time>2020-09-06T09:03:49Z</time>
      </trkpt>
      <trkpt lat="48.29305" lon="2.44175">
        <ele>108.2</ele>
        <time>2020-09-06T09:03:50Z</time>
      </trkpt>
      <trkpt lat="48.29298" lon="2.44168">
        <ele>107.5</ele>
        <time>2020-09-06T09:03:59Z</time>
      </trkpt>
      <trkpt lat="48.29297" lon="2.44164">
        <ele>105.8</ele>
        <time>2020-09-06T09:04:53Z</time>
      </trkpt>
      <trkpt lat="48.29297" lon="2.4416">
        <ele>105.6</ele>
        <time>2020-09-06T09:04:54Z</time>
      </trkpt>
      <trkpt lat="48.29298" lon="2.44156">
        <ele>105.5</ele>
        <time>2020-09-06T09:04:55Z</time>
      </trkpt>
      <trkpt lat="48.29299" lon="2.44155">
        <ele>105.5</ele>
        <time>2020-09-06T09:04:56Z</time>
      </trkpt>
      <trkpt lat="48.29301" lon="2.44151">
        <ele>105.3</ele>
        <time>2020-09-06T09:04:57Z</time>
      </trkpt>
      <trkpt lat="48.29303" lon="2.44144">
        <ele>105.1</ele>
        <time>2020-09-06T09:04:58Z</time>
      </trkpt>
      <trkpt lat="48.29305" lon="2.4414">
        <ele>105</ele>
        <time>2020-09-06T09:04:59Z</time>
      </trkpt>
      <trkpt lat="48.29306" lon="2.44135">
        <ele>104.8</ele>
        <time>2020-09-06T09:05:00Z</time>
      </trkpt>
      <trkpt lat="48.29307" lon="2.4413">
        <ele>104.7</ele>
        <time>2020-09-06T09:05:01Z</time>
      </trkpt>
      <trkpt lat="48.29309" lon="2.44126">
        <ele>104.6</ele>
        <time>2020-09-06T09:05:02Z</time>
      </trkpt>
      <trkpt lat="48.2931" lon="2.44121">
        <ele>104.4</ele>
        <time>2020-09-06T09:05:03Z</time>
      </trkpt>
      <trkpt lat="48.2931" lon="2.44119">
        <ele>104.4</ele>
        <time>2020-09-06T09:05:04Z</time>
      </trkpt>
      <trkpt lat="48.29311" lon="2.44118">
        <ele>104.3</ele>
        <time>2020-09-06T09:05:05Z</time>
      </trkpt>
      <trkpt lat="48.29311" lon="2.44116">
        <ele>104.3</ele>
        <time>2020-09-06T09:05:06Z</time>
      </trkpt>
      <trkpt lat="48.29311" lon="2.44115">
        <ele>104.3</ele>
        <time>2020-09-06T09:05:07Z</time>
      </trkpt>
      <trkpt lat="48.29309" lon="2.44115">
        <ele>104.2</ele>
        <time>2020-09-06T09:05:08Z</time>
      </trkpt>
      <trkpt lat="48.29307" lon="2.44115">
        <ele>104.1</ele>
        <time>2020-09-06T09:05:09Z</time>
      </trkpt>
      <trkpt lat="48.29307" lon="2.44115">
        <ele>104.1</ele>
        <time>2020-09-06T09:05:10Z</time>
      </trkpt>
      <trkpt lat="48.29307" lon="2.44114">
        <ele>104.1</ele>
        <time>2020-09-06T09:05:11Z</time>
      </trkpt>
      <trkpt lat="48.29307" lon="2.44113">
        <ele>104</ele>
        <time>2020-09-06T09:05:12Z</time>
      </trkpt>
      <trkpt lat="48.29307" lon="2.4411">
        <ele>103.9</ele>
        <time>2020-09-06T09:05:13Z</time>
      </trkpt>
      <trkpt lat="48.29308" lon="2.44105">
        <ele>103.8</ele>
        <time>2020-09-06T09:05:14Z</time>
      </trkpt>
      <trkpt lat="48.29308" lon="2.44103">
        <ele>103.7</ele>
        <time>2020-09-06T09:05:15Z</time>
      </trkpt>
      <trkpt lat="48.29309" lon="2.44098">
        <ele>103.5</ele>
        <time>2020-09-06T09:05:16Z</time>
      </trkpt>
      <trkpt lat="48.29309" lon="2.44096">
        <ele>103.5</ele>
        <time>2020-09-06T09:05:17Z</time>
      </trkpt>
      <trkpt lat="48.2931" lon="2.44092">
        <ele>103.3</ele>
        <time>2020-09-06T09:05:18Z</time>
      </trkpt>
      <trkpt lat="48.2931" lon="2.44087">
        <ele>103.2</ele>
        <time>2020-09-06T09:05:19Z</time>
      </trkpt>
      <trkpt lat="48.29311" lon="2.44083">
        <ele>103</ele>
        <time>2020-09-06T09:05:20Z</time>
      </trkpt>
      <trkpt lat="48.29313" lon="2.44079">
        <ele>102.9</ele>
        <time>2020-09-06T09:05:21Z</time>
      </trkpt>
      <trkpt lat="48.29313" lon="2.44073">
        <ele>102.7</ele>
        <time>2020-09-06T09:05:22Z</time>
      </trkpt>
      <trkpt lat="48.29314" lon="2.44068">
        <ele>102.5</ele>
        <time>2020-09-06T09:05:23Z</time>
      </trkpt>
      <trkpt lat="48.29314" lon="2.44066">
        <ele>102.5</ele>
        <time>2020-09-06T09:05:24Z</time>
      </trkpt>
      <trkpt lat="48.29315" lon="2.44063">
        <ele>102.4</ele>
        <time>2020-09-06T09:05:25Z</time>
      </trkpt>
      <trkpt lat="48.29315" lon="2.44061">
        <ele>102.3</ele>
        <time>2020-09-06T09:05:26Z</time>
      </trkpt>
      <trkpt lat="48.29315" lon="2.44061">
        <ele>102.3</ele>
        <time>2020-09-06T09:05:27Z</time>
      </trkpt>
      <trkpt lat="48.29315" lon="2.4406">
        <ele>102.3</ele>
        <time>2020-09-06T09:05:28Z</time>
      </trkpt>
      <trkpt lat="48.29314" lon="2.44059">
        <ele>102.3</ele>
        <time>2020-09-06T09:05:29Z</time>
      </trkpt>
      <trkpt lat="48.29314" lon="2.44059">
        <ele>102.2</ele>
        <time>2020-09-06T09:05:30Z</time>
      </trkpt>
      <trkpt lat="48.29314" lon="2.44058">
        <ele>102.2</ele>
        <time>2020-09-06T09:05:31Z</time>
      </trkpt>
      <trkpt lat="48.29313" lon="2.44058">
        <ele>102.2</ele>
        <time>2020-09-06T09:05:32Z</time>
      </trkpt>
      <trkpt lat="48.29313" lon="2.44057">
        <ele>102.2</ele>
        <time>2020-09-06T09:05:33Z</time>
      </trkpt>
      <trkpt lat="48.29312" lon="2.44058">
        <ele>102.1</ele>
        <time>2020-09-06T09:05:34Z</time>
      </trkpt>
      <trkpt lat="48.29312" lon="2.44058">
        <ele>102.1</ele>
        <time>2020-09-06T09:05:35Z</time>
      </trkpt>
      <trkpt lat="48.29311" lon="2.44058">
        <ele>102.1</ele>
        <time>2020-09-06T09:05:36Z</time>
      </trkpt>
      <trkpt lat="48.29312" lon="2.44056">
        <ele>102.1</ele>
        <time>2020-09-06T09:05:37Z</time>
      </trkpt>
      <trkpt lat="48.29313" lon="2.44057">
        <ele>102</ele>
        <time>2020-09-06T09:05:38Z</time>
      </trkpt>
      <trkpt lat="48.29313" lon="2.44058">
        <ele>102</ele>
        <time>2020-09-06T09:05:39Z</time>
      </trkpt>
      <trkpt lat="48.29313" lon="2.44058">
        <ele>102</ele>
        <time>2020-09-06T09:05:40Z</time>
      </trkpt>
      <trkpt lat="48.29313" lon="2.44057">
        <ele>102</ele>
        <time>2020-09-06T09:05:41Z</time>
      </trkpt>
      <trkpt lat="48.29313" lon="2.44057">
        <ele>101.9</ele>
        <time>2020-09-06T09:05:42Z</time>
      </trkpt>
      <trkpt lat="48.29313" lon="2.44056">
        <ele>101.9</ele>
        <time>2020-09-06T09:05:43Z</time>
      </trkpt>
      <trkpt lat="48.29313" lon="2.44057">
        <ele>101.9</ele>
        <time>2020-09-06T09:05:44Z</time>
      </trkpt>
      <trkpt lat="48.29313" lon="2.44057">
        <ele>101.9</ele>
        <time>2020-09-06T09:05:45Z</time>
      </trkpt>
      <trkpt lat="48.29313" lon="2.44058">
        <ele>101.9</ele>
        <time>2020-09-06T09:05:46Z</time>
      </trkpt>
      <trkpt lat="48.29313" lon="2.44058">
        <ele>101.9</ele>
        <time>2020-09-06T09:05:47Z</time>
      </trkpt>
      <trkpt lat="48.29312" lon="2.44059">
        <ele>101.8</ele>
        <time>2020-09-06T09:05:48Z</time>
      </trkpt>
      <trkpt lat="48.29312" lon="2.44059">
        <ele>101.8</ele>
        <time>2020-09-06T09:05:49Z</time>
      </trkpt>
      <trkpt lat="48.29313" lon="2.44059">
        <ele>101.8</ele>
        <time>2020-09-06T09:05:50Z</time>
      </trkpt>
      <trkpt lat="48.29313" lon="2.44057">
        <ele>101.8</ele>
        <time>2020-09-06T09:05:51Z</time>
      </trkpt>
      <trkpt lat="48.29313" lon="2.44055">
        <ele>101.8</ele>
        <time>2020-09-06T09:05:52Z</time>
      </trkpt>
      <trkpt lat="48.29312" lon="2.44054">
        <ele>101.7</ele>
        <time>2020-09-06T09:05:53Z</time>
      </trkpt>
      <trkpt lat="48.29312" lon="2.44054">
        <ele>101.7</ele>
        <time>2020-09-06T09:05:54Z</time>
      </trkpt>
      <trkpt lat="48.29312" lon="2.44055">
        <ele>101.7</ele>
        <time>2020-09-06T09:05:55Z</time>
      </trkpt>
      <trkpt lat="48.29313" lon="2.44056">
        <ele>101.7</ele>
        <time>2020-09-06T09:05:56Z</time>
      </trkpt>
      <trkpt lat="48.29312" lon="2.44056">
        <ele>101.6</ele>
        <time>2020-09-06T09:05:57Z</time>
      </trkpt>
      <trkpt lat="48.29313" lon="2.44056">
        <ele>101.6</ele>
        <time>2020-09-06T09:05:58Z</time>
      </trkpt>
      <trkpt lat="48.29313" lon="2.44055">
        <ele>101.6</ele>
        <time>2020-09-06T09:05:59Z</time>
      </trkpt>
      <trkpt lat="48.29313" lon="2.44055">
        <ele>101.6</ele>
        <time>2020-09-06T09:06:00Z</time>
      </trkpt>
      <trkpt lat="48.29313" lon="2.44054">
        <ele>101.6</ele>
        <time>2020-09-06T09:06:01Z</time>
      </trkpt>
      <trkpt lat="48.29312" lon="2.44053">
        <ele>101.6</ele>
        <time>2020-09-06T09:06:02Z</time>
      </trkpt>
      <trkpt lat="48.29312" lon="2.44053">
        <ele>101.5</ele>
        <time>2020-09-06T09:06:03Z</time>
      </trkpt>
      <trkpt lat="48.29312" lon="2.44052">
        <ele>101.5</ele>
        <time>2020-09-06T09:06:04Z</time>
      </trkpt>
      <trkpt lat="48.29311" lon="2.44052">
        <ele>101.5</ele>
        <time>2020-09-06T09:06:05Z</time>
      </trkpt>
      <trkpt lat="48.29311" lon="2.44051">
        <ele>101.5</ele>
        <time>2020-09-06T09:06:06Z</time>
      </trkpt>
      <trkpt lat="48.2931" lon="2.44049">
        <ele>101.4</ele>
        <time>2020-09-06T09:06:07Z</time>
      </trkpt>
      <trkpt lat="48.2931" lon="2.44047">
        <ele>101.4</ele>
        <time>2020-09-06T09:06:08Z</time>
      </trkpt>
      <trkpt lat="48.2931" lon="2.44045">
        <ele>101.4</ele>
        <time>2020-09-06T09:06:09Z</time>
      </trkpt>
      <trkpt lat="48.2931" lon="2.44043">
        <ele>101.4</ele>
        <time>2020-09-06T09:06:10Z</time>
      </trkpt>
      <trkpt lat="48.2931" lon="2.44042">
        <ele>101.4</ele>
        <time>2020-09-06T09:06:11Z</time>
      </trkpt>
      <trkpt lat="48.29311" lon="2.44042">
        <ele>101.4</ele>
        <time>2020-09-06T09:06:12Z</time>
      </trkpt>
      <trkpt lat="48.29311" lon="2.44042">
        <ele>101.4</ele>
        <time>2020-09-06T09:06:13Z</time>
      </trkpt>
      <trkpt lat="48.29312" lon="2.44042">
        <ele>101.4</ele>
        <time>2020-09-06T09:06:14Z</time>
      </trkpt>
      <trkpt lat="48.29311" lon="2.44043">
        <ele>101.4</ele>
        <time>2020-09-06T09:06:15Z</time>
      </trkpt>
      <trkpt lat="48.29311" lon="2.44043">
        <ele>101.4</ele>
        <time>2020-09-06T09:06:16Z</time>
      </trkpt>
      <trkpt lat="48.29312" lon="2.44045">
        <ele>101.4</ele>
        <time>2020-09-06T09:06:17Z</time>
      </trkpt>
      <trkpt lat="48.29312" lon="2.44045">
        <ele>101.4</ele>
        <time>2020-09-06T09:06:18Z</time>
      </trkpt>
      <trkpt lat="48.29311" lon="2.44046">
        <ele>101.4</ele>
        <time>2020-09-06T09:06:19Z</time>
      </trkpt>
      <trkpt lat="48.29313" lon="2.44046">
        <ele>101.4</ele>
        <time>2020-09-06T09:06:20Z</time>
      </trkpt>
      <trkpt lat="48.29313" lon="2.44046">
        <ele>101.4</ele>
        <time>2020-09-06T09:06:21Z</time>
      </trkpt>
      <trkpt lat="48.29313" lon="2.44046">
        <ele>101.4</ele>
        <time>2020-09-06T09:06:22Z</time>
      </trkpt>
      <trkpt lat="48.29313" lon="2.44047">
        <ele>101.4</ele>
        <time>2020-09-06T09:06:23Z</time>
      </trkpt>
      <trkpt lat="48.29312" lon="2.44048">
        <ele>101.4</ele>
        <time>2020-09-06T09:06:24Z</time>
      </trkpt>
      <trkpt lat="48.29312" lon="2.44047">
        <ele>101.4</ele>
        <time>2020-09-06T09:06:25Z</time>
      </trkpt>
      <trkpt lat="48.29312" lon="2.44048">
        <ele>101.4</ele>
        <time>2020-09-06T09:06:26Z</time>
      </trkpt>
      <trkpt lat="48.29311" lon="2.44049">
        <ele>101.4</ele>
        <time>2020-09-06T09:06:27Z</time>
      </trkpt>
      <trkpt lat="48.29311" lon="2.4405">
        <ele>101.4</ele>
        <time>2020-09-06T09:06:28Z</time>
      </trkpt>
      <trkpt lat="48.2931" lon="2.4405">
        <ele>101.4</ele>
        <time>2020-09-06T09:06:29Z</time>
      </trkpt>
      <trkpt lat="48.2931" lon="2.44051">
        <ele>101.4</ele>
        <time>2020-09-06T09:06:30Z</time>
      </trkpt>
      <trkpt lat="48.2931" lon="2.44052">
        <ele>101.4</ele>
        <time>2020-09-06T09:06:31Z</time>
      </trkpt>
      <trkpt lat="48.2931" lon="2.44052">
        <ele>101.4</ele>
        <time>2020-09-06T09:06:32Z</time>
      </trkpt>
      <trkpt lat="48.2931" lon="2.44052">
        <ele>101.4</ele>
        <time>2020-09-06T09:06:33Z</time>
      </trkpt>
      <trkpt lat="48.29311" lon="2.44053">
        <ele>101.4</ele>
        <time>2020-09-06T09:06:34Z</time>
      </trkpt>
      <trkpt lat="48.2931" lon="2.44054">
        <ele>101.4</ele>
        <time>2020-09-06T09:06:35Z</time>
      </trkpt>
      <trkpt lat="48.2931" lon="2.44055">
        <ele>101.4</ele>
        <time>2020-09-06T09:06:36Z</time>
      </trkpt>
      <trkpt lat="48.2931" lon="2.44054">
        <ele>101.4</ele>
        <time>2020-09-06T09:06:37Z</time>
      </trkpt>
      <trkpt lat="48.2931" lon="2.44055">
        <ele>101.4</ele>
        <time>2020-09-06T09:06:38Z</time>
      </trkpt>
      <trkpt lat="48.2931" lon="2.44055">
        <ele>101.4</ele>
        <time>2020-09-06T09:06:39Z</time>
      </trkpt>
      <trkpt lat="48.2931" lon="2.44055">
        <ele>101.3</ele>
        <time>2020-09-06T09:06:40Z</time>
      </trkpt>
      <trkpt lat="48.2931" lon="2.44055">
        <ele>101.3</ele>
        <time>2020-09-06T09:06:41Z</time>
      </trkpt>
      <trkpt lat="48.29311" lon="2.44055">
        <ele>101.3</ele>
        <time>2020-09-06T09:06:42Z</time>
      </trkpt>
      <trkpt lat="48.2931" lon="2.44054">
        <ele>101.3</ele>
        <time>2020-09-06T09:06:43Z</time>
      </trkpt>
      <trkpt lat="48.29311" lon="2.44048">
        <ele>101.3</ele>
        <time>2020-09-06T09:07:00Z</time>
      </trkpt>
      <trkpt lat="48.29313" lon="2.44048">
        <ele>101.2</ele>
        <time>2020-09-06T09:07:01Z</time>
      </trkpt>
      <trkpt lat="48.29313" lon="2.44048">
        <ele>101.2</ele>
        <time>2020-09-06T09:07:02Z</time>
      </trkpt>
      <trkpt lat="48.29314" lon="2.44047">
        <ele>101.2</ele>
        <time>2020-09-06T09:07:03Z</time>
      </trkpt>
      <trkpt lat="48.29316" lon="2.44046">
        <ele>101.1</ele>
        <time>2020-09-06T09:07:04Z</time>
      </trkpt>
      <trkpt lat="48.29317" lon="2.44045">
        <ele>101.1</ele>
        <time>2020-09-06T09:07:05Z</time>
      </trkpt>
      <trkpt lat="48.2932" lon="2.44044">
        <ele>101</ele>
        <time>2020-09-06T09:07:06Z</time>
      </trkpt>
      <trkpt lat="48.29324" lon="2.44045">
        <ele>100.9</ele>
        <time>2020-09-06T09:07:07Z</time>
      </trkpt>
      <trkpt lat="48.29329" lon="2.44045">
        <ele>100.7</ele>
        <time>2020-09-06T09:07:08Z</time>
      </trkpt>
      <trkpt lat="48.29335" lon="2.44047">
        <ele>100.1</ele>
        <time>2020-09-06T09:07:09Z</time>
      </trkpt>
      <trkpt lat="48.29341" lon="2.44048">
        <ele>99.7</ele>
        <time>2020-09-06T09:07:10Z</time>
      </trkpt>
      <trkpt lat="48.29347" lon="2.44049">
        <ele>99.2</ele>
        <time>2020-09-06T09:07:11Z</time>
      </trkpt>
      <trkpt lat="48.29352" lon="2.44048">
        <ele>98.9</ele>
        <time>2020-09-06T09:07:12Z</time>
      </trkpt>
      <trkpt lat="48.29356" lon="2.44047">
        <ele>98.5</ele>
        <time>2020-09-06T09:07:13Z</time>
      </trkpt>
      <trkpt lat="48.2936" lon="2.44047">
        <ele>98.2</ele>
        <time>2020-09-06T09:07:14Z</time>
      </trkpt>
      <trkpt lat="48.29364" lon="2.44047">
        <ele>97.9</ele>
        <time>2020-09-06T09:07:15Z</time>
      </trkpt>
      <trkpt lat="48.29365" lon="2.44047">
        <ele>97.7</ele>
        <time>2020-09-06T09:07:16Z</time>
      </trkpt>
      <trkpt lat="48.29368" lon="2.44048">
        <ele>97.6</ele>
        <time>2020-09-06T09:07:17Z</time>
      </trkpt>
      <trkpt lat="48.29368" lon="2.44047">
        <ele>97.5</ele>
        <time>2020-09-06T09:07:18Z</time>
      </trkpt>
      <trkpt lat="48.29371" lon="2.44046">
        <ele>97.3</ele>
        <time>2020-09-06T09:07:19Z</time>
      </trkpt>
      <trkpt lat="48.29371" lon="2.44046">
        <ele>97.3</ele>
        <time>2020-09-06T09:07:20Z</time>
      </trkpt>
      <trkpt lat="48.29372" lon="2.44045">
        <ele>97.2</ele>
        <time>2020-09-06T09:07:21Z</time>
      </trkpt>
      <trkpt lat="48.29373" lon="2.44045">
        <ele>97.2</ele>
        <time>2020-09-06T09:07:22Z</time>
      </trkpt>
      <trkpt lat="48.29374" lon="2.44045">
        <ele>97.1</ele>
        <time>2020-09-06T09:07:23Z</time>
      </trkpt>
      <trkpt lat="48.29373" lon="2.44044">
        <ele>97</ele>
        <time>2020-09-06T09:07:24Z</time>
      </trkpt>
      <trkpt lat="48.29375" lon="2.44045">
        <ele>96.9</ele>
        <time>2020-09-06T09:07:25Z</time>
      </trkpt>
      <trkpt lat="48.29379" lon="2.44048">
        <ele>96.7</ele>
        <time>2020-09-06T09:07:26Z</time>
      </trkpt>
      <trkpt lat="48.29382" lon="2.44051">
        <ele>96.5</ele>
        <time>2020-09-06T09:07:27Z</time>
      </trkpt>
      <trkpt lat="48.29384" lon="2.44054">
        <ele>96.3</ele>
        <time>2020-09-06T09:07:28Z</time>
      </trkpt>
      <trkpt lat="48.29387" lon="2.44058">
        <ele>96.2</ele>
        <time>2020-09-06T09:07:29Z</time>
      </trkpt>
      <trkpt lat="48.29389" lon="2.4406">
        <ele>96.1</ele>
        <time>2020-09-06T09:07:30Z</time>
      </trkpt>
      <trkpt lat="48.29392" lon="2.44063">
        <ele>95.9</ele>
        <time>2020-09-06T09:07:31Z</time>
      </trkpt>
      <trkpt lat="48.29393" lon="2.44064">
        <ele>96.2</ele>
        <time>2020-09-06T09:07:32Z</time>
      </trkpt>
      <trkpt lat="48.29394" lon="2.44064">
        <ele>95.7</ele>
        <time>2020-09-06T09:07:33Z</time>
      </trkpt>
      <trkpt lat="48.29395" lon="2.44062">
        <ele>95.2</ele>
        <time>2020-09-06T09:07:34Z</time>
      </trkpt>
      <trkpt lat="48.29396" lon="2.4406">
        <ele>95.1</ele>
        <time>2020-09-06T09:07:35Z</time>
      </trkpt>
      <trkpt lat="48.29396" lon="2.44055">
        <ele>93.9</ele>
        <time>2020-09-06T09:07:36Z</time>
      </trkpt>
      <trkpt lat="48.29397" lon="2.44048">
        <ele>93.4</ele>
        <time>2020-09-06T09:07:37Z</time>
      </trkpt>
      <trkpt lat="48.29396" lon="2.44041">
        <ele>92.7</ele>
        <time>2020-09-06T09:07:38Z</time>
      </trkpt>
      <trkpt lat="48.29397" lon="2.44036">
        <ele>92.4</ele>
        <time>2020-09-06T09:07:39Z</time>
      </trkpt>
      <trkpt lat="48.29398" lon="2.4403">
        <ele>92.1</ele>
        <time>2020-09-06T09:07:40Z</time>
      </trkpt>
      <trkpt lat="48.29399" lon="2.44025">
        <ele>91.5</ele>
        <time>2020-09-06T09:07:41Z</time>
      </trkpt>
      <trkpt lat="48.29401" lon="2.44019">
        <ele>91.3</ele>
        <time>2020-09-06T09:07:42Z</time>
      </trkpt>
      <trkpt lat="48.29403" lon="2.44013">
        <ele>90.9</ele>
        <time>2020-09-06T09:07:43Z</time>
      </trkpt>
      <trkpt lat="48.29405" lon="2.44007">
        <ele>90.3</ele>
        <time>2020-09-06T09:07:44Z</time>
      </trkpt>
      <trkpt lat="48.29407" lon="2.44005">
        <ele>90</ele>
        <time>2020-09-06T09:07:45Z</time>
      </trkpt>
      <trkpt lat="48.29408" lon="2.44005">
        <ele>89.9</ele>
        <time>2020-09-06T09:07:46Z</time>
      </trkpt>
      <trkpt lat="48.29412" lon="2.44006">
        <ele>89.6</ele>
        <time>2020-09-06T09:07:47Z</time>
      </trkpt>
      <trkpt lat="48.29414" lon="2.44006">
        <ele>89.2</ele>
        <time>2020-09-06T09:07:48Z</time>
      </trkpt>
      <trkpt lat="48.29417" lon="2.44008">
        <ele>88.8</ele>
        <time>2020-09-06T09:07:49Z</time>
      </trkpt>
      <trkpt lat="48.2942" lon="2.44011">
        <ele>88.5</ele>
        <time>2020-09-06T09:07:50Z</time>
      </trkpt>
      <trkpt lat="48.29424" lon="2.44013">
        <ele>88.3</ele>
        <time>2020-09-06T09:07:51Z</time>
      </trkpt>
      <trkpt lat="48.29429" lon="2.44016">
        <ele>87.7</ele>
        <time>2020-09-06T09:07:52Z</time>
      </trkpt>
      <trkpt lat="48.29432" lon="2.44016">
        <ele>87.4</ele>
        <time>2020-09-06T09:07:53Z</time>
      </trkpt>
      <trkpt lat="48.29435" lon="2.44015">
        <ele>87.1</ele>
        <time>2020-09-06T09:07:54Z</time>
      </trkpt>
      <trkpt lat="48.29436" lon="2.44014">
        <ele>86.8</ele>
        <time>2020-09-06T09:07:55Z</time>
      </trkpt>
      <trkpt lat="48.29439" lon="2.44009">
        <ele>86.6</ele>
        <time>2020-09-06T09:07:56Z</time>
      </trkpt>
      <trkpt lat="48.29439" lon="2.44007">
        <ele>86.3</ele>
        <time>2020-09-06T09:07:57Z</time>
      </trkpt>
      <trkpt lat="48.29442" lon="2.44004">
        <ele>86</ele>
        <time>2020-09-06T09:07:58Z</time>
      </trkpt>
      <trkpt lat="48.29444" lon="2.44">
        <ele>85.9</ele>
        <time>2020-09-06T09:07:59Z</time>
      </trkpt>
      <trkpt lat="48.29445" lon="2.43992">
        <ele>85.7</ele>
        <time>2020-09-06T09:08:00Z</time>
      </trkpt>
      <trkpt lat="48.29446" lon="2.43988">
        <ele>85.6</ele>
        <time>2020-09-06T09:08:01Z</time>
      </trkpt>
      <trkpt lat="48.29447" lon="2.43984">
        <ele>85.4</ele>
        <time>2020-09-06T09:08:02Z</time>
      </trkpt>
      <trkpt lat="48.29448" lon="2.43983">
        <ele>85.3</ele>
        <time>2020-09-06T09:08:03Z</time>
      </trkpt>
      <trkpt lat="48.29448" lon="2.43977">
        <ele>85.3</ele>
        <time>2020-09-06T09:08:04Z</time>
      </trkpt>
      <trkpt lat="48.29447" lon="2.43975">
        <ele>85.3</ele>
        <time>2020-09-06T09:08:05Z</time>
      </trkpt>
      <trkpt lat="48.29446" lon="2.4397">
        <ele>85.2</ele>
        <time>2020-09-06T09:08:06Z</time>
      </trkpt>
      <trkpt lat="48.29445" lon="2.43965">
        <ele>85.2</ele>
        <time>2020-09-06T09:08:07Z</time>
      </trkpt>
      <trkpt lat="48.29444" lon="2.43959">
        <ele>85.2</ele>
        <time>2020-09-06T09:08:08Z</time>
      </trkpt>
      <trkpt lat="48.29442" lon="2.43954">
        <ele>85.1</ele>
        <time>2020-09-06T09:08:09Z</time>
      </trkpt>
      <trkpt lat="48.29441" lon="2.4395">
        <ele>85.2</ele>
        <time>2020-09-06T09:08:10Z</time>
      </trkpt>
      <trkpt lat="48.29439" lon="2.43943">
        <ele>85.2</ele>
        <time>2020-09-06T09:08:11Z</time>
      </trkpt>
      <trkpt lat="48.29438" lon="2.43939">
        <ele>85.2</ele>
        <time>2020-09-06T09:08:12Z</time>
      </trkpt>
      <trkpt lat="48.29437" lon="2.43933">
        <ele>85.2</ele>
        <time>2020-09-06T09:08:13Z</time>
      </trkpt>
      <trkpt lat="48.29437" lon="2.43931">
        <ele>85.1</ele>
        <time>2020-09-06T09:08:14Z</time>
      </trkpt>
      <trkpt lat="48.29437" lon="2.43928">
        <ele>85</ele>
        <time>2020-09-06T09:08:15Z</time>
      </trkpt>
      <trkpt lat="48.29437" lon="2.43926">
        <ele>84.9</ele>
        <time>2020-09-06T09:08:16Z</time>
      </trkpt>
      <trkpt lat="48.29436" lon="2.43925">
        <ele>84.8</ele>
        <time>2020-09-06T09:08:17Z</time>
      </trkpt>
      <trkpt lat="48.29436" lon="2.43925">
        <ele>84.8</ele>
        <time>2020-09-06T09:08:18Z</time>
      </trkpt>
      <trkpt lat="48.29435" lon="2.43925">
        <ele>84.8</ele>
        <time>2020-09-06T09:08:19Z</time>
      </trkpt>
      <trkpt lat="48.29435" lon="2.43924">
        <ele>84.7</ele>
        <time>2020-09-06T09:08:20Z</time>
      </trkpt>
      <trkpt lat="48.29434" lon="2.43924">
        <ele>84.6</ele>
        <time>2020-09-06T09:08:21Z</time>
      </trkpt>
      <trkpt lat="48.29434" lon="2.43923">
        <ele>84.5</ele>
        <time>2020-09-06T09:08:22Z</time>
      </trkpt>
      <trkpt lat="48.29434" lon="2.43922">
        <ele>84.4</ele>
        <time>2020-09-06T09:08:23Z</time>
      </trkpt>
      <trkpt lat="48.29434" lon="2.43921">
        <ele>84.3</ele>
        <time>2020-09-06T09:08:24Z</time>
      </trkpt>
      <trkpt lat="48.29434" lon="2.4392">
        <ele>84.2</ele>
        <time>2020-09-06T09:08:25Z</time>
      </trkpt>
      <trkpt lat="48.29434" lon="2.4392">
        <ele>84.1</ele>
        <time>2020-09-06T09:08:26Z</time>
      </trkpt>
      <trkpt lat="48.29433" lon="2.4392">
        <ele>84</ele>
        <time>2020-09-06T09:08:27Z</time>
      </trkpt>
      <trkpt lat="48.29434" lon="2.4392">
        <ele>83.9</ele>
        <time>2020-09-06T09:08:28Z</time>
      </trkpt>
      <trkpt lat="48.29435" lon="2.4392">
        <ele>83.8</ele>
        <time>2020-09-06T09:08:29Z</time>
      </trkpt>
      <trkpt lat="48.29436" lon="2.4392">
        <ele>83.8</ele>
        <time>2020-09-06T09:08:30Z</time>
      </trkpt>
      <trkpt lat="48.29436" lon="2.4392">
        <ele>83.6</ele>
        <time>2020-09-06T09:08:31Z</time>
      </trkpt>
      <trkpt lat="48.29437" lon="2.4392">
        <ele>83.5</ele>
        <time>2020-09-06T09:08:32Z</time>
      </trkpt>
      <trkpt lat="48.29438" lon="2.4392">
        <ele>83.4</ele>
        <time>2020-09-06T09:08:33Z</time>
      </trkpt>
      <trkpt lat="48.29439" lon="2.4392">
        <ele>83.2</ele>
        <time>2020-09-06T09:08:34Z</time>
      </trkpt>
      <trkpt lat="48.2944" lon="2.4392">
        <ele>83.1</ele>
        <time>2020-09-06T09:08:35Z</time>
      </trkpt>
      <trkpt lat="48.2944" lon="2.4392">
        <ele>83</ele>
        <time>2020-09-06T09:08:36Z</time>
      </trkpt>
      <trkpt lat="48.29441" lon="2.4392">
        <ele>82.9</ele>
        <time>2020-09-06T09:08:50Z</time>
      </trkpt>
      <trkpt lat="48.29442" lon="2.4392">
        <ele>82.7</ele>
        <time>2020-09-06T09:08:51Z</time>
      </trkpt>
      <trkpt lat="48.29443" lon="2.4392">
        <ele>82.6</ele>
        <time>2020-09-06T09:08:52Z</time>
      </trkpt>
      <trkpt lat="48.29445" lon="2.43916">
        <ele>82.4</ele>
        <time>2020-09-06T09:08:53Z</time>
      </trkpt>
      <trkpt lat="48.29446" lon="2.43915">
        <ele>82.4</ele>
        <time>2020-09-06T09:08:54Z</time>
      </trkpt>
      <trkpt lat="48.2945" lon="2.43914">
        <ele>82.1</ele>
        <time>2020-09-06T09:08:55Z</time>
      </trkpt>
      <trkpt lat="48.29452" lon="2.43914">
        <ele>81.9</ele>
        <time>2020-09-06T09:08:56Z</time>
      </trkpt>
      <trkpt lat="48.29454" lon="2.43914">
        <ele>81.8</ele>
        <time>2020-09-06T09:08:57Z</time>
      </trkpt>
      <trkpt lat="48.29457" lon="2.43917">
        <ele>81.6</ele>
        <time>2020-09-06T09:08:58Z</time>
      </trkpt>
      <trkpt lat="48.29457" lon="2.43919">
        <ele>81.5</ele>
        <time>2020-09-06T09:08:59Z</time>
      </trkpt>
      <trkpt lat="48.29457" lon="2.43926">
        <ele>81.4</ele>
        <time>2020-09-06T09:09:00Z</time>
      </trkpt>
      <trkpt lat="48.29458" lon="2.43933">
        <ele>81.3</ele>
        <time>2020-09-06T09:09:01Z</time>
      </trkpt>
      <trkpt lat="48.29459" lon="2.43942">
        <ele>81.1</ele>
        <time>2020-09-06T09:09:02Z</time>
      </trkpt>
      <trkpt lat="48.29461" lon="2.43948">
        <ele>80.9</ele>
        <time>2020-09-06T09:09:03Z</time>
      </trkpt>
      <trkpt lat="48.29462" lon="2.43955">
        <ele>80.7</ele>
        <time>2020-09-06T09:09:04Z</time>
      </trkpt>
      <trkpt lat="48.29463" lon="2.43961">
        <ele>80.5</ele>
        <time>2020-09-06T09:09:05Z</time>
      </trkpt>
      <trkpt lat="48.29464" lon="2.43966">
        <ele>80.4</ele>
        <time>2020-09-06T09:09:06Z</time>
      </trkpt>
      <trkpt lat="48.29465" lon="2.43967">
        <ele>80.1</ele>
        <time>2020-09-06T09:09:07Z</time>
      </trkpt>
      <trkpt lat="48.29466" lon="2.43972">
        <ele>80</ele>
        <time>2020-09-06T09:09:08Z</time>
      </trkpt>
      <trkpt lat="48.29467" lon="2.43976">
        <ele>79.6</ele>
        <time>2020-09-06T09:09:09Z</time>
      </trkpt>
      <trkpt lat="48.29467" lon="2.43977">
        <ele>79.6</ele>
        <time>2020-09-06T09:09:10Z</time>
      </trkpt>
      <trkpt lat="48.29468" lon="2.43983">
        <ele>79.4</ele>
        <time>2020-09-06T09:09:11Z</time>
      </trkpt>
      <trkpt lat="48.29468" lon="2.43984">
        <ele>79.3</ele>
        <time>2020-09-06T09:09:12Z</time>
      </trkpt>
      <trkpt lat="48.29468" lon="2.4399">
        <ele>79.1</ele>
        <time>2020-09-06T09:09:13Z</time>
      </trkpt>
      <trkpt lat="48.29469" lon="2.43991">
        <ele>79</ele>
        <time>2020-09-06T09:09:14Z</time>
      </trkpt>
      <trkpt lat="48.2947" lon="2.43995">
        <ele>78.7</ele>
        <time>2020-09-06T09:09:15Z</time>
      </trkpt>
      <trkpt lat="48.29472" lon="2.43999">
        <ele>78.6</ele>
        <time>2020-09-06T09:09:16Z</time>
      </trkpt>
      <trkpt lat="48.29475" lon="2.44001">
        <ele>78.4</ele>
        <time>2020-09-06T09:09:17Z</time>
      </trkpt>
      <trkpt lat="48.29477" lon="2.44002">
        <ele>78.3</ele>
        <time>2020-09-06T09:09:18Z</time>
      </trkpt>
      <trkpt lat="48.29478" lon="2.43999">
        <ele>78.1</ele>
        <time>2020-09-06T09:09:19Z</time>
      </trkpt>
      <trkpt lat="48.29481" lon="2.43994">
        <ele>77.9</ele>
        <time>2020-09-06T09:09:20Z</time>
      </trkpt>
      <trkpt lat="48.29481" lon="2.43992">
        <ele>77.8</ele>
        <time>2020-09-06T09:09:21Z</time>
      </trkpt>
      <trkpt lat="48.29483" lon="2.43985">
        <ele>77.5</ele>
        <time>2020-09-06T09:09:22Z</time>
      </trkpt>
      <trkpt lat="48.29485" lon="2.43977">
        <ele>77.1</ele>
        <time>2020-09-06T09:09:23Z</time>
      </trkpt>
      <trkpt lat="48.29487" lon="2.43967">
        <ele>76.7</ele>
        <time>2020-09-06T09:09:24Z</time>
      </trkpt>
      <trkpt lat="48.29491" lon="2.43958">
        <ele>76.3</ele>
        <time>2020-09-06T09:09:25Z</time>
      </trkpt>
      <trkpt lat="48.29493" lon="2.43948">
        <ele>75.9</ele>
        <time>2020-09-06T09:09:26Z</time>
      </trkpt>
      <trkpt lat="48.29495" lon="2.43941">
        <ele>76</ele>
        <time>2020-09-06T09:09:27Z</time>
      </trkpt>
      <trkpt lat="48.29495" lon="2.4393">
        <ele>76</ele>
        <time>2020-09-06T09:09:28Z</time>
      </trkpt>
      <trkpt lat="48.29495" lon="2.43921">
        <ele>76</ele>
        <time>2020-09-06T09:09:29Z</time>
      </trkpt>
      <trkpt lat="48.29494" lon="2.43912">
        <ele>76</ele>
        <time>2020-09-06T09:09:30Z</time>
      </trkpt>
      <trkpt lat="48.29494" lon="2.43903">
        <ele>76</ele>
        <time>2020-09-06T09:09:31Z</time>
      </trkpt>
      <trkpt lat="48.29492" lon="2.43894">
        <ele>76</ele>
        <time>2020-09-06T09:09:32Z</time>
      </trkpt>
      <trkpt lat="48.2949" lon="2.43884">
        <ele>76</ele>
        <time>2020-09-06T09:09:33Z</time>
      </trkpt>
      <trkpt lat="48.29488" lon="2.43876">
        <ele>76.1</ele>
        <time>2020-09-06T09:09:34Z</time>
      </trkpt>
      <trkpt lat="48.29486" lon="2.43868">
        <ele>76.1</ele>
        <time>2020-09-06T09:09:35Z</time>
      </trkpt>
      <trkpt lat="48.29484" lon="2.43861">
        <ele>76.1</ele>
        <time>2020-09-06T09:09:36Z</time>
      </trkpt>
      <trkpt lat="48.29482" lon="2.43856">
        <ele>76.1</ele>
        <time>2020-09-06T09:09:37Z</time>
      </trkpt>
      <trkpt lat="48.29479" lon="2.43853">
        <ele>76.1</ele>
        <time>2020-09-06T09:09:38Z</time>
      </trkpt>
      <trkpt lat="48.29476" lon="2.43849">
        <ele>76.1</ele>
        <time>2020-09-06T09:09:39Z</time>
      </trkpt>
      <trkpt lat="48.29476" lon="2.43848">
        <ele>76.1</ele>
        <time>2020-09-06T09:09:40Z</time>
      </trkpt>
      <trkpt lat="48.29475" lon="2.43847">
        <ele>76.1</ele>
        <time>2020-09-06T09:09:41Z</time>
      </trkpt>
      <trkpt lat="48.29474" lon="2.43844">
        <ele>76.1</ele>
        <time>2020-09-06T09:09:42Z</time>
      </trkpt>
      <trkpt lat="48.29472" lon="2.4384">
        <ele>76.1</ele>
        <time>2020-09-06T09:09:43Z</time>
      </trkpt>
      <trkpt lat="48.29471" lon="2.43838">
        <ele>76.1</ele>
        <time>2020-09-06T09:09:44Z</time>
      </trkpt>
      <trkpt lat="48.2947" lon="2.43833">
        <ele>76.2</ele>
        <time>2020-09-06T09:09:45Z</time>
      </trkpt>
      <trkpt lat="48.29469" lon="2.43831">
        <ele>76.2</ele>
        <time>2020-09-06T09:09:46Z</time>
      </trkpt>
      <trkpt lat="48.29467" lon="2.43826">
        <ele>76.2</ele>
        <time>2020-09-06T09:09:47Z</time>
      </trkpt>
      <trkpt lat="48.29465" lon="2.43822">
        <ele>76.2</ele>
        <time>2020-09-06T09:09:48Z</time>
      </trkpt>
      <trkpt lat="48.29462" lon="2.4382">
        <ele>76.3</ele>
        <time>2020-09-06T09:09:49Z</time>
      </trkpt>
      <trkpt lat="48.29462" lon="2.4382">
        <ele>76.3</ele>
        <time>2020-09-06T09:09:50Z</time>
      </trkpt>
      <trkpt lat="48.29459" lon="2.43818">
        <ele>76.3</ele>
        <time>2020-09-06T09:09:51Z</time>
      </trkpt>
      <trkpt lat="48.29458" lon="2.43818">
        <ele>76.3</ele>
        <time>2020-09-06T09:09:52Z</time>
      </trkpt>
      <trkpt lat="48.29457" lon="2.43818">
        <ele>76.3</ele>
        <time>2020-09-06T09:09:53Z</time>
      </trkpt>
      <trkpt lat="48.29456" lon="2.43819">
        <ele>76.3</ele>
        <time>2020-09-06T09:09:54Z</time>
      </trkpt>
      <trkpt lat="48.29455" lon="2.43819">
        <ele>76.3</ele>
        <time>2020-09-06T09:09:55Z</time>
      </trkpt>
      <trkpt lat="48.29454" lon="2.43818">
        <ele>76.4</ele>
        <time>2020-09-06T09:09:56Z</time>
      </trkpt>
      <trkpt lat="48.29452" lon="2.43817">
        <ele>76.4</ele>
        <time>2020-09-06T09:09:57Z</time>
      </trkpt>
      <trkpt lat="48.29449" lon="2.43815">
        <ele>76.4</ele>
        <time>2020-09-06T09:09:58Z</time>
      </trkpt>
      <trkpt lat="48.29448" lon="2.43815">
        <ele>76.4</ele>
        <time>2020-09-06T09:09:59Z</time>
      </trkpt>
      <trkpt lat="48.29446" lon="2.43812">
        <ele>76.5</ele>
        <time>2020-09-06T09:10:00Z</time>
      </trkpt>
      <trkpt lat="48.29444" lon="2.43807">
        <ele>76.5</ele>
        <time>2020-09-06T09:10:01Z</time>
      </trkpt>
      <trkpt lat="48.29444" lon="2.43802">
        <ele>76.5</ele>
        <time>2020-09-06T09:10:02Z</time>
      </trkpt>
      <trkpt lat="48.29444" lon="2.438">
        <ele>76.5</ele>
        <time>2020-09-06T09:10:03Z</time>
      </trkpt>
      <trkpt lat="48.29444" lon="2.43796">
        <ele>76.5</ele>
        <time>2020-09-06T09:10:04Z</time>
      </trkpt>
      <trkpt lat="48.29444" lon="2.43793">
        <ele>76.5</ele>
        <time>2020-09-06T09:10:05Z</time>
      </trkpt>
      <trkpt lat="48.29444" lon="2.43792">
        <ele>76.5</ele>
        <time>2020-09-06T09:10:06Z</time>
      </trkpt>
      <trkpt lat="48.29445" lon="2.43793">
        <ele>76.5</ele>
        <time>2020-09-06T09:10:07Z</time>
      </trkpt>
      <trkpt lat="48.29445" lon="2.43796">
        <ele>76.5</ele>
        <time>2020-09-06T09:10:08Z</time>
      </trkpt>
      <trkpt lat="48.29445" lon="2.43796">
        <ele>76.5</ele>
        <time>2020-09-06T09:10:09Z</time>
      </trkpt>
      <trkpt lat="48.29445" lon="2.43795">
        <ele>76.5</ele>
        <time>2020-09-06T09:10:10Z</time>
      </trkpt>
      <trkpt lat="48.29445" lon="2.43794">
        <ele>76.5</ele>
        <time>2020-09-06T09:10:11Z</time>
      </trkpt>
      <trkpt lat="48.29445" lon="2.43791">
        <ele>76.5</ele>
        <time>2020-09-06T09:10:12Z</time>
      </trkpt>
      <trkpt lat="48.29446" lon="2.43788">
        <ele>76.6</ele>
        <time>2020-09-06T09:10:13Z</time>
      </trkpt>
      <trkpt lat="48.29447" lon="2.43789">
        <ele>76.6</ele>
        <time>2020-09-06T09:10:14Z</time>
      </trkpt>
      <trkpt lat="48.29449" lon="2.43791">
        <ele>76.5</ele>
        <time>2020-09-06T09:10:15Z</time>
      </trkpt>
      <trkpt lat="48.29452" lon="2.43794">
        <ele>76.5</ele>
        <time>2020-09-06T09:10:16Z</time>
      </trkpt>
      <trkpt lat="48.29454" lon="2.43798">
        <ele>76.5</ele>
        <time>2020-09-06T09:10:17Z</time>
      </trkpt>
      <trkpt lat="48.29455" lon="2.43802">
        <ele>76.5</ele>
        <time>2020-09-06T09:10:18Z</time>
      </trkpt>
      <trkpt lat="48.29456" lon="2.43807">
        <ele>76.5</ele>
        <time>2020-09-06T09:10:19Z</time>
      </trkpt>
      <trkpt lat="48.29456" lon="2.43809">
        <ele>76.5</ele>
        <time>2020-09-06T09:10:20Z</time>
      </trkpt>
      <trkpt lat="48.29458" lon="2.4381">
        <ele>76.5</ele>
        <time>2020-09-06T09:10:21Z</time>
      </trkpt>
      <trkpt lat="48.29459" lon="2.43811">
        <ele>76.4</ele>
        <time>2020-09-06T09:10:22Z</time>
      </trkpt>
      <trkpt lat="48.29462" lon="2.43813">
        <ele>76.4</ele>
        <time>2020-09-06T09:10:23Z</time>
      </trkpt>
      <trkpt lat="48.29463" lon="2.43814">
        <ele>76.4</ele>
        <time>2020-09-06T09:10:24Z</time>
      </trkpt>
      <trkpt lat="48.29466" lon="2.43816">
        <ele>76.4</ele>
        <time>2020-09-06T09:10:25Z</time>
      </trkpt>
      <trkpt lat="48.29467" lon="2.4382">
        <ele>76.3</ele>
        <time>2020-09-06T09:10:26Z</time>
      </trkpt>
      <trkpt lat="48.29468" lon="2.43826">
        <ele>76.3</ele>
        <time>2020-09-06T09:10:27Z</time>
      </trkpt>
      <trkpt lat="48.29471" lon="2.4383">
        <ele>76.3</ele>
        <time>2020-09-06T09:10:28Z</time>
      </trkpt>
      <trkpt lat="48.29473" lon="2.43834">
        <ele>76.2</ele>
        <time>2020-09-06T09:10:29Z</time>
      </trkpt>
      <trkpt lat="48.29474" lon="2.43839">
        <ele>76.2</ele>
        <time>2020-09-06T09:10:30Z</time>
      </trkpt>
      <trkpt lat="48.29475" lon="2.43846">
        <ele>76.2</ele>
        <time>2020-09-06T09:10:31Z</time>
      </trkpt>
      <trkpt lat="48.29477" lon="2.43852">
        <ele>76.2</ele>
        <time>2020-09-06T09:10:32Z</time>
      </trkpt>
      <trkpt lat="48.29479" lon="2.43857">
        <ele>76.1</ele>
        <time>2020-09-06T09:10:33Z</time>
      </trkpt>
      <trkpt lat="48.2948" lon="2.43862">
        <ele>76.1</ele>
        <time>2020-09-06T09:10:34Z</time>
      </trkpt>
      <trkpt lat="48.29481" lon="2.43868">
        <ele>76.1</ele>
        <time>2020-09-06T09:10:35Z</time>
      </trkpt>
      <trkpt lat="48.29481" lon="2.43873">
        <ele>76.1</ele>
        <time>2020-09-06T09:10:36Z</time>
      </trkpt>
      <trkpt lat="48.29483" lon="2.43877">
        <ele>76.1</ele>
        <time>2020-09-06T09:10:37Z</time>
      </trkpt>
      <trkpt lat="48.29485" lon="2.43878">
        <ele>76.1</ele>
        <time>2020-09-06T09:10:38Z</time>
      </trkpt>
      <trkpt lat="48.29486" lon="2.43876">
        <ele>76.1</ele>
        <time>2020-09-06T09:10:39Z</time>
      </trkpt>
      <trkpt lat="48.29487" lon="2.43872">
        <ele>76.1</ele>
        <time>2020-09-06T09:10:40Z</time>
      </trkpt>
      <trkpt lat="48.29491" lon="2.43867">
        <ele>76.1</ele>
        <time>2020-09-06T09:10:41Z</time>
      </trkpt>
      <trkpt lat="48.29494" lon="2.4386">
        <ele>76.1</ele>
        <time>2020-09-06T09:10:42Z</time>
      </trkpt>
      <trkpt lat="48.29494" lon="2.43851">
        <ele>76.1</ele>
        <time>2020-09-06T09:10:43Z</time>
      </trkpt>
      <trkpt lat="48.29468" lon="2.43773">
        <ele>77.1</ele>
        <time>2020-09-06T09:13:05Z</time>
      </trkpt>
      <trkpt lat="48.29467" lon="2.43775">
        <ele>77.1</ele>
        <time>2020-09-06T09:13:06Z</time>
      </trkpt>
      <trkpt lat="48.29465" lon="2.43775">
        <ele>77.2</ele>
        <time>2020-09-06T09:13:07Z</time>
      </trkpt>
      <trkpt lat="48.29462" lon="2.43775">
        <ele>77.3</ele>
        <time>2020-09-06T09:13:08Z</time>
      </trkpt>
      <trkpt lat="48.29461" lon="2.43774">
        <ele>77.3</ele>
        <time>2020-09-06T09:13:09Z</time>
      </trkpt>
      <trkpt lat="48.2946" lon="2.43771">
        <ele>77.4</ele>
        <time>2020-09-06T09:13:10Z</time>
      </trkpt>
      <trkpt lat="48.29456" lon="2.43767">
        <ele>77.5</ele>
        <time>2020-09-06T09:13:11Z</time>
      </trkpt>
      <trkpt lat="48.29453" lon="2.43765">
        <ele>77.7</ele>
        <time>2020-09-06T09:13:12Z</time>
      </trkpt>
      <trkpt lat="48.29448" lon="2.43765">
        <ele>77.9</ele>
        <time>2020-09-06T09:13:13Z</time>
      </trkpt>
      <trkpt lat="48.29444" lon="2.43767">
        <ele>78.1</ele>
        <time>2020-09-06T09:13:14Z</time>
      </trkpt>
      <trkpt lat="48.2944" lon="2.43768">
        <ele>78.3</ele>
        <time>2020-09-06T09:13:15Z</time>
      </trkpt>
      <trkpt lat="48.29437" lon="2.43768">
        <ele>78.5</ele>
        <time>2020-09-06T09:13:16Z</time>
      </trkpt>
      <trkpt lat="48.29434" lon="2.4377">
        <ele>78.7</ele>
        <time>2020-09-06T09:13:17Z</time>
      </trkpt>
      <trkpt lat="48.29433" lon="2.43771">
        <ele>78.7</ele>
        <time>2020-09-06T09:13:18Z</time>
      </trkpt>
      <trkpt lat="48.29431" lon="2.43776">
        <ele>79</ele>
        <time>2020-09-06T09:13:19Z</time>
      </trkpt>
      <trkpt lat="48.2943" lon="2.43778">
        <ele>79.1</ele>
        <time>2020-09-06T09:13:20Z</time>
      </trkpt>
      <trkpt lat="48.2943" lon="2.43783">
        <ele>79.3</ele>
        <time>2020-09-06T09:13:21Z</time>
      </trkpt>
      <trkpt lat="48.29429" lon="2.43785">
        <ele>79.4</ele>
        <time>2020-09-06T09:13:22Z</time>
      </trkpt>
      <trkpt lat="48.29428" lon="2.43789">
        <ele>79.8</ele>
        <time>2020-09-06T09:13:23Z</time>
      </trkpt>
      <trkpt lat="48.29427" lon="2.4379">
        <ele>80</ele>
        <time>2020-09-06T09:13:24Z</time>
      </trkpt>
      <trkpt lat="48.29427" lon="2.43791">
        <ele>80.3</ele>
        <time>2020-09-06T09:13:25Z</time>
      </trkpt>
      <trkpt lat="48.29425" lon="2.43793">
        <ele>80.7</ele>
        <time>2020-09-06T09:13:26Z</time>
      </trkpt>
      <trkpt lat="48.29424" lon="2.43796">
        <ele>81</ele>
        <time>2020-09-06T09:13:27Z</time>
      </trkpt>
      <trkpt lat="48.29424" lon="2.43797">
        <ele>81.2</ele>
        <time>2020-09-06T09:13:28Z</time>
      </trkpt>
      <trkpt lat="48.29424" lon="2.43797">
        <ele>81.3</ele>
        <time>2020-09-06T09:13:29Z</time>
      </trkpt>
      <trkpt lat="48.29424" lon="2.43797">
        <ele>81.4</ele>
        <time>2020-09-06T09:13:30Z</time>
      </trkpt>
      <trkpt lat="48.29423" lon="2.43796">
        <ele>81.5</ele>
        <time>2020-09-06T09:13:31Z</time>
      </trkpt>
      <trkpt lat="48.29422" lon="2.43798">
        <ele>81.8</ele>
        <time>2020-09-06T09:13:32Z</time>
      </trkpt>
      <trkpt lat="48.2942" lon="2.43799">
        <ele>82.1</ele>
        <time>2020-09-06T09:13:33Z</time>
      </trkpt>
      <trkpt lat="48.29417" lon="2.43802">
        <ele>82.9</ele>
        <time>2020-09-06T09:13:34Z</time>
      </trkpt>
      <trkpt lat="48.29416" lon="2.43803">
        <ele>83.1</ele>
        <time>2020-09-06T09:13:35Z</time>
      </trkpt>
      <trkpt lat="48.29413" lon="2.43806">
        <ele>83.8</ele>
        <time>2020-09-06T09:13:36Z</time>
      </trkpt>
      <trkpt lat="48.29412" lon="2.43807">
        <ele>84.1</ele>
        <time>2020-09-06T09:13:37Z</time>
      </trkpt>
      <trkpt lat="48.29409" lon="2.4381">
        <ele>84.6</ele>
        <time>2020-09-06T09:13:38Z</time>
      </trkpt>
      <trkpt lat="48.29408" lon="2.43811">
        <ele>84.7</ele>
        <time>2020-09-06T09:13:39Z</time>
      </trkpt>
      <trkpt lat="48.29406" lon="2.43814">
        <ele>85.1</ele>
        <time>2020-09-06T09:13:40Z</time>
      </trkpt>
      <trkpt lat="48.29405" lon="2.43817">
        <ele>85.4</ele>
        <time>2020-09-06T09:13:41Z</time>
      </trkpt>
      <trkpt lat="48.29404" lon="2.43819">
        <ele>85.6</ele>
        <time>2020-09-06T09:13:42Z</time>
      </trkpt>
      <trkpt lat="48.29403" lon="2.43822">
        <ele>85.9</ele>
        <time>2020-09-06T09:13:43Z</time>
      </trkpt>
      <trkpt lat="48.29402" lon="2.43826">
        <ele>86.1</ele>
        <time>2020-09-06T09:13:44Z</time>
      </trkpt>
      <trkpt lat="48.29401" lon="2.43831">
        <ele>86.2</ele>
        <time>2020-09-06T09:13:45Z</time>
      </trkpt>
      <trkpt lat="48.29401" lon="2.43832">
        <ele>86.3</ele>
        <time>2020-09-06T09:13:46Z</time>
      </trkpt>
      <trkpt lat="48.29401" lon="2.43836">
        <ele>86.3</ele>
        <time>2020-09-06T09:13:47Z</time>
      </trkpt>
      <trkpt lat="48.29401" lon="2.43838">
        <ele>86.4</ele>
        <time>2020-09-06T09:13:48Z</time>
      </trkpt>
      <trkpt lat="48.294" lon="2.43841">
        <ele>86.4</ele>
        <time>2020-09-06T09:13:49Z</time>
      </trkpt>
      <trkpt lat="48.29401" lon="2.43843">
        <ele>86.5</ele>
        <time>2020-09-06T09:13:50Z</time>
      </trkpt>
      <trkpt lat="48.29403" lon="2.43847">
        <ele>86.7</ele>
        <time>2020-09-06T09:13:51Z</time>
      </trkpt>
      <trkpt lat="48.29404" lon="2.43849">
        <ele>86.7</ele>
        <time>2020-09-06T09:13:52Z</time>
      </trkpt>
      <trkpt lat="48.29407" lon="2.43849">
        <ele>86.9</ele>
        <time>2020-09-06T09:13:53Z</time>
      </trkpt>
      <trkpt lat="48.29411" lon="2.4385">
        <ele>86.9</ele>
        <time>2020-09-06T09:13:54Z</time>
      </trkpt>
      <trkpt lat="48.29414" lon="2.43849">
        <ele>86.8</ele>
        <time>2020-09-06T09:13:55Z</time>
      </trkpt>
      <trkpt lat="48.29418" lon="2.43847">
        <ele>86.8</ele>
        <time>2020-09-06T09:13:56Z</time>
      </trkpt>
      <trkpt lat="48.29421" lon="2.43845">
        <ele>86.7</ele>
        <time>2020-09-06T09:13:57Z</time>
      </trkpt>
      <trkpt lat="48.29423" lon="2.43844">
        <ele>86.6</ele>
        <time>2020-09-06T09:13:58Z</time>
      </trkpt>
      <trkpt lat="48.29424" lon="2.43842">
        <ele>86.6</ele>
        <time>2020-09-06T09:13:59Z</time>
      </trkpt>
      <trkpt lat="48.29425" lon="2.43842">
        <ele>86.6</ele>
        <time>2020-09-06T09:14:00Z</time>
      </trkpt>
      <trkpt lat="48.29426" lon="2.43843">
        <ele>86.6</ele>
        <time>2020-09-06T09:14:01Z</time>
      </trkpt>
      <trkpt lat="48.29427" lon="2.43844">
        <ele>86.6</ele>
        <time>2020-09-06T09:14:02Z</time>
      </trkpt>
      <trkpt lat="48.29428" lon="2.43848">
        <ele>86.6</ele>
        <time>2020-09-06T09:14:03Z</time>
      </trkpt>
      <trkpt lat="48.29428" lon="2.4385">
        <ele>86.7</ele>
        <time>2020-09-06T09:14:04Z</time>
      </trkpt>
      <trkpt lat="48.29428" lon="2.43854">
        <ele>86.9</ele>
        <time>2020-09-06T09:14:05Z</time>
      </trkpt>
      <trkpt lat="48.29429" lon="2.43858">
        <ele>87</ele>
        <time>2020-09-06T09:14:06Z</time>
      </trkpt>
      <trkpt lat="48.29429" lon="2.43861">
        <ele>87</ele>
        <time>2020-09-06T09:14:07Z</time>
      </trkpt>
      <trkpt lat="48.29427" lon="2.43862">
        <ele>87</ele>
        <time>2020-09-06T09:14:08Z</time>
      </trkpt>
      <trkpt lat="48.29424" lon="2.43862">
        <ele>87.1</ele>
        <time>2020-09-06T09:14:09Z</time>
      </trkpt>
      <trkpt lat="48.29422" lon="2.43861">
        <ele>87.1</ele>
        <time>2020-09-06T09:14:10Z</time>
      </trkpt>
      <trkpt lat="48.29419" lon="2.43862">
        <ele>87.1</ele>
        <time>2020-09-06T09:14:11Z</time>
      </trkpt>
      <trkpt lat="48.29418" lon="2.43862">
        <ele>87.1</ele>
        <time>2020-09-06T09:14:12Z</time>
      </trkpt>
      <trkpt lat="48.29415" lon="2.43862">
        <ele>87.1</ele>
        <time>2020-09-06T09:14:13Z</time>
      </trkpt>
      <trkpt lat="48.29412" lon="2.4386">
        <ele>87.1</ele>
        <time>2020-09-06T09:14:14Z</time>
      </trkpt>
      <trkpt lat="48.29408" lon="2.43856">
        <ele>87</ele>
        <time>2020-09-06T09:14:15Z</time>
      </trkpt>
      <trkpt lat="48.29405" lon="2.43855">
        <ele>87</ele>
        <time>2020-09-06T09:14:16Z</time>
      </trkpt>
      <trkpt lat="48.29402" lon="2.43853">
        <ele>86.8</ele>
        <time>2020-09-06T09:14:17Z</time>
      </trkpt>
      <trkpt lat="48.29399" lon="2.43853">
        <ele>86.7</ele>
        <time>2020-09-06T09:14:18Z</time>
      </trkpt>
      <trkpt lat="48.29395" lon="2.43853">
        <ele>86.5</ele>
        <time>2020-09-06T09:14:19Z</time>
      </trkpt>
      <trkpt lat="48.29392" lon="2.43855">
        <ele>86.5</ele>
        <time>2020-09-06T09:14:20Z</time>
      </trkpt>
      <trkpt lat="48.29388" lon="2.43859">
        <ele>86.6</ele>
        <time>2020-09-06T09:14:21Z</time>
      </trkpt>
      <trkpt lat="48.29386" lon="2.43864">
        <ele>86.6</ele>
        <time>2020-09-06T09:14:22Z</time>
      </trkpt>
      <trkpt lat="48.29385" lon="2.4387">
        <ele>86.8</ele>
        <time>2020-09-06T09:14:23Z</time>
      </trkpt>
      <trkpt lat="48.29384" lon="2.43875">
        <ele>86.8</ele>
        <time>2020-09-06T09:14:24Z</time>
      </trkpt>
      <trkpt lat="48.29383" lon="2.43877">
        <ele>87</ele>
        <time>2020-09-06T09:14:25Z</time>
      </trkpt>
      <trkpt lat="48.29382" lon="2.43881">
        <ele>87.2</ele>
        <time>2020-09-06T09:14:26Z</time>
      </trkpt>
      <trkpt lat="48.29381" lon="2.43883">
        <ele>87.1</ele>
        <time>2020-09-06T09:14:27Z</time>
      </trkpt>
      <trkpt lat="48.29382" lon="2.43886">
        <ele>87.3</ele>
        <time>2020-09-06T09:14:28Z</time>
      </trkpt>
      <trkpt lat="48.29382" lon="2.43888">
        <ele>87.4</ele>
        <time>2020-09-06T09:14:29Z</time>
      </trkpt>
      <trkpt lat="48.29385" lon="2.43889">
        <ele>87.8</ele>
        <time>2020-09-06T09:14:30Z</time>
      </trkpt>
      <trkpt lat="48.29387" lon="2.43889">
        <ele>87.8</ele>
        <time>2020-09-06T09:14:31Z</time>
      </trkpt>
      <trkpt lat="48.29392" lon="2.43887">
        <ele>87.8</ele>
        <time>2020-09-06T09:14:32Z</time>
      </trkpt>
      <trkpt lat="48.29394" lon="2.43887">
        <ele>87.9</ele>
        <time>2020-09-06T09:14:33Z</time>
      </trkpt>
      <trkpt lat="48.29394" lon="2.43889">
        <ele>88</ele>
        <time>2020-09-06T09:14:34Z</time>
      </trkpt>
      <trkpt lat="48.29394" lon="2.43891">
        <ele>88</ele>
        <time>2020-09-06T09:14:35Z</time>
      </trkpt>
      <trkpt lat="48.29395" lon="2.43893">
        <ele>88.2</ele>
        <time>2020-09-06T09:14:36Z</time>
      </trkpt>
      <trkpt lat="48.29396" lon="2.43893">
        <ele>88.3</ele>
        <time>2020-09-06T09:14:37Z</time>
      </trkpt>
      <trkpt lat="48.29397" lon="2.43892">
        <ele>88.3</ele>
        <time>2020-09-06T09:14:38Z</time>
      </trkpt>
      <trkpt lat="48.29398" lon="2.43892">
        <ele>88.1</ele>
        <time>2020-09-06T09:14:39Z</time>
      </trkpt>
      <trkpt lat="48.29398" lon="2.43891">
        <ele>88.1</ele>
        <time>2020-09-06T09:14:40Z</time>
      </trkpt>
      <trkpt lat="48.294" lon="2.43889">
        <ele>88.1</ele>
        <time>2020-09-06T09:14:41Z</time>
      </trkpt>
      <trkpt lat="48.29401" lon="2.43888">
        <ele>87.9</ele>
        <time>2020-09-06T09:14:42Z</time>
      </trkpt>
      <trkpt lat="48.29402" lon="2.43888">
        <ele>88</ele>
        <time>2020-09-06T09:14:43Z</time>
      </trkpt>
      <trkpt lat="48.29403" lon="2.43887">
        <ele>88</ele>
        <time>2020-09-06T09:14:44Z</time>
      </trkpt>
      <trkpt lat="48.29406" lon="2.43888">
        <ele>88.2</ele>
        <time>2020-09-06T09:14:45Z</time>
      </trkpt>
      <trkpt lat="48.29419" lon="2.43883">
        <ele>87.5</ele>
        <time>2020-09-06T09:15:33Z</time>
      </trkpt>
      <trkpt lat="48.2942" lon="2.43882">
        <ele>87.5</ele>
        <time>2020-09-06T09:15:34Z</time>
      </trkpt>
      <trkpt lat="48.29421" lon="2.43882">
        <ele>87.5</ele>
        <time>2020-09-06T09:15:35Z</time>
      </trkpt>
      <trkpt lat="48.29422" lon="2.43883">
        <ele>87.4</ele>
        <time>2020-09-06T09:15:36Z</time>
      </trkpt>
      <trkpt lat="48.29422" lon="2.43882">
        <ele>87.4</ele>
        <time>2020-09-06T09:15:37Z</time>
      </trkpt>
      <trkpt lat="48.29422" lon="2.43883">
        <ele>87.4</ele>
        <time>2020-09-06T09:15:38Z</time>
      </trkpt>
      <trkpt lat="48.29421" lon="2.43884">
        <ele>87.6</ele>
        <time>2020-09-06T09:15:39Z</time>
      </trkpt>
      <trkpt lat="48.2942" lon="2.43886">
        <ele>87.6</ele>
        <time>2020-09-06T09:15:40Z</time>
      </trkpt>
      <trkpt lat="48.2942" lon="2.43888">
        <ele>87.8</ele>
        <time>2020-09-06T09:15:41Z</time>
      </trkpt>
      <trkpt lat="48.2942" lon="2.43891">
        <ele>87.8</ele>
        <time>2020-09-06T09:15:42Z</time>
      </trkpt>
      <trkpt lat="48.29419" lon="2.43894">
        <ele>88</ele>
        <time>2020-09-06T09:15:43Z</time>
      </trkpt>
      <trkpt lat="48.29418" lon="2.43896">
        <ele>88</ele>
        <time>2020-09-06T09:15:44Z</time>
      </trkpt>
      <trkpt lat="48.29418" lon="2.43897">
        <ele>88.2</ele>
        <time>2020-09-06T09:15:45Z</time>
      </trkpt>
      <trkpt lat="48.29417" lon="2.439">
        <ele>88.2</ele>
        <time>2020-09-06T09:15:46Z</time>
      </trkpt>
      <trkpt lat="48.29416" lon="2.43901">
        <ele>88.4</ele>
        <time>2020-09-06T09:15:47Z</time>
      </trkpt>
      <trkpt lat="48.29416" lon="2.43902">
        <ele>88.4</ele>
        <time>2020-09-06T09:15:48Z</time>
      </trkpt>
      <trkpt lat="48.29415" lon="2.43903">
        <ele>88.5</ele>
        <time>2020-09-06T09:15:49Z</time>
      </trkpt>
      <trkpt lat="48.29413" lon="2.43904">
        <ele>88.5</ele>
        <time>2020-09-06T09:15:50Z</time>
      </trkpt>
      <trkpt lat="48.29411" lon="2.43906">
        <ele>88.7</ele>
        <time>2020-09-06T09:15:51Z</time>
      </trkpt>
      <trkpt lat="48.2941" lon="2.43907">
        <ele>88.7</ele>
        <time>2020-09-06T09:15:52Z</time>
      </trkpt>
      <trkpt lat="48.29408" lon="2.43906">
        <ele>88.7</ele>
        <time>2020-09-06T09:15:53Z</time>
      </trkpt>
      <trkpt lat="48.29407" lon="2.43906">
        <ele>88.8</ele>
        <time>2020-09-06T09:15:54Z</time>
      </trkpt>
      <trkpt lat="48.29406" lon="2.43906">
        <ele>88.8</ele>
        <time>2020-09-06T09:15:55Z</time>
      </trkpt>
      <trkpt lat="48.29404" lon="2.43905">
        <ele>88.6</ele>
        <time>2020-09-06T09:15:56Z</time>
      </trkpt>
      <trkpt lat="48.29403" lon="2.43906">
        <ele>88.8</ele>
        <time>2020-09-06T09:15:57Z</time>
      </trkpt>
      <trkpt lat="48.29402" lon="2.43906">
        <ele>88.8</ele>
        <time>2020-09-06T09:15:58Z</time>
      </trkpt>
      <trkpt lat="48.294" lon="2.43905">
        <ele>88.6</ele>
        <time>2020-09-06T09:15:59Z</time>
      </trkpt>
      <trkpt lat="48.29399" lon="2.43904">
        <ele>88.6</ele>
        <time>2020-09-06T09:16:00Z</time>
      </trkpt>
      <trkpt lat="48.29395" lon="2.43904">
        <ele>88.5</ele>
        <time>2020-09-06T09:16:01Z</time>
      </trkpt>
      <trkpt lat="48.29394" lon="2.43904">
        <ele>88.5</ele>
        <time>2020-09-06T09:16:02Z</time>
      </trkpt>
      <trkpt lat="48.29391" lon="2.43905">
        <ele>88.4</ele>
        <time>2020-09-06T09:16:03Z</time>
      </trkpt>
      <trkpt lat="48.2939" lon="2.43905">
        <ele>88.3</ele>
        <time>2020-09-06T09:16:04Z</time>
      </trkpt>
      <trkpt lat="48.29387" lon="2.43904">
        <ele>88.2</ele>
        <time>2020-09-06T09:16:05Z</time>
      </trkpt>
      <trkpt lat="48.29384" lon="2.43905">
        <ele>88.3</ele>
        <time>2020-09-06T09:16:06Z</time>
      </trkpt>
      <trkpt lat="48.29382" lon="2.43906">
        <ele>88.3</ele>
        <time>2020-09-06T09:16:07Z</time>
      </trkpt>
      <trkpt lat="48.29379" lon="2.43907">
        <ele>88.2</ele>
        <time>2020-09-06T09:16:08Z</time>
      </trkpt>
      <trkpt lat="48.29376" lon="2.4391">
        <ele>88.1</ele>
        <time>2020-09-06T09:16:09Z</time>
      </trkpt>
      <trkpt lat="48.29373" lon="2.43913">
        <ele>88.1</ele>
        <time>2020-09-06T09:16:10Z</time>
      </trkpt>
      <trkpt lat="48.29371" lon="2.43918">
        <ele>88.2</ele>
        <time>2020-09-06T09:16:11Z</time>
      </trkpt>
      <trkpt lat="48.29368" lon="2.43921">
        <ele>88.4</ele>
        <time>2020-09-06T09:16:12Z</time>
      </trkpt>
      <trkpt lat="48.29365" lon="2.43924">
        <ele>88.5</ele>
        <time>2020-09-06T09:16:13Z</time>
      </trkpt>
      <trkpt lat="48.29362" lon="2.43928">
        <ele>88.6</ele>
        <time>2020-09-06T09:16:14Z</time>
      </trkpt>
      <trkpt lat="48.2936" lon="2.43935">
        <ele>88.7</ele>
        <time>2020-09-06T09:16:15Z</time>
      </trkpt>
      <trkpt lat="48.29361" lon="2.4394">
        <ele>89.2</ele>
        <time>2020-09-06T09:16:16Z</time>
      </trkpt>
      <trkpt lat="48.29361" lon="2.43946">
        <ele>89.4</ele>
        <time>2020-09-06T09:16:17Z</time>
      </trkpt>
      <trkpt lat="48.29361" lon="2.43952">
        <ele>89.7</ele>
        <time>2020-09-06T09:16:18Z</time>
      </trkpt>
      <trkpt lat="48.29361" lon="2.43959">
        <ele>90.2</ele>
        <time>2020-09-06T09:16:19Z</time>
      </trkpt>
      <trkpt lat="48.29362" lon="2.43966">
        <ele>90.7</ele>
        <time>2020-09-06T09:16:20Z</time>
      </trkpt>
      <trkpt lat="48.29361" lon="2.43974">
        <ele>91.1</ele>
        <time>2020-09-06T09:16:21Z</time>
      </trkpt>
      <trkpt lat="48.29361" lon="2.43981">
        <ele>91.3</ele>
        <time>2020-09-06T09:16:22Z</time>
      </trkpt>
      <trkpt lat="48.2936" lon="2.43987">
        <ele>91.7</ele>
        <time>2020-09-06T09:16:23Z</time>
      </trkpt>
      <trkpt lat="48.29359" lon="2.43993">
        <ele>91.9</ele>
        <time>2020-09-06T09:16:24Z</time>
      </trkpt>
      <trkpt lat="48.29358" lon="2.44">
        <ele>92.6</ele>
        <time>2020-09-06T09:16:25Z</time>
      </trkpt>
      <trkpt lat="48.29359" lon="2.44008">
        <ele>92.7</ele>
        <time>2020-09-06T09:16:26Z</time>
      </trkpt>
      <trkpt lat="48.29362" lon="2.44013">
        <ele>93.1</ele>
        <time>2020-09-06T09:16:27Z</time>
      </trkpt>
      <trkpt lat="48.29366" lon="2.44019">
        <ele>93.2</ele>
        <time>2020-09-06T09:16:28Z</time>
      </trkpt>
      <trkpt lat="48.29368" lon="2.44023">
        <ele>93.4</ele>
        <time>2020-09-06T09:16:29Z</time>
      </trkpt>
      <trkpt lat="48.2937" lon="2.44027">
        <ele>93.7</ele>
        <time>2020-09-06T09:16:30Z</time>
      </trkpt>
      <trkpt lat="48.29372" lon="2.44032">
        <ele>93.8</ele>
        <time>2020-09-06T09:16:31Z</time>
      </trkpt>
      <trkpt lat="48.29372" lon="2.44034">
        <ele>93.8</ele>
        <time>2020-09-06T09:16:32Z</time>
      </trkpt>
      <trkpt lat="48.29372" lon="2.44036">
        <ele>94.2</ele>
        <time>2020-09-06T09:16:33Z</time>
      </trkpt>
      <trkpt lat="48.29372" lon="2.44037">
        <ele>94.2</ele>
        <time>2020-09-06T09:16:34Z</time>
      </trkpt>
      <trkpt lat="48.29371" lon="2.44035">
        <ele>94.2</ele>
        <time>2020-09-06T09:16:35Z</time>
      </trkpt>
      <trkpt lat="48.29371" lon="2.44034">
        <ele>93.8</ele>
        <time>2020-09-06T09:16:36Z</time>
      </trkpt>
      <trkpt lat="48.2937" lon="2.44031">
        <ele>94</ele>
        <time>2020-09-06T09:16:37Z</time>
      </trkpt>
      <trkpt lat="48.29367" lon="2.44032">
        <ele>94.2</ele>
        <time>2020-09-06T09:16:38Z</time>
      </trkpt>
      <trkpt lat="48.29366" lon="2.44032">
        <ele>94.2</ele>
        <time>2020-09-06T09:16:39Z</time>
      </trkpt>
      <trkpt lat="48.29363" lon="2.44034">
        <ele>94.8</ele>
        <time>2020-09-06T09:16:40Z</time>
      </trkpt>
      <trkpt lat="48.29361" lon="2.44036">
        <ele>94.9</ele>
        <time>2020-09-06T09:16:41Z</time>
      </trkpt>
      <trkpt lat="48.2936" lon="2.44039">
        <ele>95.4</ele>
        <time>2020-09-06T09:16:42Z</time>
      </trkpt>
      <trkpt lat="48.29359" lon="2.44039">
        <ele>95.6</ele>
        <time>2020-09-06T09:16:43Z</time>
      </trkpt>
      <trkpt lat="48.29357" lon="2.44038">
        <ele>95.1</ele>
        <time>2020-09-06T09:16:44Z</time>
      </trkpt>
      <trkpt lat="48.29356" lon="2.44037">
        <ele>95.3</ele>
        <time>2020-09-06T09:16:45Z</time>
      </trkpt>
      <trkpt lat="48.29353" lon="2.44037">
        <ele>95.3</ele>
        <time>2020-09-06T09:16:46Z</time>
      </trkpt>
      <trkpt lat="48.29352" lon="2.44038">
        <ele>95.5</ele>
        <time>2020-09-06T09:16:47Z</time>
      </trkpt>
      <trkpt lat="48.29349" lon="2.44037">
        <ele>95.6</ele>
        <time>2020-09-06T09:16:48Z</time>
      </trkpt>
      <trkpt lat="48.29348" lon="2.44036">
        <ele>95.6</ele>
        <time>2020-09-06T09:16:49Z</time>
      </trkpt>
      <trkpt lat="48.29346" lon="2.44035">
        <ele>95.7</ele>
        <time>2020-09-06T09:16:50Z</time>
      </trkpt>
      <trkpt lat="48.29345" lon="2.44035">
        <ele>95.7</ele>
        <time>2020-09-06T09:16:51Z</time>
      </trkpt>
      <trkpt lat="48.29343" lon="2.44036">
        <ele>95.9</ele>
        <time>2020-09-06T09:16:52Z</time>
      </trkpt>
      <trkpt lat="48.29341" lon="2.44036">
        <ele>96</ele>
        <time>2020-09-06T09:16:53Z</time>
      </trkpt>
      <trkpt lat="48.2934" lon="2.44035">
        <ele>96</ele>
        <time>2020-09-06T09:16:54Z</time>
      </trkpt>
      <trkpt lat="48.29338" lon="2.44035">
        <ele>96.2</ele>
        <time>2020-09-06T09:16:55Z</time>
      </trkpt>
      <trkpt lat="48.29336" lon="2.44036">
        <ele>96.2</ele>
        <time>2020-09-06T09:16:56Z</time>
      </trkpt>
      <trkpt lat="48.29335" lon="2.44035">
        <ele>96.3</ele>
        <time>2020-09-06T09:16:57Z</time>
      </trkpt>
      <trkpt lat="48.29332" lon="2.44036">
        <ele>96.4</ele>
        <time>2020-09-06T09:16:58Z</time>
      </trkpt>
      <trkpt lat="48.29331" lon="2.44035">
        <ele>96.4</ele>
        <time>2020-09-06T09:16:59Z</time>
      </trkpt>
      <trkpt lat="48.29328" lon="2.44036">
        <ele>96.5</ele>
        <time>2020-09-06T09:17:00Z</time>
      </trkpt>
      <trkpt lat="48.29327" lon="2.44036">
        <ele>96.6</ele>
        <time>2020-09-06T09:17:01Z</time>
      </trkpt>
      <trkpt lat="48.29325" lon="2.44037">
        <ele>96.6</ele>
        <time>2020-09-06T09:17:02Z</time>
      </trkpt>
      <trkpt lat="48.29324" lon="2.44037">
        <ele>96.7</ele>
        <time>2020-09-06T09:17:03Z</time>
      </trkpt>
      <trkpt lat="48.29321" lon="2.44038">
        <ele>96.7</ele>
        <time>2020-09-06T09:17:04Z</time>
      </trkpt>
      <trkpt lat="48.2932" lon="2.44038">
        <ele>96.7</ele>
        <time>2020-09-06T09:17:05Z</time>
      </trkpt>
      <trkpt lat="48.29317" lon="2.4404">
        <ele>97.2</ele>
        <time>2020-09-06T09:17:06Z</time>
      </trkpt>
      <trkpt lat="48.29316" lon="2.44041">
        <ele>97.2</ele>
        <time>2020-09-06T09:17:07Z</time>
      </trkpt>
      <trkpt lat="48.29315" lon="2.44043">
        <ele>97.7</ele>
        <time>2020-09-06T09:17:08Z</time>
      </trkpt>
      <trkpt lat="48.29314" lon="2.44045">
        <ele>97.7</ele>
        <time>2020-09-06T09:17:09Z</time>
      </trkpt>
      <trkpt lat="48.29311" lon="2.44047">
        <ele>97.7</ele>
        <time>2020-09-06T09:17:10Z</time>
      </trkpt>
      <trkpt lat="48.29309" lon="2.44047">
        <ele>98.1</ele>
        <time>2020-09-06T09:17:11Z</time>
      </trkpt>
      <trkpt lat="48.29307" lon="2.44049">
        <ele>98</ele>
        <time>2020-09-06T09:17:12Z</time>
      </trkpt>
      <trkpt lat="48.29304" lon="2.44051">
        <ele>98.4</ele>
        <time>2020-09-06T09:17:13Z</time>
      </trkpt>
      <trkpt lat="48.29302" lon="2.44054">
        <ele>98.3</ele>
        <time>2020-09-06T09:17:14Z</time>
      </trkpt>
      <trkpt lat="48.29301" lon="2.44056">
        <ele>98.7</ele>
        <time>2020-09-06T09:17:15Z</time>
      </trkpt>
      <trkpt lat="48.293" lon="2.44058">
        <ele>98.7</ele>
        <time>2020-09-06T09:17:16Z</time>
      </trkpt>
      <trkpt lat="48.29298" lon="2.4406">
        <ele>99</ele>
        <time>2020-09-06T09:17:17Z</time>
      </trkpt>
      <trkpt lat="48.29297" lon="2.44061">
        <ele>99</ele>
        <time>2020-09-06T09:17:18Z</time>
      </trkpt>
      <trkpt lat="48.29295" lon="2.44062">
        <ele>98.8</ele>
        <time>2020-09-06T09:17:19Z</time>
      </trkpt>
      <trkpt lat="48.29295" lon="2.44063">
        <ele>98.8</ele>
        <time>2020-09-06T09:17:20Z</time>
      </trkpt>
      <trkpt lat="48.29294" lon="2.44063">
        <ele>98.8</ele>
        <time>2020-09-06T09:17:21Z</time>
      </trkpt>
      <trkpt lat="48.29294" lon="2.44064">
        <ele>99.3</ele>
        <time>2020-09-06T09:17:22Z</time>
      </trkpt>
      <trkpt lat="48.29293" lon="2.44064">
        <ele>99.3</ele>
        <time>2020-09-06T09:17:23Z</time>
      </trkpt>
      <trkpt lat="48.29292" lon="2.44065">
        <ele>99.1</ele>
        <time>2020-09-06T09:17:24Z</time>
      </trkpt>
      <trkpt lat="48.29291" lon="2.44066">
        <ele>99.1</ele>
        <time>2020-09-06T09:17:25Z</time>
      </trkpt>
      <trkpt lat="48.29289" lon="2.44067">
        <ele>99</ele>
        <time>2020-09-06T09:17:26Z</time>
      </trkpt>
      <trkpt lat="48.29288" lon="2.44068">
        <ele>99</ele>
        <time>2020-09-06T09:17:27Z</time>
      </trkpt>
      <trkpt lat="48.29285" lon="2.44067">
        <ele>98.9</ele>
        <time>2020-09-06T09:17:28Z</time>
      </trkpt>
      <trkpt lat="48.29284" lon="2.44068">
        <ele>99.3</ele>
        <time>2020-09-06T09:17:29Z</time>
      </trkpt>
      <trkpt lat="48.29283" lon="2.44069">
        <ele>99.3</ele>
        <time>2020-09-06T09:17:30Z</time>
      </trkpt>
      <trkpt lat="48.2928" lon="2.44071">
        <ele>99.2</ele>
        <time>2020-09-06T09:17:31Z</time>
      </trkpt>
      <trkpt lat="48.29279" lon="2.44071">
        <ele>99.2</ele>
        <time>2020-09-06T09:17:32Z</time>
      </trkpt>
      <trkpt lat="48.29276" lon="2.44072">
        <ele>99.1</ele>
        <time>2020-09-06T09:17:33Z</time>
      </trkpt>
      <trkpt lat="48.29275" lon="2.44072">
        <ele>99</ele>
        <time>2020-09-06T09:17:34Z</time>
      </trkpt>
      <trkpt lat="48.29272" lon="2.44074">
        <ele>99.3</ele>
        <time>2020-09-06T09:17:35Z</time>
      </trkpt>
      <trkpt lat="48.29268" lon="2.44077">
        <ele>99.7</ele>
        <time>2020-09-06T09:17:36Z</time>
      </trkpt>
      <trkpt lat="48.29262" lon="2.44082">
        <ele>99.8</ele>
        <time>2020-09-06T09:17:37Z</time>
      </trkpt>
      <trkpt lat="48.29258" lon="2.44086">
        <ele>99.8</ele>
        <time>2020-09-06T09:17:38Z</time>
      </trkpt>
      <trkpt lat="48.29254" lon="2.44089">
        <ele>99.5</ele>
        <time>2020-09-06T09:17:39Z</time>
      </trkpt>
      <trkpt lat="48.2925" lon="2.44092">
        <ele>99.2</ele>
        <time>2020-09-06T09:17:40Z</time>
      </trkpt>
      <trkpt lat="48.29246" lon="2.44097">
        <ele>99.2</ele>
        <time>2020-09-06T09:17:42Z</time>
      </trkpt>
      <trkpt lat="48.29244" lon="2.44098">
        <ele>98.9</ele>
        <time>2020-09-06T09:17:43Z</time>
      </trkpt>
      <trkpt lat="48.29242" lon="2.441">
        <ele>99.3</ele>
        <time>2020-09-06T09:17:44Z</time>
      </trkpt>
      <trkpt lat="48.29239" lon="2.44101">
        <ele>98.6</ele>
        <time>2020-09-06T09:17:45Z</time>
      </trkpt>
      <trkpt lat="48.29235" lon="2.44103">
        <ele>98.8</ele>
        <time>2020-09-06T09:17:46Z</time>
      </trkpt>
      <trkpt lat="48.29232" lon="2.44105">
        <ele>98.5</ele>
        <time>2020-09-06T09:17:47Z</time>
      </trkpt>
      <trkpt lat="48.29229" lon="2.44106">
        <ele>98.3</ele>
        <time>2020-09-06T09:17:48Z</time>
      </trkpt>
      <trkpt lat="48.29226" lon="2.44109">
        <ele>98.5</ele>
        <time>2020-09-06T09:17:49Z</time>
      </trkpt>
      <trkpt lat="48.29225" lon="2.4411">
        <ele>98.5</ele>
        <time>2020-09-06T09:17:50Z</time>
      </trkpt>
      <trkpt lat="48.29225" lon="2.44111">
        <ele>99</ele>
        <time>2020-09-06T09:17:51Z</time>
      </trkpt>
      <trkpt lat="48.29224" lon="2.44112">
        <ele>98.8</ele>
        <time>2020-09-06T09:17:52Z</time>
      </trkpt>
      <trkpt lat="48.29224" lon="2.44111">
        <ele>98.3</ele>
        <time>2020-09-06T09:17:53Z</time>
      </trkpt>
      <trkpt lat="48.29223" lon="2.4411">
        <ele>98.3</ele>
        <time>2020-09-06T09:17:54Z</time>
      </trkpt>
      <trkpt lat="48.29222" lon="2.4411">
        <ele>98.3</ele>
        <time>2020-09-06T09:17:55Z</time>
      </trkpt>
      <trkpt lat="48.29222" lon="2.44109">
        <ele>98.1</ele>
        <time>2020-09-06T09:17:56Z</time>
      </trkpt>
      <trkpt lat="48.29221" lon="2.44107">
        <ele>97.6</ele>
        <time>2020-09-06T09:17:57Z</time>
      </trkpt>
      <trkpt lat="48.2922" lon="2.44104">
        <ele>97.6</ele>
        <time>2020-09-06T09:17:58Z</time>
      </trkpt>
      <trkpt lat="48.29219" lon="2.44099">
        <ele>96.9</ele>
        <time>2020-09-06T09:17:59Z</time>
      </trkpt>
      <trkpt lat="48.29218" lon="2.44097">
        <ele>96.5</ele>
        <time>2020-09-06T09:18:00Z</time>
      </trkpt>
      <trkpt lat="48.29216" lon="2.44092">
        <ele>96.1</ele>
        <time>2020-09-06T09:18:01Z</time>
      </trkpt>
      <trkpt lat="48.29215" lon="2.44088">
        <ele>95.5</ele>
        <time>2020-09-06T09:18:02Z</time>
      </trkpt>
      <trkpt lat="48.29213" lon="2.44084">
        <ele>95.1</ele>
        <time>2020-09-06T09:18:03Z</time>
      </trkpt>
      <trkpt lat="48.29211" lon="2.44079">
        <ele>94.7</ele>
        <time>2020-09-06T09:18:04Z</time>
      </trkpt>
      <trkpt lat="48.29211" lon="2.44077">
        <ele>94.7</ele>
        <time>2020-09-06T09:18:05Z</time>
      </trkpt>
      <trkpt lat="48.29209" lon="2.44073">
        <ele>94.4</ele>
        <time>2020-09-06T09:18:06Z</time>
      </trkpt>
      <trkpt lat="48.29209" lon="2.44066">
        <ele>93.8</ele>
        <time>2020-09-06T09:18:07Z</time>
      </trkpt>
      <trkpt lat="48.29207" lon="2.44058">
        <ele>93.2</ele>
        <time>2020-09-06T09:18:08Z</time>
      </trkpt>
      <trkpt lat="48.29204" lon="2.44053">
        <ele>92.8</ele>
        <time>2020-09-06T09:18:09Z</time>
      </trkpt>
      <trkpt lat="48.29201" lon="2.4405">
        <ele>92.6</ele>
        <time>2020-09-06T09:18:10Z</time>
      </trkpt>
      <trkpt lat="48.29197" lon="2.44048">
        <ele>92.6</ele>
        <time>2020-09-06T09:18:11Z</time>
      </trkpt>
      <trkpt lat="48.29194" lon="2.44046">
        <ele>92.4</ele>
        <time>2020-09-06T09:18:12Z</time>
      </trkpt>
      <trkpt lat="48.29191" lon="2.44049">
        <ele>91.6</ele>
        <time>2020-09-06T09:28:54Z</time>
      </trkpt>
      <trkpt lat="48.2919" lon="2.44049">
        <ele>91.7</ele>
        <time>2020-09-06T09:28:55Z</time>
      </trkpt>
      <trkpt lat="48.2919" lon="2.44048">
        <ele>91.7</ele>
        <time>2020-09-06T09:28:56Z</time>
      </trkpt>
      <trkpt lat="48.29189" lon="2.44048">
        <ele>91.7</ele>
        <time>2020-09-06T09:28:57Z</time>
      </trkpt>
      <trkpt lat="48.29189" lon="2.44048">
        <ele>91.7</ele>
        <time>2020-09-06T09:28:58Z</time>
      </trkpt>
      <trkpt lat="48.29188" lon="2.44048">
        <ele>91.7</ele>
        <time>2020-09-06T09:28:59Z</time>
      </trkpt>
      <trkpt lat="48.29188" lon="2.44048">
        <ele>91.7</ele>
        <time>2020-09-06T09:29:00Z</time>
      </trkpt>
      <trkpt lat="48.29186" lon="2.44049">
        <ele>91.7</ele>
        <time>2020-09-06T09:29:01Z</time>
      </trkpt>
      <trkpt lat="48.29185" lon="2.4405">
        <ele>91.7</ele>
        <time>2020-09-06T09:29:02Z</time>
      </trkpt>
      <trkpt lat="48.29183" lon="2.44053">
        <ele>91.9</ele>
        <time>2020-09-06T09:29:03Z</time>
      </trkpt>
      <trkpt lat="48.29182" lon="2.44054">
        <ele>91.9</ele>
        <time>2020-09-06T09:29:04Z</time>
      </trkpt>
      <trkpt lat="48.29179" lon="2.44056">
        <ele>92</ele>
        <time>2020-09-06T09:29:05Z</time>
      </trkpt>
      <trkpt lat="48.29176" lon="2.44059">
        <ele>92</ele>
        <time>2020-09-06T09:29:06Z</time>
      </trkpt>
      <trkpt lat="48.29174" lon="2.44062">
        <ele>92.1</ele>
        <time>2020-09-06T09:29:07Z</time>
      </trkpt>
      <trkpt lat="48.29172" lon="2.44067">
        <ele>92.3</ele>
        <time>2020-09-06T09:29:08Z</time>
      </trkpt>
      <trkpt lat="48.29169" lon="2.44072">
        <ele>92.4</ele>
        <time>2020-09-06T09:29:09Z</time>
      </trkpt>
      <trkpt lat="48.29168" lon="2.44074">
        <ele>92.5</ele>
        <time>2020-09-06T09:29:10Z</time>
      </trkpt>
      <trkpt lat="48.29166" lon="2.44078">
        <ele>92.7</ele>
        <time>2020-09-06T09:29:11Z</time>
      </trkpt>
      <trkpt lat="48.29165" lon="2.44082">
        <ele>92.9</ele>
        <time>2020-09-06T09:29:12Z</time>
      </trkpt>
      <trkpt lat="48.29164" lon="2.44083">
        <ele>92.9</ele>
        <time>2020-09-06T09:29:13Z</time>
      </trkpt>
      <trkpt lat="48.29163" lon="2.44087">
        <ele>93.1</ele>
        <time>2020-09-06T09:29:14Z</time>
      </trkpt>
      <trkpt lat="48.29162" lon="2.44089">
        <ele>93.1</ele>
        <time>2020-09-06T09:29:15Z</time>
      </trkpt>
      <trkpt lat="48.2916" lon="2.44095">
        <ele>93.5</ele>
        <time>2020-09-06T09:29:16Z</time>
      </trkpt>
      <trkpt lat="48.2916" lon="2.44097">
        <ele>93.5</ele>
        <time>2020-09-06T09:29:17Z</time>
      </trkpt>
      <trkpt lat="48.2916" lon="2.44103">
        <ele>93.9</ele>
        <time>2020-09-06T09:29:18Z</time>
      </trkpt>
      <trkpt lat="48.2916" lon="2.44105">
        <ele>93.9</ele>
        <time>2020-09-06T09:29:19Z</time>
      </trkpt>
      <trkpt lat="48.29163" lon="2.44108">
        <ele>94.2</ele>
        <time>2020-09-06T09:29:20Z</time>
      </trkpt>
      <trkpt lat="48.29164" lon="2.44109">
        <ele>94.2</ele>
        <time>2020-09-06T09:29:21Z</time>
      </trkpt>
      <trkpt lat="48.29167" lon="2.4411">
        <ele>94.2</ele>
        <time>2020-09-06T09:29:22Z</time>
      </trkpt>
      <trkpt lat="48.29168" lon="2.44111">
        <ele>94.2</ele>
        <time>2020-09-06T09:29:23Z</time>
      </trkpt>
      <trkpt lat="48.29171" lon="2.44112">
        <ele>94.5</ele>
        <time>2020-09-06T09:29:24Z</time>
      </trkpt>
      <trkpt lat="48.29172" lon="2.44113">
        <ele>94.5</ele>
        <time>2020-09-06T09:29:25Z</time>
      </trkpt>
      <trkpt lat="48.29175" lon="2.44117">
        <ele>94.9</ele>
        <time>2020-09-06T09:29:26Z</time>
      </trkpt>
      <trkpt lat="48.29176" lon="2.44118">
        <ele>94.9</ele>
        <time>2020-09-06T09:29:27Z</time>
      </trkpt>
      <trkpt lat="48.29178" lon="2.4412">
        <ele>95</ele>
        <time>2020-09-06T09:29:28Z</time>
      </trkpt>
      <trkpt lat="48.29179" lon="2.44121">
        <ele>95.4</ele>
        <time>2020-09-06T09:29:29Z</time>
      </trkpt>
      <trkpt lat="48.2918" lon="2.44123">
        <ele>95.4</ele>
        <time>2020-09-06T09:29:30Z</time>
      </trkpt>
      <trkpt lat="48.29182" lon="2.44126">
        <ele>95.9</ele>
        <time>2020-09-06T09:29:31Z</time>
      </trkpt>
      <trkpt lat="48.29183" lon="2.44127">
        <ele>95.9</ele>
        <time>2020-09-06T09:29:32Z</time>
      </trkpt>
      <trkpt lat="48.29184" lon="2.44131">
        <ele>96.3</ele>
        <time>2020-09-06T09:29:33Z</time>
      </trkpt>
      <trkpt lat="48.29184" lon="2.44133">
        <ele>96.8</ele>
        <time>2020-09-06T09:29:34Z</time>
      </trkpt>
      <trkpt lat="48.29183" lon="2.44135">
        <ele>96.7</ele>
        <time>2020-09-06T09:29:35Z</time>
      </trkpt>
      <trkpt lat="48.29183" lon="2.44135">
        <ele>96.7</ele>
        <time>2020-09-06T09:29:36Z</time>
      </trkpt>
      <trkpt lat="48.29182" lon="2.44136">
        <ele>96.7</ele>
        <time>2020-09-06T09:29:37Z</time>
      </trkpt>
      <trkpt lat="48.29182" lon="2.44137">
        <ele>96.7</ele>
        <time>2020-09-06T09:29:38Z</time>
      </trkpt>
      <trkpt lat="48.29181" lon="2.44138">
        <ele>97.1</ele>
        <time>2020-09-06T09:29:39Z</time>
      </trkpt>
      <trkpt lat="48.29181" lon="2.44138">
        <ele>97.1</ele>
        <time>2020-09-06T09:29:40Z</time>
      </trkpt>
      <trkpt lat="48.29181" lon="2.44139">
        <ele>97.1</ele>
        <time>2020-09-06T09:29:41Z</time>
      </trkpt>
      <trkpt lat="48.2918" lon="2.4414">
        <ele>97.1</ele>
        <time>2020-09-06T09:29:42Z</time>
      </trkpt>
      <trkpt lat="48.2918" lon="2.44141">
        <ele>97.1</ele>
        <time>2020-09-06T09:29:43Z</time>
      </trkpt>
      <trkpt lat="48.29179" lon="2.44142">
        <ele>97.5</ele>
        <time>2020-09-06T09:29:44Z</time>
      </trkpt>
      <trkpt lat="48.29179" lon="2.44142">
        <ele>97.5</ele>
        <time>2020-09-06T09:29:45Z</time>
      </trkpt>
      <trkpt lat="48.29178" lon="2.44143">
        <ele>97.5</ele>
        <time>2020-09-06T09:29:46Z</time>
      </trkpt>
      <trkpt lat="48.29178" lon="2.44144">
        <ele>97.5</ele>
        <time>2020-09-06T09:29:47Z</time>
      </trkpt>
      <trkpt lat="48.29177" lon="2.44145">
        <ele>97.5</ele>
        <time>2020-09-06T09:29:56Z</time>
      </trkpt>
      <trkpt lat="48.29177" lon="2.44145">
        <ele>97.9</ele>
        <time>2020-09-06T09:29:57Z</time>
      </trkpt>
      <trkpt lat="48.29176" lon="2.44147">
        <ele>97.9</ele>
        <time>2020-09-06T09:29:58Z</time>
      </trkpt>
      <trkpt lat="48.29176" lon="2.44149">
        <ele>97.8</ele>
        <time>2020-09-06T09:29:59Z</time>
      </trkpt>
      <trkpt lat="48.29174" lon="2.44154">
        <ele>98.1</ele>
        <time>2020-09-06T09:30:00Z</time>
      </trkpt>
      <trkpt lat="48.29173" lon="2.44155">
        <ele>98.5</ele>
        <time>2020-09-06T09:30:01Z</time>
      </trkpt>
      <trkpt lat="48.29172" lon="2.44158">
        <ele>98.7</ele>
        <time>2020-09-06T09:30:02Z</time>
      </trkpt>
      <trkpt lat="48.29171" lon="2.44159">
        <ele>98.7</ele>
        <time>2020-09-06T09:30:03Z</time>
      </trkpt>
      <trkpt lat="48.2917" lon="2.44164">
        <ele>98.9</ele>
        <time>2020-09-06T09:30:04Z</time>
      </trkpt>
      <trkpt lat="48.29169" lon="2.44165">
        <ele>98.9</ele>
        <time>2020-09-06T09:30:05Z</time>
      </trkpt>
      <trkpt lat="48.29169" lon="2.44166">
        <ele>98.9</ele>
        <time>2020-09-06T09:30:06Z</time>
      </trkpt>
      <trkpt lat="48.29169" lon="2.44168">
        <ele>98.8</ele>
        <time>2020-09-06T09:30:07Z</time>
      </trkpt>
      <trkpt lat="48.29169" lon="2.44168">
        <ele>98.8</ele>
        <time>2020-09-06T09:30:08Z</time>
      </trkpt>
      <trkpt lat="48.29169" lon="2.44169">
        <ele>98.7</ele>
        <time>2020-09-06T09:30:09Z</time>
      </trkpt>
      <trkpt lat="48.29167" lon="2.4417">
        <ele>98.4</ele>
        <time>2020-09-06T09:30:10Z</time>
      </trkpt>
      <trkpt lat="48.29165" lon="2.44171">
        <ele>98.1</ele>
        <time>2020-09-06T09:30:11Z</time>
      </trkpt>
      <trkpt lat="48.29162" lon="2.44172">
        <ele>97.8</ele>
        <time>2020-09-06T09:30:12Z</time>
      </trkpt>
      <trkpt lat="48.2916" lon="2.44172">
        <ele>97.5</ele>
        <time>2020-09-06T09:30:13Z</time>
      </trkpt>
      <trkpt lat="48.29158" lon="2.44173">
        <ele>97.2</ele>
        <time>2020-09-06T09:30:14Z</time>
      </trkpt>
      <trkpt lat="48.29156" lon="2.44173">
        <ele>96.9</ele>
        <time>2020-09-06T09:30:15Z</time>
      </trkpt>
      <trkpt lat="48.29153" lon="2.44174">
        <ele>96.5</ele>
        <time>2020-09-06T09:30:16Z</time>
      </trkpt>
      <trkpt lat="48.29151" lon="2.44175">
        <ele>96.1</ele>
        <time>2020-09-06T09:30:17Z</time>
      </trkpt>
      <trkpt lat="48.29149" lon="2.44175">
        <ele>95.7</ele>
        <time>2020-09-06T09:30:18Z</time>
      </trkpt>
      <trkpt lat="48.29147" lon="2.44176">
        <ele>95.3</ele>
        <time>2020-09-06T09:30:19Z</time>
      </trkpt>
      <trkpt lat="48.29144" lon="2.44176">
        <ele>94.8</ele>
        <time>2020-09-06T09:30:37Z</time>
      </trkpt>
      <trkpt lat="48.29142" lon="2.44177">
        <ele>94.4</ele>
        <time>2020-09-06T09:30:38Z</time>
      </trkpt>
      <trkpt lat="48.29135" lon="2.4418">
        <ele>93</ele>
        <time>2020-09-06T09:30:39Z</time>
      </trkpt>
      <trkpt lat="48.29129" lon="2.44182">
        <ele>92.1</ele>
        <time>2020-09-06T09:30:40Z</time>
      </trkpt>
      <trkpt lat="48.29123" lon="2.44183">
        <ele>91.3</ele>
        <time>2020-09-06T09:30:41Z</time>
      </trkpt>
      <trkpt lat="48.29118" lon="2.44182">
        <ele>90.5</ele>
        <time>2020-09-06T09:30:42Z</time>
      </trkpt>
      <trkpt lat="48.29112" lon="2.44181">
        <ele>90.6</ele>
        <time>2020-09-06T09:30:43Z</time>
      </trkpt>
      <trkpt lat="48.29107" lon="2.44178">
        <ele>90.7</ele>
        <time>2020-09-06T09:30:44Z</time>
      </trkpt>
      <trkpt lat="48.29103" lon="2.44176">
        <ele>90.8</ele>
        <time>2020-09-06T09:30:45Z</time>
      </trkpt>
      <trkpt lat="48.291" lon="2.44173">
        <ele>90.8</ele>
        <time>2020-09-06T09:30:46Z</time>
      </trkpt>
      <trkpt lat="48.29099" lon="2.4417">
        <ele>90.8</ele>
        <time>2020-09-06T09:30:47Z</time>
      </trkpt>
      <trkpt lat="48.29099" lon="2.44169">
        <ele>90.8</ele>
        <time>2020-09-06T09:30:48Z</time>
      </trkpt>
      <trkpt lat="48.291" lon="2.44167">
        <ele>90.8</ele>
        <time>2020-09-06T09:30:49Z</time>
      </trkpt>
      <trkpt lat="48.291" lon="2.44165">
        <ele>90.8</ele>
        <time>2020-09-06T09:30:50Z</time>
      </trkpt>
      <trkpt lat="48.29102" lon="2.4416">
        <ele>90.7</ele>
        <time>2020-09-06T09:30:51Z</time>
      </trkpt>
      <trkpt lat="48.29105" lon="2.44156">
        <ele>90.7</ele>
        <time>2020-09-06T09:30:52Z</time>
      </trkpt>
      <trkpt lat="48.29109" lon="2.44153">
        <ele>90.7</ele>
        <time>2020-09-06T09:30:53Z</time>
      </trkpt>
      <trkpt lat="48.29113" lon="2.4415">
        <ele>90.2</ele>
        <time>2020-09-06T09:30:54Z</time>
      </trkpt>
      <trkpt lat="48.29117" lon="2.44148">
        <ele>89.9</ele>
        <time>2020-09-06T09:30:55Z</time>
      </trkpt>
      <trkpt lat="48.29121" lon="2.44145">
        <ele>89.5</ele>
        <time>2020-09-06T09:30:56Z</time>
      </trkpt>
      <trkpt lat="48.29126" lon="2.44143">
        <ele>89.1</ele>
        <time>2020-09-06T09:30:57Z</time>
      </trkpt>
      <trkpt lat="48.2913" lon="2.44139">
        <ele>88.7</ele>
        <time>2020-09-06T09:30:58Z</time>
      </trkpt>
      <trkpt lat="48.29132" lon="2.44131">
        <ele>88.2</ele>
        <time>2020-09-06T09:30:59Z</time>
      </trkpt>
      <trkpt lat="48.29132" lon="2.44122">
        <ele>87.8</ele>
        <time>2020-09-06T09:31:00Z</time>
      </trkpt>
      <trkpt lat="48.29132" lon="2.44114">
        <ele>87.4</ele>
        <time>2020-09-06T09:31:01Z</time>
      </trkpt>
      <trkpt lat="48.29131" lon="2.44109">
        <ele>87.2</ele>
        <time>2020-09-06T09:31:02Z</time>
      </trkpt>
      <trkpt lat="48.29133" lon="2.44106">
        <ele>87</ele>
        <time>2020-09-06T09:31:03Z</time>
      </trkpt>
      <trkpt lat="48.29136" lon="2.44102">
        <ele>86.8</ele>
        <time>2020-09-06T09:31:04Z</time>
      </trkpt>
      <trkpt lat="48.29137" lon="2.44094">
        <ele>86.6</ele>
        <time>2020-09-06T09:31:05Z</time>
      </trkpt>
      <trkpt lat="48.29138" lon="2.44086">
        <ele>86.5</ele>
        <time>2020-09-06T09:31:07Z</time>
      </trkpt>
      <trkpt lat="48.29137" lon="2.44078">
        <ele>86.4</ele>
        <time>2020-09-06T09:31:08Z</time>
      </trkpt>
      <trkpt lat="48.29136" lon="2.44072">
        <ele>86.4</ele>
        <time>2020-09-06T09:31:09Z</time>
      </trkpt>
      <trkpt lat="48.29134" lon="2.44067">
        <ele>86.5</ele>
        <time>2020-09-06T09:31:10Z</time>
      </trkpt>
      <trkpt lat="48.29133" lon="2.4406">
        <ele>86.6</ele>
        <time>2020-09-06T09:31:11Z</time>
      </trkpt>
      <trkpt lat="48.29132" lon="2.44055">
        <ele>86.7</ele>
        <time>2020-09-06T09:31:12Z</time>
      </trkpt>
      <trkpt lat="48.2913" lon="2.44051">
        <ele>86.8</ele>
        <time>2020-09-06T09:31:13Z</time>
      </trkpt>
      <trkpt lat="48.29128" lon="2.44046">
        <ele>87.1</ele>
        <time>2020-09-06T09:31:14Z</time>
      </trkpt>
      <trkpt lat="48.29124" lon="2.44045">
        <ele>87.3</ele>
        <time>2020-09-06T09:31:15Z</time>
      </trkpt>
      <trkpt lat="48.29123" lon="2.44045">
        <ele>87.3</ele>
        <time>2020-09-06T09:31:16Z</time>
      </trkpt>
      <trkpt lat="48.2912" lon="2.44045">
        <ele>87.6</ele>
        <time>2020-09-06T09:31:17Z</time>
      </trkpt>
      <trkpt lat="48.29118" lon="2.44044">
        <ele>87.8</ele>
        <time>2020-09-06T09:31:18Z</time>
      </trkpt>
      <trkpt lat="48.29114" lon="2.44044">
        <ele>88.1</ele>
        <time>2020-09-06T09:31:19Z</time>
      </trkpt>
      <trkpt lat="48.29113" lon="2.44043">
        <ele>88.2</ele>
        <time>2020-09-06T09:31:20Z</time>
      </trkpt>
      <trkpt lat="48.2911" lon="2.44042">
        <ele>88.6</ele>
        <time>2020-09-06T09:31:21Z</time>
      </trkpt>
      <trkpt lat="48.29106" lon="2.44039">
        <ele>89.1</ele>
        <time>2020-09-06T09:31:22Z</time>
      </trkpt>
      <trkpt lat="48.29103" lon="2.44036">
        <ele>89.5</ele>
        <time>2020-09-06T09:31:23Z</time>
      </trkpt>
      <trkpt lat="48.29101" lon="2.44033">
        <ele>89.9</ele>
        <time>2020-09-06T09:31:24Z</time>
      </trkpt>
      <trkpt lat="48.29098" lon="2.44031">
        <ele>90.2</ele>
        <time>2020-09-06T09:31:25Z</time>
      </trkpt>
      <trkpt lat="48.29095" lon="2.4403">
        <ele>90.7</ele>
        <time>2020-09-06T09:31:26Z</time>
      </trkpt>
      <trkpt lat="48.29092" lon="2.44029">
        <ele>91</ele>
        <time>2020-09-06T09:31:27Z</time>
      </trkpt>
      <trkpt lat="48.29089" lon="2.44028">
        <ele>91.4</ele>
        <time>2020-09-06T09:31:28Z</time>
      </trkpt>
      <trkpt lat="48.29086" lon="2.44026">
        <ele>91.8</ele>
        <time>2020-09-06T09:31:29Z</time>
      </trkpt>
      <trkpt lat="48.29085" lon="2.44026">
        <ele>91.9</ele>
        <time>2020-09-06T09:31:30Z</time>
      </trkpt>
      <trkpt lat="48.29084" lon="2.44024">
        <ele>92.1</ele>
        <time>2020-09-06T09:31:31Z</time>
      </trkpt>
      <trkpt lat="48.29084" lon="2.44021">
        <ele>92.3</ele>
        <time>2020-09-06T09:31:32Z</time>
      </trkpt>
      <trkpt lat="48.29086" lon="2.44016">
        <ele>92.9</ele>
        <time>2020-09-06T09:31:33Z</time>
      </trkpt>
      <trkpt lat="48.29087" lon="2.44014">
        <ele>92.8</ele>
        <time>2020-09-06T09:31:34Z</time>
      </trkpt>
      <trkpt lat="48.29089" lon="2.44011">
        <ele>92.8</ele>
        <time>2020-09-06T09:31:35Z</time>
      </trkpt>
      <trkpt lat="48.29092" lon="2.44008">
        <ele>92.7</ele>
        <time>2020-09-06T09:31:36Z</time>
      </trkpt>
      <trkpt lat="48.29095" lon="2.44005">
        <ele>92.7</ele>
        <time>2020-09-06T09:31:37Z</time>
      </trkpt>
      <trkpt lat="48.29099" lon="2.44">
        <ele>92.6</ele>
        <time>2020-09-06T09:31:38Z</time>
      </trkpt>
      <trkpt lat="48.29102" lon="2.43996">
        <ele>92.6</ele>
        <time>2020-09-06T09:31:39Z</time>
      </trkpt>
      <trkpt lat="48.29103" lon="2.4399">
        <ele>92.6</ele>
        <time>2020-09-06T09:31:40Z</time>
      </trkpt>
      <trkpt lat="48.29103" lon="2.43982">
        <ele>92.6</ele>
        <time>2020-09-06T09:31:41Z</time>
      </trkpt>
      <trkpt lat="48.29104" lon="2.43975">
        <ele>92.7</ele>
        <time>2020-09-06T09:31:42Z</time>
      </trkpt>
      <trkpt lat="48.29104" lon="2.43967">
        <ele>92.8</ele>
        <time>2020-09-06T09:31:43Z</time>
      </trkpt>
      <trkpt lat="48.29104" lon="2.43961">
        <ele>92.9</ele>
        <time>2020-09-06T09:31:44Z</time>
      </trkpt>
      <trkpt lat="48.29104" lon="2.43953">
        <ele>93</ele>
        <time>2020-09-06T09:31:45Z</time>
      </trkpt>
      <trkpt lat="48.29104" lon="2.43946">
        <ele>93.1</ele>
        <time>2020-09-06T09:31:46Z</time>
      </trkpt>
      <trkpt lat="48.29105" lon="2.4394">
        <ele>93.2</ele>
        <time>2020-09-06T09:31:47Z</time>
      </trkpt>
      <trkpt lat="48.29105" lon="2.43933">
        <ele>93.4</ele>
        <time>2020-09-06T09:31:48Z</time>
      </trkpt>
      <trkpt lat="48.29105" lon="2.43927">
        <ele>93.5</ele>
        <time>2020-09-06T09:31:49Z</time>
      </trkpt>
      <trkpt lat="48.29104" lon="2.43921">
        <ele>93.5</ele>
        <time>2020-09-06T09:31:50Z</time>
      </trkpt>
      <trkpt lat="48.29105" lon="2.43914">
        <ele>93.6</ele>
        <time>2020-09-06T09:31:51Z</time>
      </trkpt>
      <trkpt lat="48.29105" lon="2.43906">
        <ele>93.7</ele>
        <time>2020-09-06T09:31:52Z</time>
      </trkpt>
      <trkpt lat="48.29104" lon="2.43899">
        <ele>93.7</ele>
        <time>2020-09-06T09:31:53Z</time>
      </trkpt>
      <trkpt lat="48.29101" lon="2.43891">
        <ele>93.7</ele>
        <time>2020-09-06T09:31:54Z</time>
      </trkpt>
      <trkpt lat="48.29099" lon="2.43886">
        <ele>93.7</ele>
        <time>2020-09-06T09:31:55Z</time>
      </trkpt>
      <trkpt lat="48.29096" lon="2.4388">
        <ele>93.7</ele>
        <time>2020-09-06T09:31:56Z</time>
      </trkpt>
      <trkpt lat="48.29095" lon="2.43874">
        <ele>93.7</ele>
        <time>2020-09-06T09:31:57Z</time>
      </trkpt>
      <trkpt lat="48.29095" lon="2.43868">
        <ele>93.7</ele>
        <time>2020-09-06T09:31:58Z</time>
      </trkpt>
      <trkpt lat="48.29096" lon="2.43862">
        <ele>93.7</ele>
        <time>2020-09-06T09:31:59Z</time>
      </trkpt>
      <trkpt lat="48.29098" lon="2.43856">
        <ele>93.6</ele>
        <time>2020-09-06T09:32:00Z</time>
      </trkpt>
      <trkpt lat="48.291" lon="2.43848">
        <ele>93.5</ele>
        <time>2020-09-06T09:32:01Z</time>
      </trkpt>
      <trkpt lat="48.29102" lon="2.43841">
        <ele>93.3</ele>
        <time>2020-09-06T09:32:02Z</time>
      </trkpt>
      <trkpt lat="48.29105" lon="2.43833">
        <ele>93.2</ele>
        <time>2020-09-06T09:32:03Z</time>
      </trkpt>
      <trkpt lat="48.29108" lon="2.43827">
        <ele>93</ele>
        <time>2020-09-06T09:32:04Z</time>
      </trkpt>
      <trkpt lat="48.29112" lon="2.4382">
        <ele>92.8</ele>
        <time>2020-09-06T09:32:05Z</time>
      </trkpt>
      <trkpt lat="48.29114" lon="2.4381">
        <ele>92.6</ele>
        <time>2020-09-06T09:32:06Z</time>
      </trkpt>
      <trkpt lat="48.29117" lon="2.43801">
        <ele>92.4</ele>
        <time>2020-09-06T09:32:07Z</time>
      </trkpt>
      <trkpt lat="48.29119" lon="2.43793">
        <ele>92.2</ele>
        <time>2020-09-06T09:32:08Z</time>
      </trkpt>
      <trkpt lat="48.29121" lon="2.43786">
        <ele>92.1</ele>
        <time>2020-09-06T09:32:09Z</time>
      </trkpt>
      <trkpt lat="48.29123" lon="2.43779">
        <ele>92</ele>
        <time>2020-09-06T09:32:10Z</time>
      </trkpt>
      <trkpt lat="48.29124" lon="2.43772">
        <ele>91.9</ele>
        <time>2020-09-06T09:32:11Z</time>
      </trkpt>
      <trkpt lat="48.29126" lon="2.43765">
        <ele>91.8</ele>
        <time>2020-09-06T09:32:12Z</time>
      </trkpt>
      <trkpt lat="48.29127" lon="2.43759">
        <ele>91.7</ele>
        <time>2020-09-06T09:32:13Z</time>
      </trkpt>
      <trkpt lat="48.29129" lon="2.43754">
        <ele>91.5</ele>
        <time>2020-09-06T09:32:14Z</time>
      </trkpt>
      <trkpt lat="48.2913" lon="2.43748">
        <ele>91.3</ele>
        <time>2020-09-06T09:32:15Z</time>
      </trkpt>
      <trkpt lat="48.29128" lon="2.43743">
        <ele>91.2</ele>
        <time>2020-09-06T09:32:16Z</time>
      </trkpt>
      <trkpt lat="48.29128" lon="2.43741">
        <ele>91.2</ele>
        <time>2020-09-06T09:32:17Z</time>
      </trkpt>
      <trkpt lat="48.29125" lon="2.43738">
        <ele>91.1</ele>
        <time>2020-09-06T09:32:18Z</time>
      </trkpt>
      <trkpt lat="48.29124" lon="2.43737">
        <ele>91</ele>
        <time>2020-09-06T09:32:19Z</time>
      </trkpt>
      <trkpt lat="48.29123" lon="2.43732">
        <ele>89.3</ele>
        <time>2020-09-06T09:32:20Z</time>
      </trkpt>
      <trkpt lat="48.29123" lon="2.4373">
        <ele>89.3</ele>
        <time>2020-09-06T09:32:21Z</time>
      </trkpt>
      <trkpt lat="48.29122" lon="2.43725">
        <ele>89.1</ele>
        <time>2020-09-06T09:32:22Z</time>
      </trkpt>
      <trkpt lat="48.29121" lon="2.43723">
        <ele>89.1</ele>
        <time>2020-09-06T09:32:23Z</time>
      </trkpt>
      <trkpt lat="48.2912" lon="2.43719">
        <ele>89</ele>
        <time>2020-09-06T09:32:24Z</time>
      </trkpt>
      <trkpt lat="48.29118" lon="2.43714">
        <ele>88.8</ele>
        <time>2020-09-06T09:32:25Z</time>
      </trkpt>
      <trkpt lat="48.29118" lon="2.43712">
        <ele>88.8</ele>
        <time>2020-09-06T09:32:26Z</time>
      </trkpt>
      <trkpt lat="48.29117" lon="2.43706">
        <ele>88.6</ele>
        <time>2020-09-06T09:32:27Z</time>
      </trkpt>
      <trkpt lat="48.29117" lon="2.43703">
        <ele>88.6</ele>
        <time>2020-09-06T09:32:28Z</time>
      </trkpt>
      <trkpt lat="48.29116" lon="2.43697">
        <ele>88.5</ele>
        <time>2020-09-06T09:32:29Z</time>
      </trkpt>
      <trkpt lat="48.29116" lon="2.4369">
        <ele>88.3</ele>
        <time>2020-09-06T09:32:30Z</time>
      </trkpt>
      <trkpt lat="48.29116" lon="2.43685">
        <ele>88.3</ele>
        <time>2020-09-06T09:32:31Z</time>
      </trkpt>
      <trkpt lat="48.29116" lon="2.4368">
        <ele>88.2</ele>
        <time>2020-09-06T09:32:32Z</time>
      </trkpt>
      <trkpt lat="48.29119" lon="2.4368">
        <ele>88.2</ele>
        <time>2020-09-06T09:32:33Z</time>
      </trkpt>
      <trkpt lat="48.2912" lon="2.4368">
        <ele>88.1</ele>
        <time>2020-09-06T09:32:34Z</time>
      </trkpt>
      <trkpt lat="48.29124" lon="2.43682">
        <ele>88.1</ele>
        <time>2020-09-06T09:32:35Z</time>
      </trkpt>
      <trkpt lat="48.29126" lon="2.43686">
        <ele>88.1</ele>
        <time>2020-09-06T09:32:36Z</time>
      </trkpt>
      <trkpt lat="48.2913" lon="2.43688">
        <ele>88</ele>
        <time>2020-09-06T09:32:37Z</time>
      </trkpt>
      <trkpt lat="48.29133" lon="2.43686">
        <ele>88</ele>
        <time>2020-09-06T09:32:38Z</time>
      </trkpt>
      <trkpt lat="48.29136" lon="2.43681">
        <ele>88.1</ele>
        <time>2020-09-06T09:32:39Z</time>
      </trkpt>
      <trkpt lat="48.29138" lon="2.43673">
        <ele>88.1</ele>
        <time>2020-09-06T09:32:40Z</time>
      </trkpt>
      <trkpt lat="48.29138" lon="2.43668">
        <ele>88.1</ele>
        <time>2020-09-06T09:32:41Z</time>
      </trkpt>
      <trkpt lat="48.29138" lon="2.43663">
        <ele>88.2</ele>
        <time>2020-09-06T09:32:42Z</time>
      </trkpt>
      <trkpt lat="48.29138" lon="2.43662">
        <ele>88.2</ele>
        <time>2020-09-06T09:32:43Z</time>
      </trkpt>
      <trkpt lat="48.29138" lon="2.43659">
        <ele>88.2</ele>
        <time>2020-09-06T09:32:44Z</time>
      </trkpt>
      <trkpt lat="48.29135" lon="2.43654">
        <ele>88</ele>
        <time>2020-09-06T09:33:20Z</time>
      </trkpt>
      <trkpt lat="48.29134" lon="2.43654">
        <ele>88</ele>
        <time>2020-09-06T09:33:21Z</time>
      </trkpt>
      <trkpt lat="48.29132" lon="2.43654">
        <ele>88</ele>
        <time>2020-09-06T09:33:22Z</time>
      </trkpt>
      <trkpt lat="48.29131" lon="2.43653">
        <ele>87.9</ele>
        <time>2020-09-06T09:33:23Z</time>
      </trkpt>
      <trkpt lat="48.29129" lon="2.43651">
        <ele>87.9</ele>
        <time>2020-09-06T09:33:24Z</time>
      </trkpt>
      <trkpt lat="48.29129" lon="2.4365">
        <ele>87.8</ele>
        <time>2020-09-06T09:33:25Z</time>
      </trkpt>
      <trkpt lat="48.29128" lon="2.4365">
        <ele>87.8</ele>
        <time>2020-09-06T09:33:26Z</time>
      </trkpt>
      <trkpt lat="48.29128" lon="2.43649">
        <ele>87.8</ele>
        <time>2020-09-06T09:33:27Z</time>
      </trkpt>
      <trkpt lat="48.29128" lon="2.43649">
        <ele>87.8</ele>
        <time>2020-09-06T09:33:28Z</time>
      </trkpt>
      <trkpt lat="48.29128" lon="2.43651">
        <ele>87.8</ele>
        <time>2020-09-06T09:33:29Z</time>
      </trkpt>
      <trkpt lat="48.29127" lon="2.43651">
        <ele>87.8</ele>
        <time>2020-09-06T09:33:30Z</time>
      </trkpt>
      <trkpt lat="48.29127" lon="2.43652">
        <ele>87.7</ele>
        <time>2020-09-06T09:33:31Z</time>
      </trkpt>
      <trkpt lat="48.29127" lon="2.43653">
        <ele>87.7</ele>
        <time>2020-09-06T09:33:32Z</time>
      </trkpt>
      <trkpt lat="48.29127" lon="2.43653">
        <ele>87.7</ele>
        <time>2020-09-06T09:33:33Z</time>
      </trkpt>
      <trkpt lat="48.29127" lon="2.43653">
        <ele>87.7</ele>
        <time>2020-09-06T09:33:34Z</time>
      </trkpt>
      <trkpt lat="48.29127" lon="2.43652">
        <ele>87.7</ele>
        <time>2020-09-06T09:33:35Z</time>
      </trkpt>
      <trkpt lat="48.29126" lon="2.43652">
        <ele>87.7</ele>
        <time>2020-09-06T09:33:36Z</time>
      </trkpt>
      <trkpt lat="48.29126" lon="2.43652">
        <ele>87.7</ele>
        <time>2020-09-06T09:33:36Z</time>
      </trkpt>
      <trkpt lat="48.29125" lon="2.43652">
        <ele>87.6</ele>
        <time>2020-09-06T09:33:37Z</time>
      </trkpt>
      <trkpt lat="48.29124" lon="2.43651">
        <ele>87.6</ele>
        <time>2020-09-06T09:33:38Z</time>
      </trkpt>
      <trkpt lat="48.29123" lon="2.43651">
        <ele>87.6</ele>
        <time>2020-09-06T09:33:39Z</time>
      </trkpt>
      <trkpt lat="48.29122" lon="2.43652">
        <ele>87.5</ele>
        <time>2020-09-06T09:33:40Z</time>
      </trkpt>
      <trkpt lat="48.29122" lon="2.43652">
        <ele>87.5</ele>
        <time>2020-09-06T09:33:41Z</time>
      </trkpt>
      <trkpt lat="48.29121" lon="2.43651">
        <ele>87.5</ele>
        <time>2020-09-06T09:33:42Z</time>
      </trkpt>
      <trkpt lat="48.29121" lon="2.43651">
        <ele>87.5</ele>
        <time>2020-09-06T09:33:43Z</time>
      </trkpt>
      <trkpt lat="48.29119" lon="2.43652">
        <ele>87.4</ele>
        <time>2020-09-06T09:33:44Z</time>
      </trkpt>
      <trkpt lat="48.29118" lon="2.43653">
        <ele>87.4</ele>
        <time>2020-09-06T09:33:45Z</time>
      </trkpt>
      <trkpt lat="48.29117" lon="2.43654">
        <ele>87.3</ele>
        <time>2020-09-06T09:33:46Z</time>
      </trkpt>
      <trkpt lat="48.29116" lon="2.43656">
        <ele>87.3</ele>
        <time>2020-09-06T09:33:47Z</time>
      </trkpt>
      <trkpt lat="48.29116" lon="2.43657">
        <ele>87.2</ele>
        <time>2020-09-06T09:33:48Z</time>
      </trkpt>
      <trkpt lat="48.29115" lon="2.43658">
        <ele>87.2</ele>
        <time>2020-09-06T09:33:49Z</time>
      </trkpt>
      <trkpt lat="48.29114" lon="2.43659">
        <ele>87.2</ele>
        <time>2020-09-06T09:33:50Z</time>
      </trkpt>
      <trkpt lat="48.29114" lon="2.43659">
        <ele>87.2</ele>
        <time>2020-09-06T09:33:51Z</time>
      </trkpt>
      <trkpt lat="48.29113" lon="2.43659">
        <ele>87.1</ele>
        <time>2020-09-06T09:33:52Z</time>
      </trkpt>
      <trkpt lat="48.29113" lon="2.43659">
        <ele>87.1</ele>
        <time>2020-09-06T09:33:53Z</time>
      </trkpt>
      <trkpt lat="48.29113" lon="2.4366">
        <ele>87.1</ele>
        <time>2020-09-06T09:33:54Z</time>
      </trkpt>
      <trkpt lat="48.29113" lon="2.4366">
        <ele>87.1</ele>
        <time>2020-09-06T09:33:55Z</time>
      </trkpt>
      <trkpt lat="48.29113" lon="2.4366">
        <ele>87.1</ele>
        <time>2020-09-06T09:33:56Z</time>
      </trkpt>
      <trkpt lat="48.29113" lon="2.4366">
        <ele>87.1</ele>
        <time>2020-09-06T09:33:57Z</time>
      </trkpt>
      <trkpt lat="48.29113" lon="2.4366">
        <ele>87.1</ele>
        <time>2020-09-06T09:33:58Z</time>
      </trkpt>
      <trkpt lat="48.29113" lon="2.4366">
        <ele>87.1</ele>
        <time>2020-09-06T09:33:59Z</time>
      </trkpt>
      <trkpt lat="48.29113" lon="2.43661">
        <ele>87.1</ele>
        <time>2020-09-06T09:34:00Z</time>
      </trkpt>
      <trkpt lat="48.29113" lon="2.4366">
        <ele>87.1</ele>
        <time>2020-09-06T09:34:01Z</time>
      </trkpt>
      <trkpt lat="48.29112" lon="2.43651">
        <ele>86.9</ele>
        <time>2020-09-06T09:38:55Z</time>
      </trkpt>
      <trkpt lat="48.29111" lon="2.43649">
        <ele>86.8</ele>
        <time>2020-09-06T09:38:56Z</time>
      </trkpt>
      <trkpt lat="48.2911" lon="2.43645">
        <ele>86.7</ele>
        <time>2020-09-06T09:38:57Z</time>
      </trkpt>
      <trkpt lat="48.2911" lon="2.43643">
        <ele>86.7</ele>
        <time>2020-09-06T09:38:58Z</time>
      </trkpt>
      <trkpt lat="48.2911" lon="2.43642">
        <ele>86.6</ele>
        <time>2020-09-06T09:38:59Z</time>
      </trkpt>
      <trkpt lat="48.2911" lon="2.43637">
        <ele>86.5</ele>
        <time>2020-09-06T09:39:00Z</time>
      </trkpt>
      <trkpt lat="48.29111" lon="2.43635">
        <ele>86.5</ele>
        <time>2020-09-06T09:39:01Z</time>
      </trkpt>
      <trkpt lat="48.29111" lon="2.43629">
        <ele>86.3</ele>
        <time>2020-09-06T09:39:02Z</time>
      </trkpt>
      <trkpt lat="48.29111" lon="2.43627">
        <ele>86.3</ele>
        <time>2020-09-06T09:39:03Z</time>
      </trkpt>
      <trkpt lat="48.29112" lon="2.43623">
        <ele>86.1</ele>
        <time>2020-09-06T09:39:04Z</time>
      </trkpt>
      <trkpt lat="48.29112" lon="2.43618">
        <ele>86</ele>
        <time>2020-09-06T09:39:05Z</time>
      </trkpt>
      <trkpt lat="48.29112" lon="2.43617">
        <ele>86</ele>
        <time>2020-09-06T09:39:06Z</time>
      </trkpt>
      <trkpt lat="48.29113" lon="2.43615">
        <ele>85.9</ele>
        <time>2020-09-06T09:39:07Z</time>
      </trkpt>
      <trkpt lat="48.29113" lon="2.43613">
        <ele>85.8</ele>
        <time>2020-09-06T09:39:08Z</time>
      </trkpt>
      <trkpt lat="48.29115" lon="2.43609">
        <ele>85.7</ele>
        <time>2020-09-06T09:39:09Z</time>
      </trkpt>
      <trkpt lat="48.29115" lon="2.43608">
        <ele>85.6</ele>
        <time>2020-09-06T09:39:10Z</time>
      </trkpt>
      <trkpt lat="48.29116" lon="2.43604">
        <ele>85.5</ele>
        <time>2020-09-06T09:39:11Z</time>
      </trkpt>
      <trkpt lat="48.29117" lon="2.43603">
        <ele>85.4</ele>
        <time>2020-09-06T09:39:12Z</time>
      </trkpt>
      <trkpt lat="48.29119" lon="2.43599">
        <ele>85.2</ele>
        <time>2020-09-06T09:39:13Z</time>
      </trkpt>
      <trkpt lat="48.29121" lon="2.43592">
        <ele>85</ele>
        <time>2020-09-06T09:39:14Z</time>
      </trkpt>
      <trkpt lat="48.29123" lon="2.43586">
        <ele>84.7</ele>
        <time>2020-09-06T09:39:15Z</time>
      </trkpt>
      <trkpt lat="48.29126" lon="2.43582">
        <ele>84.5</ele>
        <time>2020-09-06T09:39:16Z</time>
      </trkpt>
      <trkpt lat="48.29132" lon="2.43581">
        <ele>84.2</ele>
        <time>2020-09-06T09:39:17Z</time>
      </trkpt>
      <trkpt lat="48.29137" lon="2.43579">
        <ele>83.9</ele>
        <time>2020-09-06T09:39:18Z</time>
      </trkpt>
      <trkpt lat="48.29141" lon="2.43575">
        <ele>83.6</ele>
        <time>2020-09-06T09:39:19Z</time>
      </trkpt>
      <trkpt lat="48.29143" lon="2.43569">
        <ele>83.4</ele>
        <time>2020-09-06T09:39:20Z</time>
      </trkpt>
      <trkpt lat="48.29144" lon="2.43561">
        <ele>83.1</ele>
        <time>2020-09-06T09:39:21Z</time>
      </trkpt>
      <trkpt lat="48.29144" lon="2.43553">
        <ele>82.9</ele>
        <time>2020-09-06T09:39:22Z</time>
      </trkpt>
      <trkpt lat="48.29144" lon="2.43546">
        <ele>82.6</ele>
        <time>2020-09-06T09:39:23Z</time>
      </trkpt>
      <trkpt lat="48.29145" lon="2.43539">
        <ele>82.4</ele>
        <time>2020-09-06T09:39:24Z</time>
      </trkpt>
      <trkpt lat="48.29145" lon="2.43533">
        <ele>82.2</ele>
        <time>2020-09-06T09:39:25Z</time>
      </trkpt>
      <trkpt lat="48.29146" lon="2.43527">
        <ele>82.1</ele>
        <time>2020-09-06T09:39:26Z</time>
      </trkpt>
      <trkpt lat="48.29147" lon="2.43521">
        <ele>82</ele>
        <time>2020-09-06T09:39:27Z</time>
      </trkpt>
      <trkpt lat="48.29149" lon="2.43518">
        <ele>81.8</ele>
        <time>2020-09-06T09:39:28Z</time>
      </trkpt>
      <trkpt lat="48.29152" lon="2.43517">
        <ele>81.7</ele>
        <time>2020-09-06T09:39:29Z</time>
      </trkpt>
      <trkpt lat="48.29156" lon="2.43517">
        <ele>81.6</ele>
        <time>2020-09-06T09:39:30Z</time>
      </trkpt>
      <trkpt lat="48.29158" lon="2.43515">
        <ele>81.5</ele>
        <time>2020-09-06T09:39:31Z</time>
      </trkpt>
      <trkpt lat="48.2916" lon="2.4351">
        <ele>81.5</ele>
        <time>2020-09-06T09:39:32Z</time>
      </trkpt>
      <trkpt lat="48.2916" lon="2.43505">
        <ele>81.4</ele>
        <time>2020-09-06T09:39:33Z</time>
      </trkpt>
      <trkpt lat="48.29158" lon="2.43501">
        <ele>81.6</ele>
        <time>2020-09-06T09:39:34Z</time>
      </trkpt>
      <trkpt lat="48.29157" lon="2.43501">
        <ele>81.6</ele>
        <time>2020-09-06T09:39:35Z</time>
      </trkpt>
      <trkpt lat="48.29154" lon="2.43501">
        <ele>81.8</ele>
        <time>2020-09-06T09:39:36Z</time>
      </trkpt>
      <trkpt lat="48.2915" lon="2.43502">
        <ele>82.1</ele>
        <time>2020-09-06T09:39:37Z</time>
      </trkpt>
      <trkpt lat="48.29147" lon="2.43502">
        <ele>82.4</ele>
        <time>2020-09-06T09:39:38Z</time>
      </trkpt>
      <trkpt lat="48.29143" lon="2.43502">
        <ele>82.8</ele>
        <time>2020-09-06T09:39:39Z</time>
      </trkpt>
      <trkpt lat="48.29139" lon="2.43503">
        <ele>83.2</ele>
        <time>2020-09-06T09:39:40Z</time>
      </trkpt>
      <trkpt lat="48.29135" lon="2.43503">
        <ele>83.7</ele>
        <time>2020-09-06T09:39:41Z</time>
      </trkpt>
      <trkpt lat="48.29132" lon="2.43504">
        <ele>84.3</ele>
        <time>2020-09-06T09:39:42Z</time>
      </trkpt>
      <trkpt lat="48.29129" lon="2.43505">
        <ele>84.8</ele>
        <time>2020-09-06T09:39:43Z</time>
      </trkpt>
      <trkpt lat="48.29125" lon="2.43505">
        <ele>85.3</ele>
        <time>2020-09-06T09:39:44Z</time>
      </trkpt>
      <trkpt lat="48.29122" lon="2.43504">
        <ele>85.9</ele>
        <time>2020-09-06T09:39:45Z</time>
      </trkpt>
      <trkpt lat="48.29119" lon="2.43503">
        <ele>86.6</ele>
        <time>2020-09-06T09:39:46Z</time>
      </trkpt>
      <trkpt lat="48.29115" lon="2.43504">
        <ele>87.3</ele>
        <time>2020-09-06T09:39:47Z</time>
      </trkpt>
      <trkpt lat="48.29112" lon="2.43504">
        <ele>87.9</ele>
        <time>2020-09-06T09:39:48Z</time>
      </trkpt>
      <trkpt lat="48.29109" lon="2.43504">
        <ele>88.6</ele>
        <time>2020-09-06T09:39:49Z</time>
      </trkpt>
      <trkpt lat="48.29107" lon="2.43504">
        <ele>88.8</ele>
        <time>2020-09-06T09:39:50Z</time>
      </trkpt>
      <trkpt lat="48.29104" lon="2.43504">
        <ele>89.5</ele>
        <time>2020-09-06T09:39:51Z</time>
      </trkpt>
      <trkpt lat="48.29101" lon="2.43504">
        <ele>90.1</ele>
        <time>2020-09-06T09:39:52Z</time>
      </trkpt>
      <trkpt lat="48.29098" lon="2.43504">
        <ele>90.7</ele>
        <time>2020-09-06T09:39:53Z</time>
      </trkpt>
      <trkpt lat="48.29095" lon="2.43505">
        <ele>91.5</ele>
        <time>2020-09-06T09:39:54Z</time>
      </trkpt>
      <trkpt lat="48.29094" lon="2.43505">
        <ele>91.7</ele>
        <time>2020-09-06T09:39:55Z</time>
      </trkpt>
      <trkpt lat="48.2909" lon="2.43506">
        <ele>92.5</ele>
        <time>2020-09-06T09:39:56Z</time>
      </trkpt>
      <trkpt lat="48.29089" lon="2.43506">
        <ele>92.7</ele>
        <time>2020-09-06T09:39:57Z</time>
      </trkpt>
      <trkpt lat="48.29086" lon="2.43506">
        <ele>93.4</ele>
        <time>2020-09-06T09:39:58Z</time>
      </trkpt>
      <trkpt lat="48.29085" lon="2.43506">
        <ele>93.7</ele>
        <time>2020-09-06T09:39:59Z</time>
      </trkpt>
      <trkpt lat="48.29081" lon="2.43504">
        <ele>94.5</ele>
        <time>2020-09-06T09:40:00Z</time>
      </trkpt>
      <trkpt lat="48.2908" lon="2.43504">
        <ele>94.8</ele>
        <time>2020-09-06T09:40:01Z</time>
      </trkpt>
      <trkpt lat="48.29076" lon="2.43503">
        <ele>95.5</ele>
        <time>2020-09-06T09:40:02Z</time>
      </trkpt>
      <trkpt lat="48.29075" lon="2.43503">
        <ele>95.8</ele>
        <time>2020-09-06T09:40:03Z</time>
      </trkpt>
      <trkpt lat="48.29072" lon="2.43502">
        <ele>96.3</ele>
        <time>2020-09-06T09:40:04Z</time>
      </trkpt>
      <trkpt lat="48.29071" lon="2.43502">
        <ele>96.6</ele>
        <time>2020-09-06T09:40:05Z</time>
      </trkpt>
      <trkpt lat="48.29068" lon="2.43501">
        <ele>97.2</ele>
        <time>2020-09-06T09:40:06Z</time>
      </trkpt>
      <trkpt lat="48.29067" lon="2.43501">
        <ele>97.4</ele>
        <time>2020-09-06T09:40:07Z</time>
      </trkpt>
      <trkpt lat="48.29064" lon="2.43501">
        <ele>98.1</ele>
        <time>2020-09-06T09:40:08Z</time>
      </trkpt>
      <trkpt lat="48.2906" lon="2.43501">
        <ele>98.6</ele>
        <time>2020-09-06T09:40:09Z</time>
      </trkpt>
      <trkpt lat="48.29056" lon="2.43501">
        <ele>99.3</ele>
        <time>2020-09-06T09:40:10Z</time>
      </trkpt>
      <trkpt lat="48.29053" lon="2.435">
        <ele>99.7</ele>
        <time>2020-09-06T09:40:11Z</time>
      </trkpt>
      <trkpt lat="48.29049" lon="2.435">
        <ele>100.2</ele>
        <time>2020-09-06T09:40:12Z</time>
      </trkpt>
      <trkpt lat="48.29046" lon="2.435">
        <ele>100.6</ele>
        <time>2020-09-06T09:40:13Z</time>
      </trkpt>
      <trkpt lat="48.29043" lon="2.43499">
        <ele>101</ele>
        <time>2020-09-06T09:40:14Z</time>
      </trkpt>
      <trkpt lat="48.29039" lon="2.43499">
        <ele>101.3</ele>
        <time>2020-09-06T09:40:15Z</time>
      </trkpt>
      <trkpt lat="48.29038" lon="2.43499">
        <ele>101.5</ele>
        <time>2020-09-06T09:40:16Z</time>
      </trkpt>
      <trkpt lat="48.29035" lon="2.43499">
        <ele>101.8</ele>
        <time>2020-09-06T09:40:17Z</time>
      </trkpt>
      <trkpt lat="48.29031" lon="2.43498">
        <ele>102.2</ele>
        <time>2020-09-06T09:40:18Z</time>
      </trkpt>
      <trkpt lat="48.29029" lon="2.43498">
        <ele>102.3</ele>
        <time>2020-09-06T09:40:19Z</time>
      </trkpt>
      <trkpt lat="48.29026" lon="2.43498">
        <ele>102.6</ele>
        <time>2020-09-06T09:40:20Z</time>
      </trkpt>
      <trkpt lat="48.29025" lon="2.43498">
        <ele>102.7</ele>
        <time>2020-09-06T09:40:21Z</time>
      </trkpt>
      <trkpt lat="48.29022" lon="2.43497">
        <ele>103</ele>
        <time>2020-09-06T09:40:22Z</time>
      </trkpt>
      <trkpt lat="48.29021" lon="2.43496">
        <ele>103.1</ele>
        <time>2020-09-06T09:40:23Z</time>
      </trkpt>
      <trkpt lat="48.29019" lon="2.43494">
        <ele>103.4</ele>
        <time>2020-09-06T09:40:24Z</time>
      </trkpt>
      <trkpt lat="48.29018" lon="2.43492">
        <ele>103.5</ele>
        <time>2020-09-06T09:40:25Z</time>
      </trkpt>
      <trkpt lat="48.29018" lon="2.43488">
        <ele>103.7</ele>
        <time>2020-09-06T09:40:26Z</time>
      </trkpt>
      <trkpt lat="48.29018" lon="2.43486">
        <ele>103.7</ele>
        <time>2020-09-06T09:40:27Z</time>
      </trkpt>
      <trkpt lat="48.2902" lon="2.43482">
        <ele>103.1</ele>
        <time>2020-09-06T09:40:28Z</time>
      </trkpt>
      <trkpt lat="48.29022" lon="2.43482">
        <ele>103.1</ele>
        <time>2020-09-06T09:40:29Z</time>
      </trkpt>
      <trkpt lat="48.29025" lon="2.43481">
        <ele>102.2</ele>
        <time>2020-09-06T09:40:30Z</time>
      </trkpt>
      <trkpt lat="48.29029" lon="2.4348">
        <ele>101.7</ele>
        <time>2020-09-06T09:40:31Z</time>
      </trkpt>
      <trkpt lat="48.29033" lon="2.43481">
        <ele>100.8</ele>
        <time>2020-09-06T09:40:32Z</time>
      </trkpt>
      <trkpt lat="48.29037" lon="2.4348">
        <ele>100.2</ele>
        <time>2020-09-06T09:40:33Z</time>
      </trkpt>
      <trkpt lat="48.29041" lon="2.4348">
        <ele>99.8</ele>
        <time>2020-09-06T09:40:34Z</time>
      </trkpt>
      <trkpt lat="48.29046" lon="2.43479">
        <ele>99.1</ele>
        <time>2020-09-06T09:40:35Z</time>
      </trkpt>
      <trkpt lat="48.29051" lon="2.43479">
        <ele>98</ele>
        <time>2020-09-06T09:40:36Z</time>
      </trkpt>
      <trkpt lat="48.29054" lon="2.43477">
        <ele>97.6</ele>
        <time>2020-09-06T09:40:37Z</time>
      </trkpt>
      <trkpt lat="48.29057" lon="2.43472">
        <ele>97</ele>
        <time>2020-09-06T09:40:38Z</time>
      </trkpt>
      <trkpt lat="48.29059" lon="2.43467">
        <ele>96.1</ele>
        <time>2020-09-06T09:40:39Z</time>
      </trkpt>
      <trkpt lat="48.29061" lon="2.43463">
        <ele>96</ele>
        <time>2020-09-06T09:40:40Z</time>
      </trkpt>
      <trkpt lat="48.29064" lon="2.43461">
        <ele>95.4</ele>
        <time>2020-09-06T09:40:41Z</time>
      </trkpt>
      <trkpt lat="48.29066" lon="2.43456">
        <ele>94.7</ele>
        <time>2020-09-06T09:40:42Z</time>
      </trkpt>
      <trkpt lat="48.29067" lon="2.4345">
        <ele>94.3</ele>
        <time>2020-09-06T09:40:43Z</time>
      </trkpt>
      <trkpt lat="48.29068" lon="2.43442">
        <ele>93.8</ele>
        <time>2020-09-06T09:40:44Z</time>
      </trkpt>
      <trkpt lat="48.29069" lon="2.43433">
        <ele>93.4</ele>
        <time>2020-09-06T09:40:45Z</time>
      </trkpt>
      <trkpt lat="48.29069" lon="2.43423">
        <ele>93.1</ele>
        <time>2020-09-06T09:40:46Z</time>
      </trkpt>
      <trkpt lat="48.29069" lon="2.43418">
        <ele>92.9</ele>
        <time>2020-09-06T09:40:47Z</time>
      </trkpt>
      <trkpt lat="48.29068" lon="2.43414">
        <ele>92.7</ele>
        <time>2020-09-06T09:40:48Z</time>
      </trkpt>
      <trkpt lat="48.29068" lon="2.43409">
        <ele>92.5</ele>
        <time>2020-09-06T09:40:49Z</time>
      </trkpt>
      <trkpt lat="48.29067" lon="2.43403">
        <ele>92.8</ele>
        <time>2020-09-06T09:40:50Z</time>
      </trkpt>
      <trkpt lat="48.29066" lon="2.43399">
        <ele>92.7</ele>
        <time>2020-09-06T09:40:51Z</time>
      </trkpt>
      <trkpt lat="48.29065" lon="2.43394">
        <ele>92.6</ele>
        <time>2020-09-06T09:40:52Z</time>
      </trkpt>
      <trkpt lat="48.29066" lon="2.43389">
        <ele>92.6</ele>
        <time>2020-09-06T09:40:53Z</time>
      </trkpt>
      <trkpt lat="48.29067" lon="2.43383">
        <ele>92.6</ele>
        <time>2020-09-06T09:40:54Z</time>
      </trkpt>
      <trkpt lat="48.29068" lon="2.43377">
        <ele>92.1</ele>
        <time>2020-09-06T09:40:55Z</time>
      </trkpt>
      <trkpt lat="48.29068" lon="2.43372">
        <ele>92.1</ele>
        <time>2020-09-06T09:40:56Z</time>
      </trkpt>
      <trkpt lat="48.29069" lon="2.43366">
        <ele>92.1</ele>
        <time>2020-09-06T09:40:57Z</time>
      </trkpt>
      <trkpt lat="48.2907" lon="2.43359">
        <ele>92</ele>
        <time>2020-09-06T09:40:58Z</time>
      </trkpt>
      <trkpt lat="48.2907" lon="2.43352">
        <ele>91.9</ele>
        <time>2020-09-06T09:40:59Z</time>
      </trkpt>
      <trkpt lat="48.29069" lon="2.43346">
        <ele>91.9</ele>
        <time>2020-09-06T09:41:00Z</time>
      </trkpt>
      <trkpt lat="48.29068" lon="2.43341">
        <ele>91.8</ele>
        <time>2020-09-06T09:41:01Z</time>
      </trkpt>
      <trkpt lat="48.29066" lon="2.43336">
        <ele>92.2</ele>
        <time>2020-09-06T09:41:02Z</time>
      </trkpt>
      <trkpt lat="48.29065" lon="2.43331">
        <ele>92.1</ele>
        <time>2020-09-06T09:41:03Z</time>
      </trkpt>
      <trkpt lat="48.29063" lon="2.43325">
        <ele>92.2</ele>
        <time>2020-09-06T09:41:04Z</time>
      </trkpt>
      <trkpt lat="48.29062" lon="2.43318">
        <ele>92.4</ele>
        <time>2020-09-06T09:41:05Z</time>
      </trkpt>
      <trkpt lat="48.29062" lon="2.43309">
        <ele>91.7</ele>
        <time>2020-09-06T09:41:06Z</time>
      </trkpt>
      <trkpt lat="48.29064" lon="2.43302">
        <ele>91.3</ele>
        <time>2020-09-06T09:41:07Z</time>
      </trkpt>
      <trkpt lat="48.29064" lon="2.43296">
        <ele>91.1</ele>
        <time>2020-09-06T09:41:08Z</time>
      </trkpt>
      <trkpt lat="48.29064" lon="2.43291">
        <ele>90.7</ele>
        <time>2020-09-06T09:41:09Z</time>
      </trkpt>
      <trkpt lat="48.29064" lon="2.43285">
        <ele>90.5</ele>
        <time>2020-09-06T09:41:10Z</time>
      </trkpt>
      <trkpt lat="48.29063" lon="2.43282">
        <ele>90.2</ele>
        <time>2020-09-06T09:41:11Z</time>
      </trkpt>
      <trkpt lat="48.29063" lon="2.43278">
        <ele>90</ele>
        <time>2020-09-06T09:41:12Z</time>
      </trkpt>
      <trkpt lat="48.29064" lon="2.43278">
        <ele>90</ele>
        <time>2020-09-06T09:41:13Z</time>
      </trkpt>
      <trkpt lat="48.29065" lon="2.43278">
        <ele>89.7</ele>
        <time>2020-09-06T09:41:14Z</time>
      </trkpt>
      <trkpt lat="48.29066" lon="2.43277">
        <ele>89.7</ele>
        <time>2020-09-06T09:41:15Z</time>
      </trkpt>
      <trkpt lat="48.29068" lon="2.43274">
        <ele>89.4</ele>
        <time>2020-09-06T09:41:16Z</time>
      </trkpt>
      <trkpt lat="48.29071" lon="2.43275">
        <ele>89.1</ele>
        <time>2020-09-06T09:41:17Z</time>
      </trkpt>
      <trkpt lat="48.29073" lon="2.43276">
        <ele>89.1</ele>
        <time>2020-09-06T09:41:18Z</time>
      </trkpt>
      <trkpt lat="48.29074" lon="2.43276">
        <ele>88.8</ele>
        <time>2020-09-06T09:41:19Z</time>
      </trkpt>
      <trkpt lat="48.29075" lon="2.43278">
        <ele>88.8</ele>
        <time>2020-09-06T09:41:20Z</time>
      </trkpt>
      <trkpt lat="48.29076" lon="2.43279">
        <ele>88.9</ele>
        <time>2020-09-06T09:41:21Z</time>
      </trkpt>
      <trkpt lat="48.29076" lon="2.4328">
        <ele>88.9</ele>
        <time>2020-09-06T09:41:22Z</time>
      </trkpt>
      <trkpt lat="48.29077" lon="2.43281">
        <ele>88.6</ele>
        <time>2020-09-06T09:41:23Z</time>
      </trkpt>
      <trkpt lat="48.29077" lon="2.43282">
        <ele>88.5</ele>
        <time>2020-09-06T09:41:24Z</time>
      </trkpt>
      <trkpt lat="48.29078" lon="2.43282">
        <ele>88.5</ele>
        <time>2020-09-06T09:41:25Z</time>
      </trkpt>
      <trkpt lat="48.29078" lon="2.43282">
        <ele>88.5</ele>
        <time>2020-09-06T09:41:26Z</time>
      </trkpt>
      <trkpt lat="48.29078" lon="2.43281">
        <ele>88.5</ele>
        <time>2020-09-06T09:41:27Z</time>
      </trkpt>
      <trkpt lat="48.29078" lon="2.43279">
        <ele>88.4</ele>
        <time>2020-09-06T09:41:28Z</time>
      </trkpt>
      <trkpt lat="48.29079" lon="2.43278">
        <ele>88.3</ele>
        <time>2020-09-06T09:41:29Z</time>
      </trkpt>
      <trkpt lat="48.29079" lon="2.43276">
        <ele>88</ele>
        <time>2020-09-06T09:41:30Z</time>
      </trkpt>
      <trkpt lat="48.29079" lon="2.43275">
        <ele>87.9</ele>
        <time>2020-09-06T09:41:31Z</time>
      </trkpt>
      <trkpt lat="48.2908" lon="2.43273">
        <ele>87.8</ele>
        <time>2020-09-06T09:41:32Z</time>
      </trkpt>
      <trkpt lat="48.29081" lon="2.43274">
        <ele>87.8</ele>
        <time>2020-09-06T09:41:33Z</time>
      </trkpt>
      <trkpt lat="48.29081" lon="2.43274">
        <ele>87.8</ele>
        <time>2020-09-06T09:41:34Z</time>
      </trkpt>
      <trkpt lat="48.29081" lon="2.43274">
        <ele>87.7</ele>
        <time>2020-09-06T09:41:35Z</time>
      </trkpt>
      <trkpt lat="48.29081" lon="2.43274">
        <ele>87.7</ele>
        <time>2020-09-06T09:41:36Z</time>
      </trkpt>
      <trkpt lat="48.29082" lon="2.43274">
        <ele>87.7</ele>
        <time>2020-09-06T09:41:37Z</time>
      </trkpt>
      <trkpt lat="48.29082" lon="2.43273">
        <ele>87.4</ele>
        <time>2020-09-06T09:41:38Z</time>
      </trkpt>
      <trkpt lat="48.29082" lon="2.43273">
        <ele>87.4</ele>
        <time>2020-09-06T09:41:39Z</time>
      </trkpt>
      <trkpt lat="48.29082" lon="2.43273">
        <ele>87.3</ele>
        <time>2020-09-06T09:41:40Z</time>
      </trkpt>
      <trkpt lat="48.29083" lon="2.43273">
        <ele>87.3</ele>
        <time>2020-09-06T09:41:41Z</time>
      </trkpt>
      <trkpt lat="48.29083" lon="2.43273">
        <ele>87.3</ele>
        <time>2020-09-06T09:41:42Z</time>
      </trkpt>
      <trkpt lat="48.29083" lon="2.43273">
        <ele>87.3</ele>
        <time>2020-09-06T09:41:43Z</time>
      </trkpt>
      <trkpt lat="48.29083" lon="2.43272">
        <ele>87.2</ele>
        <time>2020-09-06T09:41:44Z</time>
      </trkpt>
      <trkpt lat="48.29084" lon="2.43272">
        <ele>87.2</ele>
        <time>2020-09-06T09:41:45Z</time>
      </trkpt>
      <trkpt lat="48.29084" lon="2.43272">
        <ele>87.2</ele>
        <time>2020-09-06T09:41:46Z</time>
      </trkpt>
      <trkpt lat="48.29088" lon="2.43273">
        <ele>86.6</ele>
        <time>2020-09-06T09:41:47Z</time>
      </trkpt>
      <trkpt lat="48.29094" lon="2.43276">
        <ele>86.2</ele>
        <time>2020-09-06T09:41:48Z</time>
      </trkpt>
      <trkpt lat="48.29099" lon="2.43278">
        <ele>85.7</ele>
        <time>2020-09-06T09:41:49Z</time>
      </trkpt>
      <trkpt lat="48.29105" lon="2.43279">
        <ele>85.2</ele>
        <time>2020-09-06T09:41:50Z</time>
      </trkpt>
      <trkpt lat="48.29109" lon="2.4328">
        <ele>85</ele>
        <time>2020-09-06T09:41:51Z</time>
      </trkpt>
      <trkpt lat="48.29112" lon="2.43282">
        <ele>84.7</ele>
        <time>2020-09-06T09:41:52Z</time>
      </trkpt>
      <trkpt lat="48.29114" lon="2.43281">
        <ele>84.4</ele>
        <time>2020-09-06T09:41:53Z</time>
      </trkpt>
      <trkpt lat="48.29115" lon="2.43282">
        <ele>84.4</ele>
        <time>2020-09-06T09:41:54Z</time>
      </trkpt>
      <trkpt lat="48.29116" lon="2.4328">
        <ele>84.1</ele>
        <time>2020-09-06T09:41:55Z</time>
      </trkpt>
      <trkpt lat="48.29117" lon="2.4328">
        <ele>84.1</ele>
        <time>2020-09-06T09:41:56Z</time>
      </trkpt>
      <trkpt lat="48.29118" lon="2.4328">
        <ele>84.1</ele>
        <time>2020-09-06T09:41:57Z</time>
      </trkpt>
      <trkpt lat="48.29119" lon="2.43279">
        <ele>84.1</ele>
        <time>2020-09-06T09:41:58Z</time>
      </trkpt>
      <trkpt lat="48.29119" lon="2.43278">
        <ele>83.8</ele>
        <time>2020-09-06T09:41:59Z</time>
      </trkpt>
      <trkpt lat="48.2912" lon="2.43278">
        <ele>83.8</ele>
        <time>2020-09-06T09:42:00Z</time>
      </trkpt>
      <trkpt lat="48.29121" lon="2.43279">
        <ele>83.8</ele>
        <time>2020-09-06T09:42:01Z</time>
      </trkpt>
      <trkpt lat="48.29122" lon="2.43275">
        <ele>83.7</ele>
        <time>2020-09-06T09:42:02Z</time>
      </trkpt>
      <trkpt lat="48.29123" lon="2.43272">
        <ele>83.5</ele>
        <time>2020-09-06T09:42:03Z</time>
      </trkpt>
      <trkpt lat="48.29124" lon="2.43269">
        <ele>83.4</ele>
        <time>2020-09-06T09:42:04Z</time>
      </trkpt>
      <trkpt lat="48.29125" lon="2.43266">
        <ele>83.2</ele>
        <time>2020-09-06T09:42:05Z</time>
      </trkpt>
      <trkpt lat="48.29126" lon="2.43263">
        <ele>83.1</ele>
        <time>2020-09-06T09:42:06Z</time>
      </trkpt>
      <trkpt lat="48.29127" lon="2.4326">
        <ele>83</ele>
        <time>2020-09-06T09:43:21Z</time>
      </trkpt>
      <trkpt lat="48.29128" lon="2.43257">
        <ele>82.7</ele>
        <time>2020-09-06T09:43:22Z</time>
      </trkpt>
      <trkpt lat="48.29131" lon="2.43254">
        <ele>82.5</ele>
        <time>2020-09-06T09:43:23Z</time>
      </trkpt>
      <trkpt lat="48.29132" lon="2.43252">
        <ele>82.3</ele>
        <time>2020-09-06T09:43:24Z</time>
      </trkpt>
      <trkpt lat="48.29134" lon="2.43246">
        <ele>81.9</ele>
        <time>2020-09-06T09:43:25Z</time>
      </trkpt>
      <trkpt lat="48.29134" lon="2.43244">
        <ele>81.9</ele>
        <time>2020-09-06T09:43:26Z</time>
      </trkpt>
      <trkpt lat="48.29136" lon="2.43241">
        <ele>81.8</ele>
        <time>2020-09-06T09:43:27Z</time>
      </trkpt>
      <trkpt lat="48.29138" lon="2.43238">
        <ele>81.3</ele>
        <time>2020-09-06T09:43:28Z</time>
      </trkpt>
      <trkpt lat="48.29139" lon="2.43238">
        <ele>81</ele>
        <time>2020-09-06T09:43:29Z</time>
      </trkpt>
      <trkpt lat="48.29142" lon="2.43238">
        <ele>80.9</ele>
        <time>2020-09-06T09:43:30Z</time>
      </trkpt>
      <trkpt lat="48.29143" lon="2.43237">
        <ele>80.6</ele>
        <time>2020-09-06T09:43:31Z</time>
      </trkpt>
      <trkpt lat="48.29143" lon="2.43234">
        <ele>80.4</ele>
        <time>2020-09-06T09:43:32Z</time>
      </trkpt>
      <trkpt lat="48.29144" lon="2.43233">
        <ele>80.4</ele>
        <time>2020-09-06T09:43:33Z</time>
      </trkpt>
      <trkpt lat="48.29145" lon="2.43231">
        <ele>80</ele>
        <time>2020-09-06T09:43:34Z</time>
      </trkpt>
      <trkpt lat="48.29146" lon="2.4323">
        <ele>79.9</ele>
        <time>2020-09-06T09:43:35Z</time>
      </trkpt>
      <trkpt lat="48.29147" lon="2.43229">
        <ele>79.9</ele>
        <time>2020-09-06T09:43:36Z</time>
      </trkpt>
      <trkpt lat="48.29147" lon="2.43228">
        <ele>79.9</ele>
        <time>2020-09-06T09:43:37Z</time>
      </trkpt>
      <trkpt lat="48.29148" lon="2.43227">
        <ele>79.6</ele>
        <time>2020-09-06T09:43:38Z</time>
      </trkpt>
      <trkpt lat="48.29149" lon="2.43226">
        <ele>79.4</ele>
        <time>2020-09-06T09:43:39Z</time>
      </trkpt>
      <trkpt lat="48.29151" lon="2.43224">
        <ele>79.1</ele>
        <time>2020-09-06T09:43:40Z</time>
      </trkpt>
      <trkpt lat="48.29152" lon="2.43223">
        <ele>79.1</ele>
        <time>2020-09-06T09:43:41Z</time>
      </trkpt>
      <trkpt lat="48.29153" lon="2.43222">
        <ele>79</ele>
        <time>2020-09-06T09:43:42Z</time>
      </trkpt>
      <trkpt lat="48.29154" lon="2.4322">
        <ele>78.7</ele>
        <time>2020-09-06T09:43:43Z</time>
      </trkpt>
      <trkpt lat="48.29156" lon="2.4322">
        <ele>78.7</ele>
        <time>2020-09-06T09:43:44Z</time>
      </trkpt>
      <trkpt lat="48.29157" lon="2.4322">
        <ele>78.4</ele>
        <time>2020-09-06T09:43:45Z</time>
      </trkpt>
      <trkpt lat="48.29159" lon="2.43221">
        <ele>78.4</ele>
        <time>2020-09-06T09:43:46Z</time>
      </trkpt>
      <trkpt lat="48.29162" lon="2.43223">
        <ele>77.9</ele>
        <time>2020-09-06T09:43:47Z</time>
      </trkpt>
      <trkpt lat="48.29163" lon="2.43224">
        <ele>77.9</ele>
        <time>2020-09-06T09:43:48Z</time>
      </trkpt>
      <trkpt lat="48.29165" lon="2.43225">
        <ele>77.6</ele>
        <time>2020-09-06T09:43:49Z</time>
      </trkpt>
      <trkpt lat="48.29166" lon="2.43225">
        <ele>77.5</ele>
        <time>2020-09-06T09:43:50Z</time>
      </trkpt>
      <trkpt lat="48.29167" lon="2.43225">
        <ele>77.5</ele>
        <time>2020-09-06T09:43:51Z</time>
      </trkpt>
      <trkpt lat="48.29169" lon="2.43227">
        <ele>77.2</ele>
        <time>2020-09-06T09:43:52Z</time>
      </trkpt>
      <trkpt lat="48.29169" lon="2.43227">
        <ele>77.3</ele>
        <time>2020-09-06T09:43:53Z</time>
      </trkpt>
      <trkpt lat="48.2917" lon="2.43228">
        <ele>77.3</ele>
        <time>2020-09-06T09:43:54Z</time>
      </trkpt>
      <trkpt lat="48.29171" lon="2.43229">
        <ele>77</ele>
        <time>2020-09-06T09:43:55Z</time>
      </trkpt>
      <trkpt lat="48.29171" lon="2.4323">
        <ele>77</ele>
        <time>2020-09-06T09:43:56Z</time>
      </trkpt>
      <trkpt lat="48.29171" lon="2.4323">
        <ele>76.9</ele>
        <time>2020-09-06T09:43:57Z</time>
      </trkpt>
      <trkpt lat="48.29172" lon="2.4323">
        <ele>76.9</ele>
        <time>2020-09-06T09:43:58Z</time>
      </trkpt>
      <trkpt lat="48.29172" lon="2.4323">
        <ele>76.9</ele>
        <time>2020-09-06T09:43:59Z</time>
      </trkpt>
      <trkpt lat="48.29172" lon="2.4323">
        <ele>76.9</ele>
        <time>2020-09-06T09:44:00Z</time>
      </trkpt>
      <trkpt lat="48.29172" lon="2.4323">
        <ele>76.8</ele>
        <time>2020-09-06T09:44:01Z</time>
      </trkpt>
      <trkpt lat="48.29173" lon="2.43232">
        <ele>76.9</ele>
        <time>2020-09-06T09:44:02Z</time>
      </trkpt>
      <trkpt lat="48.29172" lon="2.43233">
        <ele>76.9</ele>
        <time>2020-09-06T09:44:03Z</time>
      </trkpt>
      <trkpt lat="48.29172" lon="2.43236">
        <ele>76.9</ele>
        <time>2020-09-06T09:44:04Z</time>
      </trkpt>
      <trkpt lat="48.29172" lon="2.43238">
        <ele>76.9</ele>
        <time>2020-09-06T09:44:05Z</time>
      </trkpt>
      <trkpt lat="48.29172" lon="2.43239">
        <ele>76.9</ele>
        <time>2020-09-06T09:44:06Z</time>
      </trkpt>
      <trkpt lat="48.29172" lon="2.4324">
        <ele>76.9</ele>
        <time>2020-09-06T09:44:07Z</time>
      </trkpt>
      <trkpt lat="48.29172" lon="2.43241">
        <ele>76.9</ele>
        <time>2020-09-06T09:44:08Z</time>
      </trkpt>
      <trkpt lat="48.29171" lon="2.43244">
        <ele>76.9</ele>
        <time>2020-09-06T09:44:09Z</time>
      </trkpt>
      <trkpt lat="48.29171" lon="2.43245">
        <ele>76.9</ele>
        <time>2020-09-06T09:44:10Z</time>
      </trkpt>
      <trkpt lat="48.2917" lon="2.43246">
        <ele>77.2</ele>
        <time>2020-09-06T09:44:11Z</time>
      </trkpt>
      <trkpt lat="48.29169" lon="2.43248">
        <ele>77.2</ele>
        <time>2020-09-06T09:44:12Z</time>
      </trkpt>
      <trkpt lat="48.29168" lon="2.4325">
        <ele>77.3</ele>
        <time>2020-09-06T09:44:13Z</time>
      </trkpt>
      <trkpt lat="48.29167" lon="2.43252">
        <ele>77.6</ele>
        <time>2020-09-06T09:44:14Z</time>
      </trkpt>
      <trkpt lat="48.29166" lon="2.43254">
        <ele>77.7</ele>
        <time>2020-09-06T09:44:15Z</time>
      </trkpt>
      <trkpt lat="48.29164" lon="2.4326">
        <ele>78.1</ele>
        <time>2020-09-06T09:44:16Z</time>
      </trkpt>
      <trkpt lat="48.29164" lon="2.43262">
        <ele>78.2</ele>
        <time>2020-09-06T09:44:17Z</time>
      </trkpt>
      <trkpt lat="48.29164" lon="2.43267">
        <ele>78.3</ele>
        <time>2020-09-06T09:44:18Z</time>
      </trkpt>
      <trkpt lat="48.29165" lon="2.43272">
        <ele>78</ele>
        <time>2020-09-06T09:44:19Z</time>
      </trkpt>
      <trkpt lat="48.29165" lon="2.43276">
        <ele>78.1</ele>
        <time>2020-09-06T09:44:20Z</time>
      </trkpt>
      <trkpt lat="48.29166" lon="2.43277">
        <ele>78</ele>
        <time>2020-09-06T09:44:21Z</time>
      </trkpt>
      <trkpt lat="48.29167" lon="2.43278">
        <ele>78</ele>
        <time>2020-09-06T09:44:22Z</time>
      </trkpt>
      <trkpt lat="48.29167" lon="2.43279">
        <ele>78.1</ele>
        <time>2020-09-06T09:44:23Z</time>
      </trkpt>
      <trkpt lat="48.29166" lon="2.4328">
        <ele>78.1</ele>
        <time>2020-09-06T09:44:24Z</time>
      </trkpt>
      <trkpt lat="48.29166" lon="2.43281">
        <ele>78</ele>
        <time>2020-09-06T09:44:25Z</time>
      </trkpt>
      <trkpt lat="48.29166" lon="2.43282">
        <ele>78</ele>
        <time>2020-09-06T09:44:26Z</time>
      </trkpt>
      <trkpt lat="48.29165" lon="2.43283">
        <ele>78</ele>
        <time>2020-09-06T09:44:27Z</time>
      </trkpt>
      <trkpt lat="48.29164" lon="2.43288">
        <ele>78.5</ele>
        <time>2020-09-06T09:44:28Z</time>
      </trkpt>
      <trkpt lat="48.29163" lon="2.43293">
        <ele>78.5</ele>
        <time>2020-09-06T09:44:29Z</time>
      </trkpt>
      <trkpt lat="48.29161" lon="2.43298">
        <ele>78.9</ele>
        <time>2020-09-06T09:44:31Z</time>
      </trkpt>
      <trkpt lat="48.2916" lon="2.43303">
        <ele>78.9</ele>
        <time>2020-09-06T09:44:32Z</time>
      </trkpt>
      <trkpt lat="48.29159" lon="2.43308">
        <ele>78.9</ele>
        <time>2020-09-06T09:44:33Z</time>
      </trkpt>
      <trkpt lat="48.29158" lon="2.43313">
        <ele>79.2</ele>
        <time>2020-09-06T09:44:34Z</time>
      </trkpt>
      <trkpt lat="48.29158" lon="2.43319">
        <ele>79.2</ele>
        <time>2020-09-06T09:44:35Z</time>
      </trkpt>
      <trkpt lat="48.29157" lon="2.43325">
        <ele>79.3</ele>
        <time>2020-09-06T09:44:36Z</time>
      </trkpt>
      <trkpt lat="48.29155" lon="2.43331">
        <ele>79.5</ele>
        <time>2020-09-06T09:44:37Z</time>
      </trkpt>
      <trkpt lat="48.29154" lon="2.43338">
        <ele>79.5</ele>
        <time>2020-09-06T09:44:38Z</time>
      </trkpt>
      <trkpt lat="48.29153" lon="2.43346">
        <ele>79.7</ele>
        <time>2020-09-06T09:44:39Z</time>
      </trkpt>
      <trkpt lat="48.29152" lon="2.43354">
        <ele>79.7</ele>
        <time>2020-09-06T09:44:40Z</time>
      </trkpt>
      <trkpt lat="48.2915" lon="2.43362">
        <ele>79.8</ele>
        <time>2020-09-06T09:44:41Z</time>
      </trkpt>
      <trkpt lat="48.29149" lon="2.43369">
        <ele>79.9</ele>
        <time>2020-09-06T09:44:42Z</time>
      </trkpt>
      <trkpt lat="48.29147" lon="2.43376">
        <ele>80.1</ele>
        <time>2020-09-06T09:44:43Z</time>
      </trkpt>
      <trkpt lat="48.29146" lon="2.43381">
        <ele>80.1</ele>
        <time>2020-09-06T09:44:44Z</time>
      </trkpt>
      <trkpt lat="48.29146" lon="2.43387">
        <ele>80.2</ele>
        <time>2020-09-06T09:44:45Z</time>
      </trkpt>
      <trkpt lat="48.29145" lon="2.43392">
        <ele>80.2</ele>
        <time>2020-09-06T09:44:46Z</time>
      </trkpt>
      <trkpt lat="48.29144" lon="2.43397">
        <ele>80.3</ele>
        <time>2020-09-06T09:44:47Z</time>
      </trkpt>
      <trkpt lat="48.29143" lon="2.43402">
        <ele>80.6</ele>
        <time>2020-09-06T09:44:48Z</time>
      </trkpt>
      <trkpt lat="48.29141" lon="2.43406">
        <ele>80.9</ele>
        <time>2020-09-06T09:44:49Z</time>
      </trkpt>
      <trkpt lat="48.29141" lon="2.43407">
        <ele>81</ele>
        <time>2020-09-06T09:44:50Z</time>
      </trkpt>
      <trkpt lat="48.29138" lon="2.43412">
        <ele>81.3</ele>
        <time>2020-09-06T09:44:51Z</time>
      </trkpt>
      <trkpt lat="48.29138" lon="2.43413">
        <ele>81.4</ele>
        <time>2020-09-06T09:44:52Z</time>
      </trkpt>
      <trkpt lat="48.29138" lon="2.43418">
        <ele>81.6</ele>
        <time>2020-09-06T09:44:53Z</time>
      </trkpt>
      <trkpt lat="48.29138" lon="2.43422">
        <ele>81.9</ele>
        <time>2020-09-06T09:44:54Z</time>
      </trkpt>
      <trkpt lat="48.29137" lon="2.43427">
        <ele>82.1</ele>
        <time>2020-09-06T09:44:55Z</time>
      </trkpt>
      <trkpt lat="48.29136" lon="2.43433">
        <ele>82.4</ele>
        <time>2020-09-06T09:44:56Z</time>
      </trkpt>
      <trkpt lat="48.29136" lon="2.43435">
        <ele>82.5</ele>
        <time>2020-09-06T09:44:57Z</time>
      </trkpt>
      <trkpt lat="48.29133" lon="2.43439">
        <ele>82.7</ele>
        <time>2020-09-06T09:44:58Z</time>
      </trkpt>
      <trkpt lat="48.29132" lon="2.43441">
        <ele>82.8</ele>
        <time>2020-09-06T09:44:59Z</time>
      </trkpt>
      <trkpt lat="48.29132" lon="2.43446">
        <ele>82.9</ele>
        <time>2020-09-06T09:45:00Z</time>
      </trkpt>
      <trkpt lat="48.29131" lon="2.43449">
        <ele>82.9</ele>
        <time>2020-09-06T09:45:01Z</time>
      </trkpt>
      <trkpt lat="48.29131" lon="2.4345">
        <ele>82.9</ele>
        <time>2020-09-06T09:45:02Z</time>
      </trkpt>
      <trkpt lat="48.29131" lon="2.43452">
        <ele>83</ele>
        <time>2020-09-06T09:45:03Z</time>
      </trkpt>
      <trkpt lat="48.29132" lon="2.43454">
        <ele>83</ele>
        <time>2020-09-06T09:45:04Z</time>
      </trkpt>
      <trkpt lat="48.29134" lon="2.43457">
        <ele>83</ele>
        <time>2020-09-06T09:45:05Z</time>
      </trkpt>
      <trkpt lat="48.29134" lon="2.43458">
        <ele>82.9</ele>
        <time>2020-09-06T09:45:06Z</time>
      </trkpt>
      <trkpt lat="48.29137" lon="2.43463">
        <ele>82.8</ele>
        <time>2020-09-06T09:45:07Z</time>
      </trkpt>
      <trkpt lat="48.29141" lon="2.43468">
        <ele>82.7</ele>
        <time>2020-09-06T09:45:08Z</time>
      </trkpt>
      <trkpt lat="48.29145" lon="2.43471">
        <ele>82.5</ele>
        <time>2020-09-06T09:45:09Z</time>
      </trkpt>
      <trkpt lat="48.29151" lon="2.43473">
        <ele>82.2</ele>
        <time>2020-09-06T09:45:10Z</time>
      </trkpt>
      <trkpt lat="48.29156" lon="2.43477">
        <ele>81.9</ele>
        <time>2020-09-06T09:45:11Z</time>
      </trkpt>
      <trkpt lat="48.2916" lon="2.43484">
        <ele>81.7</ele>
        <time>2020-09-06T09:45:12Z</time>
      </trkpt>
      <trkpt lat="48.29164" lon="2.43489">
        <ele>81.5</ele>
        <time>2020-09-06T09:45:13Z</time>
      </trkpt>
      <trkpt lat="48.29167" lon="2.43493">
        <ele>81.5</ele>
        <time>2020-09-06T09:45:14Z</time>
      </trkpt>
      <trkpt lat="48.2917" lon="2.43496">
        <ele>81.4</ele>
        <time>2020-09-06T09:45:15Z</time>
      </trkpt>
      <trkpt lat="48.29171" lon="2.43503">
        <ele>81.4</ele>
        <time>2020-09-06T09:45:16Z</time>
      </trkpt>
      <trkpt lat="48.29171" lon="2.4351">
        <ele>81.6</ele>
        <time>2020-09-06T09:45:17Z</time>
      </trkpt>
      <trkpt lat="48.2917" lon="2.43515">
        <ele>81.8</ele>
        <time>2020-09-06T09:45:18Z</time>
      </trkpt>
      <trkpt lat="48.2917" lon="2.4352">
        <ele>81.9</ele>
        <time>2020-09-06T09:45:19Z</time>
      </trkpt>
      <trkpt lat="48.2917" lon="2.43525">
        <ele>82.2</ele>
        <time>2020-09-06T09:45:20Z</time>
      </trkpt>
      <trkpt lat="48.2917" lon="2.43527">
        <ele>82.3</ele>
        <time>2020-09-06T09:45:21Z</time>
      </trkpt>
      <trkpt lat="48.2917" lon="2.43532">
        <ele>82.5</ele>
        <time>2020-09-06T09:45:22Z</time>
      </trkpt>
      <trkpt lat="48.2917" lon="2.43533">
        <ele>82.6</ele>
        <time>2020-09-06T09:45:23Z</time>
      </trkpt>
      <trkpt lat="48.29169" lon="2.43536">
        <ele>82.7</ele>
        <time>2020-09-06T09:45:24Z</time>
      </trkpt>
      <trkpt lat="48.2917" lon="2.43538">
        <ele>82.8</ele>
        <time>2020-09-06T09:45:25Z</time>
      </trkpt>
      <trkpt lat="48.2917" lon="2.43538">
        <ele>82.9</ele>
        <time>2020-09-06T09:45:26Z</time>
      </trkpt>
      <trkpt lat="48.2917" lon="2.43538">
        <ele>82.9</ele>
        <time>2020-09-06T09:45:27Z</time>
      </trkpt>
      <trkpt lat="48.2917" lon="2.43537">
        <ele>83</ele>
        <time>2020-09-06T09:45:28Z</time>
      </trkpt>
      <trkpt lat="48.2917" lon="2.43536">
        <ele>83</ele>
        <time>2020-09-06T09:45:29Z</time>
      </trkpt>
      <trkpt lat="48.2917" lon="2.43536">
        <ele>83.1</ele>
        <time>2020-09-06T09:45:30Z</time>
      </trkpt>
      <trkpt lat="48.2917" lon="2.43536">
        <ele>83.1</ele>
        <time>2020-09-06T09:45:31Z</time>
      </trkpt>
      <trkpt lat="48.29171" lon="2.43536">
        <ele>83.1</ele>
        <time>2020-09-06T09:45:32Z</time>
      </trkpt>
      <trkpt lat="48.29171" lon="2.43537">
        <ele>83.2</ele>
        <time>2020-09-06T09:45:33Z</time>
      </trkpt>
      <trkpt lat="48.29172" lon="2.43541">
        <ele>83.4</ele>
        <time>2020-09-06T09:45:34Z</time>
      </trkpt>
      <trkpt lat="48.2917" lon="2.43545">
        <ele>83.7</ele>
        <time>2020-09-06T09:45:35Z</time>
      </trkpt>
      <trkpt lat="48.2917" lon="2.43547">
        <ele>83.9</ele>
        <time>2020-09-06T09:45:36Z</time>
      </trkpt>
      <trkpt lat="48.29169" lon="2.43552">
        <ele>84.2</ele>
        <time>2020-09-06T09:45:37Z</time>
      </trkpt>
      <trkpt lat="48.29168" lon="2.43554">
        <ele>84.3</ele>
        <time>2020-09-06T09:45:38Z</time>
      </trkpt>
      <trkpt lat="48.29169" lon="2.43556">
        <ele>84.5</ele>
        <time>2020-09-06T09:45:39Z</time>
      </trkpt>
      <trkpt lat="48.29169" lon="2.43558">
        <ele>84.6</ele>
        <time>2020-09-06T09:45:40Z</time>
      </trkpt>
      <trkpt lat="48.29169" lon="2.43559">
        <ele>84.6</ele>
        <time>2020-09-06T09:45:41Z</time>
      </trkpt>
      <trkpt lat="48.29168" lon="2.4356">
        <ele>84.7</ele>
        <time>2020-09-06T09:45:42Z</time>
      </trkpt>
      <trkpt lat="48.29168" lon="2.4356">
        <ele>84.8</ele>
        <time>2020-09-06T09:45:43Z</time>
      </trkpt>
      <trkpt lat="48.29167" lon="2.43561">
        <ele>84.9</ele>
        <time>2020-09-06T09:45:44Z</time>
      </trkpt>
      <trkpt lat="48.29167" lon="2.43562">
        <ele>85</ele>
        <time>2020-09-06T09:45:45Z</time>
      </trkpt>
      <trkpt lat="48.29167" lon="2.43564">
        <ele>85.1</ele>
        <time>2020-09-06T09:45:46Z</time>
      </trkpt>
      <trkpt lat="48.29169" lon="2.43563">
        <ele>85.2</ele>
        <time>2020-09-06T09:45:47Z</time>
      </trkpt>
      <trkpt lat="48.2917" lon="2.43562">
        <ele>85.3</ele>
        <time>2020-09-06T09:45:48Z</time>
      </trkpt>
      <trkpt lat="48.2917" lon="2.43563">
        <ele>85.4</ele>
        <time>2020-09-06T09:45:49Z</time>
      </trkpt>
      <trkpt lat="48.2917" lon="2.43565">
        <ele>85.5</ele>
        <time>2020-09-06T09:45:50Z</time>
      </trkpt>
      <trkpt lat="48.2917" lon="2.43566">
        <ele>85.6</ele>
        <time>2020-09-06T09:45:51Z</time>
      </trkpt>
      <trkpt lat="48.2917" lon="2.43568">
        <ele>85.7</ele>
        <time>2020-09-06T09:45:52Z</time>
      </trkpt>
      <trkpt lat="48.2917" lon="2.43569">
        <ele>85.8</ele>
        <time>2020-09-06T09:45:53Z</time>
      </trkpt>
      <trkpt lat="48.29169" lon="2.43572">
        <ele>85.9</ele>
        <time>2020-09-06T09:45:54Z</time>
      </trkpt>
      <trkpt lat="48.29169" lon="2.43573">
        <ele>86</ele>
        <time>2020-09-06T09:45:55Z</time>
      </trkpt>
      <trkpt lat="48.29169" lon="2.43575">
        <ele>86.1</ele>
        <time>2020-09-06T09:45:56Z</time>
      </trkpt>
      <trkpt lat="48.29169" lon="2.43576">
        <ele>86.1</ele>
        <time>2020-09-06T09:45:57Z</time>
      </trkpt>
      <trkpt lat="48.29169" lon="2.43578">
        <ele>86.2</ele>
        <time>2020-09-06T09:45:58Z</time>
      </trkpt>
      <trkpt lat="48.29169" lon="2.43579">
        <ele>86.3</ele>
        <time>2020-09-06T09:45:59Z</time>
      </trkpt>
      <trkpt lat="48.29169" lon="2.43584">
        <ele>86.5</ele>
        <time>2020-09-06T09:46:00Z</time>
      </trkpt>
      <trkpt lat="48.2917" lon="2.43587">
        <ele>86.6</ele>
        <time>2020-09-06T09:46:01Z</time>
      </trkpt>
      <trkpt lat="48.29169" lon="2.43589">
        <ele>86.8</ele>
        <time>2020-09-06T09:46:02Z</time>
      </trkpt>
      <trkpt lat="48.29168" lon="2.43593">
        <ele>86.9</ele>
        <time>2020-09-06T09:46:03Z</time>
      </trkpt>
      <trkpt lat="48.29167" lon="2.43594">
        <ele>87</ele>
        <time>2020-09-06T09:46:04Z</time>
      </trkpt>
      <trkpt lat="48.29167" lon="2.43596">
        <ele>87</ele>
        <time>2020-09-06T09:46:05Z</time>
      </trkpt>
      <trkpt lat="48.29166" lon="2.43598">
        <ele>87.2</ele>
        <time>2020-09-06T09:46:06Z</time>
      </trkpt>
      <trkpt lat="48.29166" lon="2.43603">
        <ele>87.4</ele>
        <time>2020-09-06T09:46:07Z</time>
      </trkpt>
      <trkpt lat="48.29166" lon="2.43605">
        <ele>87.4</ele>
        <time>2020-09-06T09:46:08Z</time>
      </trkpt>
      <trkpt lat="48.29164" lon="2.4361">
        <ele>87.6</ele>
        <time>2020-09-06T09:46:09Z</time>
      </trkpt>
      <trkpt lat="48.29164" lon="2.43611">
        <ele>87.7</ele>
        <time>2020-09-06T09:46:10Z</time>
      </trkpt>
      <trkpt lat="48.29161" lon="2.43616">
        <ele>87.9</ele>
        <time>2020-09-06T09:46:11Z</time>
      </trkpt>
      <trkpt lat="48.2916" lon="2.43617">
        <ele>88</ele>
        <time>2020-09-06T09:46:12Z</time>
      </trkpt>
      <trkpt lat="48.29159" lon="2.43621">
        <ele>88.1</ele>
        <time>2020-09-06T09:46:13Z</time>
      </trkpt>
      <trkpt lat="48.29159" lon="2.43626">
        <ele>88.2</ele>
        <time>2020-09-06T09:46:14Z</time>
      </trkpt>
      <trkpt lat="48.29158" lon="2.43632">
        <ele>88.3</ele>
        <time>2020-09-06T09:46:15Z</time>
      </trkpt>
      <trkpt lat="48.29156" lon="2.43636">
        <ele>88.4</ele>
        <time>2020-09-06T09:46:16Z</time>
      </trkpt>
      <trkpt lat="48.29155" lon="2.43637">
        <ele>88.4</ele>
        <time>2020-09-06T09:46:17Z</time>
      </trkpt>
      <trkpt lat="48.29154" lon="2.43638">
        <ele>88.4</ele>
        <time>2020-09-06T09:46:18Z</time>
      </trkpt>
      <trkpt lat="48.29152" lon="2.43638">
        <ele>88.4</ele>
        <time>2020-09-06T09:46:19Z</time>
      </trkpt>
      <trkpt lat="48.2915" lon="2.43641">
        <ele>88.4</ele>
        <time>2020-09-06T09:46:20Z</time>
      </trkpt>
      <trkpt lat="48.29149" lon="2.43642">
        <ele>88.4</ele>
        <time>2020-09-06T09:46:21Z</time>
      </trkpt>
      <trkpt lat="48.29148" lon="2.43644">
        <ele>88.3</ele>
        <time>2020-09-06T09:46:22Z</time>
      </trkpt>
      <trkpt lat="48.29147" lon="2.43645">
        <ele>88.3</ele>
        <time>2020-09-06T09:46:23Z</time>
      </trkpt>
      <trkpt lat="48.29148" lon="2.43646">
        <ele>88.3</ele>
        <time>2020-09-06T09:46:24Z</time>
      </trkpt>
      <trkpt lat="48.29149" lon="2.43649">
        <ele>88.3</ele>
        <time>2020-09-06T09:46:25Z</time>
      </trkpt>
      <trkpt lat="48.29149" lon="2.43655">
        <ele>88.2</ele>
        <time>2020-09-06T09:46:26Z</time>
      </trkpt>
      <trkpt lat="48.29148" lon="2.43662">
        <ele>88.1</ele>
        <time>2020-09-06T09:46:27Z</time>
      </trkpt>
      <trkpt lat="48.29148" lon="2.43668">
        <ele>88.1</ele>
        <time>2020-09-06T09:46:28Z</time>
      </trkpt>
      <trkpt lat="48.29149" lon="2.43673">
        <ele>88</ele>
        <time>2020-09-06T09:46:29Z</time>
      </trkpt>
      <trkpt lat="48.29151" lon="2.43679">
        <ele>88.1</ele>
        <time>2020-09-06T09:46:30Z</time>
      </trkpt>
      <trkpt lat="48.29151" lon="2.43681">
        <ele>88.1</ele>
        <time>2020-09-06T09:46:31Z</time>
      </trkpt>
      <trkpt lat="48.2915" lon="2.43685">
        <ele>88.1</ele>
        <time>2020-09-06T09:46:32Z</time>
      </trkpt>
      <trkpt lat="48.2915" lon="2.43689">
        <ele>88.2</ele>
        <time>2020-09-06T09:46:33Z</time>
      </trkpt>
      <trkpt lat="48.2915" lon="2.43694">
        <ele>88.3</ele>
        <time>2020-09-06T09:46:34Z</time>
      </trkpt>
      <trkpt lat="48.29151" lon="2.43699">
        <ele>88.5</ele>
        <time>2020-09-06T09:46:35Z</time>
      </trkpt>
      <trkpt lat="48.29151" lon="2.43704">
        <ele>88.6</ele>
        <time>2020-09-06T09:46:36Z</time>
      </trkpt>
      <trkpt lat="48.29152" lon="2.43708">
        <ele>88.8</ele>
        <time>2020-09-06T09:46:37Z</time>
      </trkpt>
      <trkpt lat="48.29152" lon="2.43714">
        <ele>89.1</ele>
        <time>2020-09-06T09:46:38Z</time>
      </trkpt>
      <trkpt lat="48.29153" lon="2.43719">
        <ele>89.3</ele>
        <time>2020-09-06T09:46:39Z</time>
      </trkpt>
      <trkpt lat="48.29154" lon="2.43725">
        <ele>89.5</ele>
        <time>2020-09-06T09:46:40Z</time>
      </trkpt>
      <trkpt lat="48.29154" lon="2.4373">
        <ele>89.7</ele>
        <time>2020-09-06T09:46:41Z</time>
      </trkpt>
      <trkpt lat="48.29154" lon="2.43736">
        <ele>89.8</ele>
        <time>2020-09-06T09:46:42Z</time>
      </trkpt>
      <trkpt lat="48.29154" lon="2.43741">
        <ele>90</ele>
        <time>2020-09-06T09:46:43Z</time>
      </trkpt>
      <trkpt lat="48.29155" lon="2.43747">
        <ele>90.3</ele>
        <time>2020-09-06T09:46:44Z</time>
      </trkpt>
      <trkpt lat="48.29156" lon="2.43752">
        <ele>90.5</ele>
        <time>2020-09-06T09:46:45Z</time>
      </trkpt>
      <trkpt lat="48.29156" lon="2.43757">
        <ele>90.7</ele>
        <time>2020-09-06T09:46:46Z</time>
      </trkpt>
      <trkpt lat="48.29155" lon="2.43758">
        <ele>90.7</ele>
        <time>2020-09-06T09:46:47Z</time>
      </trkpt>
      <trkpt lat="48.29153" lon="2.43762">
        <ele>90.9</ele>
        <time>2020-09-06T09:46:48Z</time>
      </trkpt>
      <trkpt lat="48.2915" lon="2.43765">
        <ele>91.2</ele>
        <time>2020-09-06T09:46:49Z</time>
      </trkpt>
      <trkpt lat="48.29148" lon="2.43769">
        <ele>91.4</ele>
        <time>2020-09-06T09:46:50Z</time>
      </trkpt>
      <trkpt lat="48.29147" lon="2.4377">
        <ele>91.5</ele>
        <time>2020-09-06T09:46:51Z</time>
      </trkpt>
      <trkpt lat="48.29145" lon="2.43774">
        <ele>91.7</ele>
        <time>2020-09-06T09:46:52Z</time>
      </trkpt>
      <trkpt lat="48.29141" lon="2.43778">
        <ele>91.8</ele>
        <time>2020-09-06T09:46:53Z</time>
      </trkpt>
      <trkpt lat="48.2914" lon="2.4378">
        <ele>91.8</ele>
        <time>2020-09-06T09:46:54Z</time>
      </trkpt>
      <trkpt lat="48.29138" lon="2.43784">
        <ele>91.9</ele>
        <time>2020-09-06T09:46:55Z</time>
      </trkpt>
      <trkpt lat="48.29138" lon="2.43785">
        <ele>91.9</ele>
        <time>2020-09-06T09:46:56Z</time>
      </trkpt>
      <trkpt lat="48.29137" lon="2.43791">
        <ele>92</ele>
        <time>2020-09-06T09:46:57Z</time>
      </trkpt>
      <trkpt lat="48.29136" lon="2.43797">
        <ele>92.1</ele>
        <time>2020-09-06T09:46:58Z</time>
      </trkpt>
      <trkpt lat="48.29135" lon="2.43803">
        <ele>92.2</ele>
        <time>2020-09-06T09:46:59Z</time>
      </trkpt>
      <trkpt lat="48.29133" lon="2.43808">
        <ele>92.3</ele>
        <time>2020-09-06T09:47:00Z</time>
      </trkpt>
      <trkpt lat="48.29132" lon="2.43813">
        <ele>92.4</ele>
        <time>2020-09-06T09:47:01Z</time>
      </trkpt>
      <trkpt lat="48.29131" lon="2.43819">
        <ele>92.5</ele>
        <time>2020-09-06T09:47:02Z</time>
      </trkpt>
      <trkpt lat="48.29129" lon="2.43825">
        <ele>92.7</ele>
        <time>2020-09-06T09:47:03Z</time>
      </trkpt>
      <trkpt lat="48.29128" lon="2.4383">
        <ele>92.7</ele>
        <time>2020-09-06T09:47:04Z</time>
      </trkpt>
      <trkpt lat="48.29128" lon="2.43835">
        <ele>92.8</ele>
        <time>2020-09-06T09:47:05Z</time>
      </trkpt>
      <trkpt lat="48.29128" lon="2.43841">
        <ele>92.9</ele>
        <time>2020-09-06T09:47:06Z</time>
      </trkpt>
      <trkpt lat="48.29129" lon="2.43848">
        <ele>93</ele>
        <time>2020-09-06T09:47:07Z</time>
      </trkpt>
      <trkpt lat="48.2913" lon="2.43856">
        <ele>93.1</ele>
        <time>2020-09-06T09:47:08Z</time>
      </trkpt>
      <trkpt lat="48.29131" lon="2.43862">
        <ele>92.8</ele>
        <time>2020-09-06T09:47:09Z</time>
      </trkpt>
      <trkpt lat="48.29131" lon="2.43868">
        <ele>92.9</ele>
        <time>2020-09-06T09:47:10Z</time>
      </trkpt>
      <trkpt lat="48.29133" lon="2.43875">
        <ele>92.9</ele>
        <time>2020-09-06T09:47:11Z</time>
      </trkpt>
      <trkpt lat="48.29135" lon="2.43882">
        <ele>92.4</ele>
        <time>2020-09-06T09:47:12Z</time>
      </trkpt>
      <trkpt lat="48.29139" lon="2.43885">
        <ele>91.9</ele>
        <time>2020-09-06T09:47:13Z</time>
      </trkpt>
      <trkpt lat="48.29142" lon="2.43888">
        <ele>91</ele>
        <time>2020-09-06T09:47:14Z</time>
      </trkpt>
      <trkpt lat="48.29145" lon="2.43892">
        <ele>90.6</ele>
        <time>2020-09-06T09:47:15Z</time>
      </trkpt>
      <trkpt lat="48.29148" lon="2.43897">
        <ele>90.2</ele>
        <time>2020-09-06T09:47:16Z</time>
      </trkpt>
      <trkpt lat="48.29149" lon="2.43903">
        <ele>90.2</ele>
        <time>2020-09-06T09:47:17Z</time>
      </trkpt>
      <trkpt lat="48.2915" lon="2.43911">
        <ele>90.2</ele>
        <time>2020-09-06T09:47:18Z</time>
      </trkpt>
      <trkpt lat="48.29152" lon="2.43918">
        <ele>90</ele>
        <time>2020-09-06T09:47:19Z</time>
      </trkpt>
      <trkpt lat="48.29153" lon="2.43926">
        <ele>89.8</ele>
        <time>2020-09-06T09:47:20Z</time>
      </trkpt>
      <trkpt lat="48.29154" lon="2.43933">
        <ele>90</ele>
        <time>2020-09-06T09:47:21Z</time>
      </trkpt>
      <trkpt lat="48.29154" lon="2.4394">
        <ele>90.4</ele>
        <time>2020-09-06T09:47:22Z</time>
      </trkpt>
      <trkpt lat="48.29153" lon="2.43947">
        <ele>91</ele>
        <time>2020-09-06T09:47:23Z</time>
      </trkpt>
      <trkpt lat="48.29151" lon="2.43954">
        <ele>91.4</ele>
        <time>2020-09-06T09:47:24Z</time>
      </trkpt>
      <trkpt lat="48.29151" lon="2.43961">
        <ele>91.7</ele>
        <time>2020-09-06T09:47:25Z</time>
      </trkpt>
      <trkpt lat="48.2915" lon="2.43968">
        <ele>91.9</ele>
        <time>2020-09-06T09:47:26Z</time>
      </trkpt>
      <trkpt lat="48.29153" lon="2.43973">
        <ele>92</ele>
        <time>2020-09-06T09:47:27Z</time>
      </trkpt>
      <trkpt lat="48.29157" lon="2.43976">
        <ele>91.6</ele>
        <time>2020-09-06T09:47:28Z</time>
      </trkpt>
      <trkpt lat="48.2916" lon="2.43979">
        <ele>91.5</ele>
        <time>2020-09-06T09:47:29Z</time>
      </trkpt>
      <trkpt lat="48.29164" lon="2.43983">
        <ele>91.3</ele>
        <time>2020-09-06T09:47:30Z</time>
      </trkpt>
      <trkpt lat="48.29169" lon="2.43987">
        <ele>90.9</ele>
        <time>2020-09-06T09:47:31Z</time>
      </trkpt>
      <trkpt lat="48.29174" lon="2.43991">
        <ele>90.6</ele>
        <time>2020-09-06T09:47:32Z</time>
      </trkpt>
      <trkpt lat="48.29178" lon="2.43996">
        <ele>90.2</ele>
        <time>2020-09-06T09:47:33Z</time>
      </trkpt>
      <trkpt lat="48.2918" lon="2.44001">
        <ele>89.8</ele>
        <time>2020-09-06T09:47:34Z</time>
      </trkpt>
      <trkpt lat="48.29181" lon="2.44006">
        <ele>89.5</ele>
        <time>2020-09-06T09:47:35Z</time>
      </trkpt>
      <trkpt lat="48.29182" lon="2.4401">
        <ele>89.3</ele>
        <time>2020-09-06T09:47:36Z</time>
      </trkpt>
      <trkpt lat="48.29184" lon="2.44015">
        <ele>88.9</ele>
        <time>2020-09-06T09:47:37Z</time>
      </trkpt>
      <trkpt lat="48.29188" lon="2.44018">
        <ele>88.3</ele>
        <time>2020-09-06T09:47:38Z</time>
      </trkpt>
      <trkpt lat="48.29191" lon="2.44025">
        <ele>87.7</ele>
        <time>2020-09-06T09:47:39Z</time>
      </trkpt>
      <trkpt lat="48.29195" lon="2.44032">
        <ele>87.1</ele>
        <time>2020-09-06T09:47:40Z</time>
      </trkpt>
      <trkpt lat="48.29198" lon="2.44039">
        <ele>86.6</ele>
        <time>2020-09-06T09:47:41Z</time>
      </trkpt>
      <trkpt lat="48.29203" lon="2.44044">
        <ele>86.3</ele>
        <time>2020-09-06T09:47:42Z</time>
      </trkpt>
      <trkpt lat="48.29206" lon="2.44048">
        <ele>86.1</ele>
        <time>2020-09-06T09:47:43Z</time>
      </trkpt>
      <trkpt lat="48.29208" lon="2.4405">
        <ele>86.1</ele>
        <time>2020-09-06T09:47:44Z</time>
      </trkpt>
      <trkpt lat="48.29211" lon="2.44047">
        <ele>86.1</ele>
        <time>2020-09-06T09:47:45Z</time>
      </trkpt>
      <trkpt lat="48.29213" lon="2.44043">
        <ele>86.1</ele>
        <time>2020-09-06T09:47:46Z</time>
      </trkpt>
      <trkpt lat="48.29216" lon="2.44044">
        <ele>86.3</ele>
        <time>2020-09-06T09:47:47Z</time>
      </trkpt>
      <trkpt lat="48.29219" lon="2.44045">
        <ele>86.4</ele>
        <time>2020-09-06T09:47:48Z</time>
      </trkpt>
      <trkpt lat="48.29223" lon="2.44044">
        <ele>86.6</ele>
        <time>2020-09-06T09:47:49Z</time>
      </trkpt>
      <trkpt lat="48.29226" lon="2.44044">
        <ele>86.9</ele>
        <time>2020-09-06T09:47:50Z</time>
      </trkpt>
      <trkpt lat="48.29229" lon="2.44044">
        <ele>87.2</ele>
        <time>2020-09-06T09:47:51Z</time>
      </trkpt>
      <trkpt lat="48.29232" lon="2.44044">
        <ele>87.6</ele>
        <time>2020-09-06T09:47:52Z</time>
      </trkpt>
      <trkpt lat="48.29233" lon="2.44044">
        <ele>87.7</ele>
        <time>2020-09-06T09:47:53Z</time>
      </trkpt>
      <trkpt lat="48.29237" lon="2.44043">
        <ele>88.2</ele>
        <time>2020-09-06T09:47:54Z</time>
      </trkpt>
      <trkpt lat="48.29238" lon="2.44042">
        <ele>88.4</ele>
        <time>2020-09-06T09:47:55Z</time>
      </trkpt>
      <trkpt lat="48.29241" lon="2.44041">
        <ele>88.9</ele>
        <time>2020-09-06T09:47:56Z</time>
      </trkpt>
      <trkpt lat="48.29242" lon="2.44041">
        <ele>89.1</ele>
        <time>2020-09-06T09:47:57Z</time>
      </trkpt>
      <trkpt lat="48.29243" lon="2.44042">
        <ele>89.2</ele>
        <time>2020-09-06T09:47:58Z</time>
      </trkpt>
      <trkpt lat="48.29244" lon="2.44043">
        <ele>89.4</ele>
        <time>2020-09-06T09:47:59Z</time>
      </trkpt>
      <trkpt lat="48.29245" lon="2.44044">
        <ele>89.6</ele>
        <time>2020-09-06T09:48:00Z</time>
      </trkpt>
      <trkpt lat="48.29246" lon="2.44044">
        <ele>89.7</ele>
        <time>2020-09-06T09:48:01Z</time>
      </trkpt>
      <trkpt lat="48.29248" lon="2.44044">
        <ele>90</ele>
        <time>2020-09-06T09:48:02Z</time>
      </trkpt>
      <trkpt lat="48.2925" lon="2.44044">
        <ele>90.3</ele>
        <time>2020-09-06T09:48:03Z</time>
      </trkpt>
      <trkpt lat="48.29251" lon="2.44044">
        <ele>90.5</ele>
        <time>2020-09-06T09:48:04Z</time>
      </trkpt>
      <trkpt lat="48.29252" lon="2.44044">
        <ele>90.6</ele>
        <time>2020-09-06T09:48:05Z</time>
      </trkpt>
      <trkpt lat="48.29253" lon="2.44046">
        <ele>90.8</ele>
        <time>2020-09-06T09:48:06Z</time>
      </trkpt>
      <trkpt lat="48.29253" lon="2.44047">
        <ele>90.9</ele>
        <time>2020-09-06T09:48:07Z</time>
      </trkpt>
      <trkpt lat="48.29254" lon="2.44046">
        <ele>91</ele>
        <time>2020-09-06T09:48:08Z</time>
      </trkpt>
      <trkpt lat="48.29254" lon="2.44046">
        <ele>91</ele>
        <time>2020-09-06T09:48:09Z</time>
      </trkpt>
      <trkpt lat="48.29254" lon="2.44045">
        <ele>91.1</ele>
        <time>2020-09-06T09:48:10Z</time>
      </trkpt>
      <trkpt lat="48.29255" lon="2.44045">
        <ele>91.2</ele>
        <time>2020-09-06T09:48:11Z</time>
      </trkpt>
      <trkpt lat="48.29257" lon="2.44045">
        <ele>91.3</ele>
        <time>2020-09-06T09:48:12Z</time>
      </trkpt>
      <trkpt lat="48.29259" lon="2.44043">
        <ele>91.6</ele>
        <time>2020-09-06T09:48:13Z</time>
      </trkpt>
      <trkpt lat="48.2926" lon="2.44041">
        <ele>91.7</ele>
        <time>2020-09-06T09:48:14Z</time>
      </trkpt>
      <trkpt lat="48.29262" lon="2.44038">
        <ele>91.9</ele>
        <time>2020-09-06T09:48:15Z</time>
      </trkpt>
      <trkpt lat="48.29264" lon="2.44034">
        <ele>92.1</ele>
        <time>2020-09-06T09:48:16Z</time>
      </trkpt>
      <trkpt lat="48.29266" lon="2.4403">
        <ele>92.3</ele>
        <time>2020-09-06T09:48:17Z</time>
      </trkpt>
      <trkpt lat="48.2927" lon="2.44026">
        <ele>92.4</ele>
        <time>2020-09-06T09:48:18Z</time>
      </trkpt>
      <trkpt lat="48.29274" lon="2.4402">
        <ele>92.4</ele>
        <time>2020-09-06T09:48:19Z</time>
      </trkpt>
      <trkpt lat="48.29277" lon="2.44015">
        <ele>92.5</ele>
        <time>2020-09-06T09:48:20Z</time>
      </trkpt>
      <trkpt lat="48.2928" lon="2.44012">
        <ele>92.5</ele>
        <time>2020-09-06T09:48:21Z</time>
      </trkpt>
      <trkpt lat="48.29282" lon="2.44008">
        <ele>92.5</ele>
        <time>2020-09-06T09:48:22Z</time>
      </trkpt>
      <trkpt lat="48.29283" lon="2.44007">
        <ele>92.5</ele>
        <time>2020-09-06T09:48:23Z</time>
      </trkpt>
      <trkpt lat="48.29285" lon="2.44004">
        <ele>92.5</ele>
        <time>2020-09-06T09:48:24Z</time>
      </trkpt>
      <trkpt lat="48.29287" lon="2.44003">
        <ele>92.5</ele>
        <time>2020-09-06T09:48:25Z</time>
      </trkpt>
      <trkpt lat="48.29289" lon="2.44">
        <ele>92.5</ele>
        <time>2020-09-06T09:48:26Z</time>
      </trkpt>
      <trkpt lat="48.29292" lon="2.43996">
        <ele>92.5</ele>
        <time>2020-09-06T09:48:27Z</time>
      </trkpt>
      <trkpt lat="48.29295" lon="2.43994">
        <ele>92.5</ele>
        <time>2020-09-06T09:48:28Z</time>
      </trkpt>
      <trkpt lat="48.29298" lon="2.43993">
        <ele>92.5</ele>
        <time>2020-09-06T09:48:29Z</time>
      </trkpt>
      <trkpt lat="48.29301" lon="2.43992">
        <ele>92.5</ele>
        <time>2020-09-06T09:48:30Z</time>
      </trkpt>
      <trkpt lat="48.29304" lon="2.43992">
        <ele>92.5</ele>
        <time>2020-09-06T09:48:31Z</time>
      </trkpt>
      <trkpt lat="48.29307" lon="2.43991">
        <ele>92.5</ele>
        <time>2020-09-06T09:48:32Z</time>
      </trkpt>
      <trkpt lat="48.29312" lon="2.4399">
        <ele>92.5</ele>
        <time>2020-09-06T09:48:33Z</time>
      </trkpt>
      <trkpt lat="48.29315" lon="2.4399">
        <ele>92.5</ele>
        <time>2020-09-06T09:48:34Z</time>
      </trkpt>
      <trkpt lat="48.29319" lon="2.43986">
        <ele>92.5</ele>
        <time>2020-09-06T09:48:35Z</time>
      </trkpt>
      <trkpt lat="48.2932" lon="2.43984">
        <ele>92.5</ele>
        <time>2020-09-06T09:48:36Z</time>
      </trkpt>
      <trkpt lat="48.29322" lon="2.4398">
        <ele>92.4</ele>
        <time>2020-09-06T09:48:37Z</time>
      </trkpt>
      <trkpt lat="48.29323" lon="2.43974">
        <ele>92.4</ele>
        <time>2020-09-06T09:48:38Z</time>
      </trkpt>
      <trkpt lat="48.29323" lon="2.43969">
        <ele>92.4</ele>
        <time>2020-09-06T09:48:39Z</time>
      </trkpt>
      <trkpt lat="48.29322" lon="2.43963">
        <ele>92.3</ele>
        <time>2020-09-06T09:48:40Z</time>
      </trkpt>
      <trkpt lat="48.29322" lon="2.43959">
        <ele>92.3</ele>
        <time>2020-09-06T09:48:41Z</time>
      </trkpt>
      <trkpt lat="48.29325" lon="2.43954">
        <ele>92.2</ele>
        <time>2020-09-06T09:48:42Z</time>
      </trkpt>
      <trkpt lat="48.29326" lon="2.43953">
        <ele>92.2</ele>
        <time>2020-09-06T09:48:43Z</time>
      </trkpt>
      <trkpt lat="48.29328" lon="2.43948">
        <ele>92.1</ele>
        <time>2020-09-06T09:48:44Z</time>
      </trkpt>
      <trkpt lat="48.29328" lon="2.43945">
        <ele>92.1</ele>
        <time>2020-09-06T09:48:45Z</time>
      </trkpt>
      <trkpt lat="48.2933" lon="2.43941">
        <ele>92</ele>
        <time>2020-09-06T09:48:46Z</time>
      </trkpt>
      <trkpt lat="48.29333" lon="2.43935">
        <ele>91.9</ele>
        <time>2020-09-06T09:48:47Z</time>
      </trkpt>
      <trkpt lat="48.29335" lon="2.43929">
        <ele>91.8</ele>
        <time>2020-09-06T09:48:48Z</time>
      </trkpt>
      <trkpt lat="48.29337" lon="2.43922">
        <ele>91.8</ele>
        <time>2020-09-06T09:48:49Z</time>
      </trkpt>
      <trkpt lat="48.2934" lon="2.43917">
        <ele>91.7</ele>
        <time>2020-09-06T09:48:50Z</time>
      </trkpt>
      <trkpt lat="48.29342" lon="2.43914">
        <ele>91.6</ele>
        <time>2020-09-06T09:48:51Z</time>
      </trkpt>
      <trkpt lat="48.29346" lon="2.43913">
        <ele>91.6</ele>
        <time>2020-09-06T09:48:52Z</time>
      </trkpt>
      <trkpt lat="48.2935" lon="2.43912">
        <ele>91.5</ele>
        <time>2020-09-06T09:48:53Z</time>
      </trkpt>
      <trkpt lat="48.29355" lon="2.4391">
        <ele>91.4</ele>
        <time>2020-09-06T09:48:54Z</time>
      </trkpt>
      <trkpt lat="48.29359" lon="2.43907">
        <ele>91.4</ele>
        <time>2020-09-06T09:48:55Z</time>
      </trkpt>
      <trkpt lat="48.29363" lon="2.43905">
        <ele>91.3</ele>
        <time>2020-09-06T09:48:56Z</time>
      </trkpt>
      <trkpt lat="48.29367" lon="2.43901">
        <ele>91.2</ele>
        <time>2020-09-06T09:48:57Z</time>
      </trkpt>
      <trkpt lat="48.2937" lon="2.43896">
        <ele>91.2</ele>
        <time>2020-09-06T09:48:58Z</time>
      </trkpt>
      <trkpt lat="48.29374" lon="2.43891">
        <ele>91.1</ele>
        <time>2020-09-06T09:48:59Z</time>
      </trkpt>
      <trkpt lat="48.29377" lon="2.43885">
        <ele>91</ele>
        <time>2020-09-06T09:49:00Z</time>
      </trkpt>
      <trkpt lat="48.29381" lon="2.43879">
        <ele>90.9</ele>
        <time>2020-09-06T09:49:01Z</time>
      </trkpt>
      <trkpt lat="48.29385" lon="2.43871">
        <ele>90.8</ele>
        <time>2020-09-06T09:49:02Z</time>
      </trkpt>
      <trkpt lat="48.29389" lon="2.43862">
        <ele>90.6</ele>
        <time>2020-09-06T09:49:03Z</time>
      </trkpt>
      <trkpt lat="48.29392" lon="2.43852">
        <ele>90.3</ele>
        <time>2020-09-06T09:49:04Z</time>
      </trkpt>
      <trkpt lat="48.29394" lon="2.43843">
        <ele>90.1</ele>
        <time>2020-09-06T09:49:05Z</time>
      </trkpt>
      <trkpt lat="48.29393" lon="2.43835">
        <ele>89.9</ele>
        <time>2020-09-06T09:49:06Z</time>
      </trkpt>
      <trkpt lat="48.29392" lon="2.43829">
        <ele>89.8</ele>
        <time>2020-09-06T09:49:07Z</time>
      </trkpt>
      <trkpt lat="48.29391" lon="2.43822">
        <ele>89.6</ele>
        <time>2020-09-06T09:49:08Z</time>
      </trkpt>
      <trkpt lat="48.29391" lon="2.43814">
        <ele>89.4</ele>
        <time>2020-09-06T09:49:09Z</time>
      </trkpt>
      <trkpt lat="48.2939" lon="2.43806">
        <ele>89.2</ele>
        <time>2020-09-06T09:49:10Z</time>
      </trkpt>
      <trkpt lat="48.2939" lon="2.438">
        <ele>89.1</ele>
        <time>2020-09-06T09:49:11Z</time>
      </trkpt>
      <trkpt lat="48.2939" lon="2.43796">
        <ele>89</ele>
        <time>2020-09-06T09:49:12Z</time>
      </trkpt>
      <trkpt lat="48.29392" lon="2.4379">
        <ele>82.9</ele>
        <time>2020-09-06T08:53:10Z</time>
      </trkpt>
      <trkpt lat="48.29392" lon="2.43788">
        <ele>82.8</ele>
        <time>2020-09-06T08:53:11Z</time>
      </trkpt>
      <trkpt lat="48.29392" lon="2.43787">
        <ele>82.7</ele>
        <time>2020-09-06T08:53:12Z</time>
      </trkpt>
      <trkpt lat="48.29393" lon="2.43784">
        <ele>82.6</ele>
        <time>2020-09-06T08:53:13Z</time>
      </trkpt>
      <trkpt lat="48.29394" lon="2.43783">
        <ele>82.5</ele>
        <time>2020-09-06T08:53:14Z</time>
      </trkpt>
      <trkpt lat="48.29395" lon="2.43782">
        <ele>82.4</ele>
        <time>2020-09-06T08:53:15Z</time>
      </trkpt>
      <trkpt lat="48.29396" lon="2.43779">
        <ele>82.2</ele>
        <time>2020-09-06T08:53:16Z</time>
      </trkpt>
      <trkpt lat="48.29397" lon="2.43779">
        <ele>82.1</ele>
        <time>2020-09-06T08:53:17Z</time>
      </trkpt>
      <trkpt lat="48.294" lon="2.43779">
        <ele>81.9</ele>
        <time>2020-09-06T08:53:18Z</time>
      </trkpt>
      <trkpt lat="48.29401" lon="2.43779">
        <ele>81.7</ele>
        <time>2020-09-06T08:53:19Z</time>
      </trkpt>
      <trkpt lat="48.29404" lon="2.43779">
        <ele>81.4</ele>
        <time>2020-09-06T08:53:20Z</time>
      </trkpt>
      <trkpt lat="48.29407" lon="2.43781">
        <ele>81.2</ele>
        <time>2020-09-06T08:53:21Z</time>
      </trkpt>
      <trkpt lat="48.29408" lon="2.4378">
        <ele>81.1</ele>
        <time>2020-09-06T08:53:22Z</time>
      </trkpt>
      <trkpt lat="48.29409" lon="2.43782">
        <ele>81</ele>
        <time>2020-09-06T08:53:23Z</time>
      </trkpt>
      <trkpt lat="48.2941" lon="2.43782">
        <ele>80.9</ele>
        <time>2020-09-06T08:53:24Z</time>
      </trkpt>
      <trkpt lat="48.29411" lon="2.43782">
        <ele>80.8</ele>
        <time>2020-09-06T08:53:25Z</time>
      </trkpt>
      <trkpt lat="48.29412" lon="2.43782">
        <ele>80.8</ele>
        <time>2020-09-06T08:53:26Z</time>
      </trkpt>
      <trkpt lat="48.29413" lon="2.43782">
        <ele>80.6</ele>
        <time>2020-09-06T08:53:27Z</time>
      </trkpt>
      <trkpt lat="48.29413" lon="2.43782">
        <ele>80.6</ele>
        <time>2020-09-06T08:53:28Z</time>
      </trkpt>
      <trkpt lat="48.29413" lon="2.43782">
        <ele>80.6</ele>
        <time>2020-09-06T08:53:29Z</time>
      </trkpt>
      <trkpt lat="48.29414" lon="2.43782">
        <ele>80.6</ele>
        <time>2020-09-06T08:53:30Z</time>
      </trkpt>
      <trkpt lat="48.29414" lon="2.4378">
        <ele>80.5</ele>
        <time>2020-09-06T08:53:31Z</time>
      </trkpt>
      <trkpt lat="48.29416" lon="2.43779">
        <ele>80.3</ele>
        <time>2020-09-06T08:53:32Z</time>
      </trkpt>
      <trkpt lat="48.29416" lon="2.43777">
        <ele>80.2</ele>
        <time>2020-09-06T08:53:33Z</time>
      </trkpt>
      <trkpt lat="48.29417" lon="2.43776">
        <ele>80.1</ele>
        <time>2020-09-06T08:53:34Z</time>
      </trkpt>
      <trkpt lat="48.29419" lon="2.43773">
        <ele>79.9</ele>
        <time>2020-09-06T08:53:35Z</time>
      </trkpt>
      <trkpt lat="48.2942" lon="2.43772">
        <ele>79.8</ele>
        <time>2020-09-06T08:53:36Z</time>
      </trkpt>
      <trkpt lat="48.29421" lon="2.43772">
        <ele>78.6</ele>
        <time>2020-09-06T08:53:37Z</time>
      </trkpt>
      <trkpt lat="48.29424" lon="2.43769">
        <ele>78.3</ele>
        <time>2020-09-06T08:53:38Z</time>
      </trkpt>
      <trkpt lat="48.29424" lon="2.43768">
        <ele>78.2</ele>
        <time>2020-09-06T08:53:39Z</time>
      </trkpt>
      <trkpt lat="48.29427" lon="2.43766">
        <ele>77.9</ele>
        <time>2020-09-06T08:53:40Z</time>
      </trkpt>
      <trkpt lat="48.29431" lon="2.43763">
        <ele>77.6</ele>
        <time>2020-09-06T08:53:41Z</time>
      </trkpt>
      <trkpt lat="48.29434" lon="2.4376">
        <ele>77.3</ele>
        <time>2020-09-06T08:53:42Z</time>
      </trkpt>
      <trkpt lat="48.29438" lon="2.43757">
        <ele>77</ele>
        <time>2020-09-06T08:53:43Z</time>
      </trkpt>
      <trkpt lat="48.29441" lon="2.43753">
        <ele>76.7</ele>
        <time>2020-09-06T08:53:44Z</time>
      </trkpt>
      <trkpt lat="48.29442" lon="2.43751">
        <ele>76.7</ele>
        <time>2020-09-06T08:53:45Z</time>
      </trkpt>
      <trkpt lat="48.29444" lon="2.43749">
        <ele>76.5</ele>
        <time>2020-09-06T08:53:46Z</time>
      </trkpt>
      <trkpt lat="48.29445" lon="2.43749">
        <ele>76.5</ele>
        <time>2020-09-06T08:53:47Z</time>
      </trkpt>
      <trkpt lat="48.29448" lon="2.43749">
        <ele>76.3</ele>
        <time>2020-09-06T08:53:48Z</time>
      </trkpt>
      <trkpt lat="48.29449" lon="2.43748">
        <ele>76.2</ele>
        <time>2020-09-06T08:53:49Z</time>
      </trkpt>
      <trkpt lat="48.29453" lon="2.43744">
        <ele>76</ele>
        <time>2020-09-06T08:53:50Z</time>
      </trkpt>
      <trkpt lat="48.29454" lon="2.43743">
        <ele>75.9</ele>
        <time>2020-09-06T08:53:51Z</time>
      </trkpt>
      <trkpt lat="48.29455" lon="2.43739">
        <ele>75.8</ele>
        <time>2020-09-06T08:53:52Z</time>
      </trkpt>
      <trkpt lat="48.29455" lon="2.43736">
        <ele>75.7</ele>
        <time>2020-09-06T08:53:53Z</time>
      </trkpt>
      <trkpt lat="48.29456" lon="2.43734">
        <ele>75.6</ele>
        <time>2020-09-06T08:53:54Z</time>
      </trkpt>
      <trkpt lat="48.29456" lon="2.43732">
        <ele>75.5</ele>
        <time>2020-09-06T08:53:55Z</time>
      </trkpt>
      <trkpt lat="48.29457" lon="2.4373">
        <ele>75.4</ele>
        <time>2020-09-06T08:53:56Z</time>
      </trkpt>
      <trkpt lat="48.29459" lon="2.43727">
        <ele>75.4</ele>
        <time>2020-09-06T08:53:57Z</time>
      </trkpt>
      <trkpt lat="48.2946" lon="2.43727">
        <ele>75.4</ele>
        <time>2020-09-06T08:53:58Z</time>
      </trkpt>
      <trkpt lat="48.29463" lon="2.43725">
        <ele>75.5</ele>
        <time>2020-09-06T08:53:59Z</time>
      </trkpt>
      <trkpt lat="48.29464" lon="2.43724">
        <ele>75.5</ele>
        <time>2020-09-06T08:54:00Z</time>
      </trkpt>
      <trkpt lat="48.29466" lon="2.43724">
        <ele>75.5</ele>
        <time>2020-09-06T08:54:01Z</time>
      </trkpt>
      <trkpt lat="48.29467" lon="2.43727">
        <ele>75.5</ele>
        <time>2020-09-06T08:54:02Z</time>
      </trkpt>
      <trkpt lat="48.29468" lon="2.43729">
        <ele>75.5</ele>
        <time>2020-09-06T08:54:03Z</time>
      </trkpt>
      <trkpt lat="48.29468" lon="2.4373">
        <ele>75.5</ele>
        <time>2020-09-06T08:54:04Z</time>
      </trkpt>
    </trkseg>
  </trk>
</gpx>